Date StartTime U_cm/s V_cm/s W_cm/s Ustd_cm/s Vstd_cm/s Wstd_cm/s Uvar_(cm/s)^2 Vvar_(cm/s)^2 Wvar_(cm/s)^2 KE_(m/s)^2 TurbulentKE_(m/s)^2 HorizWindSpeed_cm/s FrictionSpeec_cm/s DragCoef SpeedOfSound_m/s SonicTemperature_C Pressure_mb 
10/10/2014  00:00:00      -66.528      -52.996        0.852       31.533       29.016       17.139      994.341      841.925      293.732        0.468        0.106       85.056       17.406        0.042      341.260       15.850      862.764
10/10/2014  00:01:00      -78.269      -67.791       -7.724       23.331       36.125       14.019      544.324     1305.049      196.536        0.641        0.102      103.546        6.213        0.004      341.288       15.894      862.769
10/10/2014  00:02:00      -49.756      -31.834       -2.370       32.515       26.208       15.227     1057.255      686.838      231.865        0.273        0.099       59.068       12.124        0.042      341.258       15.845      862.755
10/10/2014  00:03:00      -35.683      -69.024        0.160       18.766       22.452       10.617      352.174      504.081      112.716        0.350        0.048       77.702        9.727        0.016      341.569       16.373      862.752
10/10/2014  00:04:00      -39.896      -58.939       -2.053       14.488       16.863       11.322      209.908      284.352      128.188        0.285        0.031       71.172        9.628        0.018      341.584       16.399      862.751
10/10/2014  00:05:00      -26.172       -7.247       -1.742       11.436       12.332        5.916      130.775      152.087       34.994        0.053        0.016       27.157        2.818        0.011      341.572       16.377      862.767
10/10/2014  00:06:00      -17.859       25.919        3.065       21.184       15.929        8.384      448.744      253.745       70.290        0.089        0.039       31.476        8.800        0.078      341.517       16.283      862.781
10/10/2014  00:07:00      -35.821       25.659       -6.450       11.556        8.126        7.643      133.540       66.034       58.417        0.112        0.013       44.063        3.918        0.008      341.558       16.354      862.783
10/10/2014  00:08:00       11.976       35.766       -3.343       14.586       20.548       13.994      212.756      422.231      195.823        0.113        0.042       37.718       12.721        0.114      341.365       16.027      862.785
10/10/2014  00:09:00        3.719       63.571       -5.932       11.926       16.549       12.664      142.238      273.873      160.381        0.233        0.029       63.680       10.619        0.028      340.816       15.098      862.776
10/10/2014  00:10:00        4.995       97.687      -15.661       16.907       23.570       10.638      285.830      555.555      113.176        0.538        0.048       97.814        5.928        0.004      340.753       14.991      862.769
10/10/2014  00:11:00       -2.493       90.436      -15.186       14.370       21.911        7.786      206.501      480.080       60.623        0.458        0.037       90.470        6.129        0.005      340.904       15.246      862.775
10/10/2014  00:12:00      -64.352        9.287      -13.239       13.367       31.870        9.172      178.675     1015.717       84.128        0.284        0.064       65.019        4.539        0.005      340.773       15.023      862.773
10/10/2014  00:13:00      -66.786      -33.328      -15.260       10.115       10.785        8.909      102.314      116.323       79.366        0.305        0.015       74.640        4.732        0.004      340.702       14.907      862.760
10/10/2014  00:14:00      -55.516      -33.742       -6.517       17.117       12.988       12.422      292.978      168.692      154.315        0.244        0.031       64.966        8.297        0.016      340.622       14.771      862.742
10/10/2014  00:15:00      -59.862      -35.355       -0.997       23.448       16.331       12.319      549.806      266.697      151.746        0.290        0.048       69.523        9.165        0.017      340.574       14.687      862.727
10/10/2014  00:16:00      -62.148      -54.367       -3.493       33.067       20.228       14.622     1093.438      409.158      213.807        0.427        0.086       82.572       10.361        0.016      340.807       15.082      862.725
10/10/2014  00:17:00      -78.228      -41.105        1.063       26.407       21.711       13.033      697.345      471.357      169.862        0.457        0.067       88.370        8.298        0.009      340.836       15.132      862.723
10/10/2014  00:18:00      -70.258      -27.442       -8.830       19.474       20.009       10.941      379.235      400.344      119.714        0.333        0.045       75.427        8.417        0.012      340.742       14.972      862.738
10/10/2014  00:19:00      -44.511       13.428       -7.434       13.326       14.513       13.202      177.585      210.615      174.300        0.139        0.028       46.492        6.095        0.017      340.780       15.036      862.751
10/10/2014  00:20:00      -47.606       43.222       -6.177       16.330       16.828        7.990      266.682      283.177       63.838        0.239        0.031       64.300        5.735        0.008      340.917       15.268      862.767
10/10/2014  00:21:00      -26.325       49.232       -7.300       12.227       20.150       10.661      149.501      406.030      113.665        0.192        0.033       55.828        7.836        0.020      340.956       15.333      862.779
10/10/2014  00:22:00      -36.175       33.882       -0.702       18.848       23.045       10.807      355.262      531.055      116.796        0.173        0.050       49.564        7.700        0.024      340.919       15.272      862.786
10/10/2014  00:23:00      -19.369      -23.181       -2.002       14.339       17.750        8.996      205.599      315.052       80.933        0.076        0.030       30.208        3.060        0.010      340.794       15.062      862.786
10/10/2014  00:24:00      -17.330      -25.764        6.596       17.618       15.756       12.469      310.383      248.253      155.467        0.086        0.036       31.050        8.728        0.079      340.897       15.235      862.778
10/10/2014  00:25:00      -37.103      -13.725        0.196       34.239       16.225       12.762     1172.300      263.249      162.881        0.158        0.080       39.560       13.407        0.115      340.877       15.199      862.770
10/10/2014  00:26:00      -74.200      -22.540       -4.201       34.672       23.453       14.367     1202.123      550.032      206.405        0.399        0.098       77.548       16.723        0.047      340.623       14.771      862.781
10/10/2014  00:27:00      -76.281      -34.136      -13.187       18.168       24.447       11.920      330.090      597.666      142.088        0.411        0.053       83.571        6.655        0.006      340.455       14.488      862.782
10/10/2014  00:28:00      -55.308      -22.210       -1.342       21.015       13.161        5.414      441.613      173.223       29.312        0.210        0.032       59.601        5.645        0.009      340.578       14.695      862.782
10/10/2014  00:29:00      -24.894      -33.789        0.419       19.467       10.991        6.443      378.977      120.806       41.514        0.115        0.027       41.969        7.393        0.031      340.777       15.032      862.786
10/10/2014  00:30:00        2.601      -20.664       -5.149       11.760       13.833        8.747      138.292      191.360       76.509        0.043        0.020       20.827        4.811        0.053      340.920       15.274      862.777
10/10/2014  00:31:00       -1.023       -1.815        5.698        5.806        8.592        7.553       33.707       73.823       57.041        0.010        0.008        2.084        1.637        0.617      340.711       14.920      862.765
10/10/2014  00:32:00      -50.523      -20.764       -9.044       10.120        6.002        6.172      102.422       36.023       38.095        0.162        0.009       54.623        4.760        0.008      340.550       14.646      862.765
10/10/2014  00:33:00      -75.031      -15.141       -9.799       11.574       13.999        9.697      133.963      195.963       94.034        0.319        0.021       76.543        7.154        0.009      340.443       14.470      862.756
10/10/2014  00:34:00      -90.672      -25.478        1.692       19.456       15.961       12.655      378.537      254.750      160.141        0.483        0.040       94.183       10.674        0.013      340.272       14.177      862.759
10/10/2014  00:35:00      -72.496        4.098       -7.630       29.161       17.024       12.230      850.388      289.831      149.573        0.331        0.064       72.612        8.514        0.014      340.221       14.091      862.784
10/10/2014  00:36:00      -40.890      -20.111       -0.195       21.059       16.434       16.605      443.488      270.063      275.734        0.153        0.049       45.568       13.724        0.091      340.089       13.868      862.795
10/10/2014  00:37:00      -74.272       -7.902      -13.955       18.110       15.836        9.471      327.962      250.784       89.692        0.322        0.033       74.691        6.110        0.007      340.068       13.834      862.809
10/10/2014  00:38:00      -63.191       -2.290       -4.228       21.346       14.942        8.935      455.660      223.270       79.830        0.239        0.038       63.233        6.682        0.011      340.059       13.818      862.807
10/10/2014  00:39:00      -78.534       10.908      -10.705        8.695        9.491        8.091       75.605       90.081       65.463        0.332        0.012       79.288        4.893        0.004      340.148       13.969      862.801
10/10/2014  00:40:00      -46.520      -10.556       -5.826       14.264       19.683        8.561      203.467      387.416       73.298        0.149        0.033       47.703        8.515        0.032      340.182       14.024      862.809
10/10/2014  00:41:00      -34.108       -4.143       -4.433        7.240        9.219        6.613       52.424       84.989       43.726        0.069        0.009       34.358        3.799        0.012      340.311       14.246      862.811
10/10/2014  00:42:00       -5.017       -3.809        1.622        7.584        6.521        3.999       57.523       42.527       15.994        0.008        0.006        6.299        3.912        0.386      340.406       14.406      862.828
10/10/2014  00:43:00       -5.058        8.899       -5.616        6.867        6.430        4.711       47.156       41.349       22.196        0.012        0.006       10.236        3.604        0.124      340.353       14.315      862.861
10/10/2014  00:44:00      -12.517       18.798       -4.096       11.614        9.349        4.633      134.880       87.397       21.462        0.039        0.012       22.584        3.474        0.024      340.342       14.296      862.880
10/10/2014  00:45:00      -13.592       18.896        0.762       13.660       10.314        7.717      186.586      106.384       59.549        0.045        0.018       23.276        7.674        0.109      340.339       14.292      862.902
10/10/2014  00:46:00      -19.300       22.225       -1.597       10.938       10.586        6.591      119.647      112.061       43.438        0.057        0.014       29.435        6.656        0.051      340.421       14.430      862.918
10/10/2014  00:47:00      -31.304        3.874       -5.837       12.187        4.666        8.316      148.517       21.770       69.161        0.063        0.012       31.543        6.966        0.049      340.420       14.429      862.916
10/10/2014  00:48:00      -61.286      -23.745       -9.899       11.924       12.017        8.849      142.172      144.403       78.309        0.239        0.018       65.725        4.540        0.005      340.233       14.111      862.907
10/10/2014  00:49:00      -87.371      -14.140      -14.582       35.248       13.148       14.582     1242.419      172.872      212.634        0.484        0.081       88.508       17.006        0.037      339.954       13.641      862.915
10/10/2014  00:50:00     -117.458       -8.928      -18.395       17.211       17.775       12.851      296.202      315.968      165.137        0.750        0.039      117.797        7.583        0.004      339.808       13.395      862.917
10/10/2014  00:51:00      -89.171      -20.137      -11.573       25.986       22.101       11.371      675.294      488.441      129.306        0.489        0.065       91.417       10.617        0.013      339.838       13.447      862.906
10/10/2014  00:52:00      -59.833       -4.232      -11.035       16.352       12.869       11.709      267.394      165.622      137.095        0.214        0.029       59.982        8.272        0.019      339.806       13.392      862.907
10/10/2014  00:53:00      -68.888      -24.433       -9.672       10.321       19.726       12.483      106.516      389.099      155.814        0.304        0.033       73.092        6.558        0.008      339.887       13.529      862.906
10/10/2014  00:54:00      -46.373       -2.651      -12.084        8.173        9.454        8.226       66.799       89.383       67.675        0.126        0.011       46.449        5.522        0.014      340.023       13.757      862.888
10/10/2014  00:55:00      -21.134       -3.578       -5.203       10.212        6.816        6.200      104.278       46.464       38.434        0.034        0.009       21.435        4.586        0.046      340.100       13.886      862.888
10/10/2014  00:56:00       -8.815       -9.974       -2.105        9.197        6.123        3.789       84.592       37.487       14.357        0.016        0.007       13.311        2.472        0.034      340.219       14.087      862.876
10/10/2014  00:57:00      -51.922      -23.992       -9.457       20.017        8.860        7.443      400.681       78.493       55.404        0.195        0.027       57.197        6.938        0.015      340.007       13.731      862.867
10/10/2014  00:58:00     -101.329      -33.662      -10.922       14.202       12.299        8.656      201.683      151.264       74.930        0.597        0.021      106.774        7.416        0.005      339.877       13.513      862.871
10/10/2014  00:59:00     -118.864      -28.087      -16.628       18.696       22.505       12.748      349.542      506.453      162.518        0.811        0.051      122.138       10.318        0.007      339.885       13.525      862.873
10/10/2014  01:00:00     -103.985        0.393      -11.772       32.362       20.127       17.954     1047.288      405.083      322.364        0.636        0.089      103.986        9.603        0.009      339.720       13.249      862.890
10/10/2014  01:01:00      -88.593      -40.174      -15.000       19.828       19.176       17.126      393.154      367.738      293.291        0.537        0.053       97.276       10.067        0.011      339.732       13.267      862.911
10/10/2014  01:02:00     -106.161      -22.812      -13.090       26.463       22.552       15.601      700.287      508.580      243.391        0.671        0.073      108.584       11.702        0.012      339.657       13.140      862.919
10/10/2014  01:03:00      -91.939      -39.088      -11.139       24.338       31.029       17.490      592.317      962.822      305.899        0.598        0.093       99.904       13.495        0.018      339.664       13.152      862.927
10/10/2014  01:04:00      -95.653      -38.198      -12.418       35.027       20.303       13.529     1226.858      412.217      183.023        0.629        0.091      102.998        8.941        0.008      339.700       13.212      862.937
10/10/2014  01:05:00      -97.383      -30.027      -15.994       31.037       17.463       14.458      963.299      304.957      209.046        0.606        0.074      101.907        6.475        0.004      339.763       13.319      862.932
10/10/2014  01:06:00     -102.750      -35.727      -13.826       12.034       16.807        8.434      144.820      282.476       71.130        0.626        0.025      108.784        5.461        0.003      339.958       13.649      862.934
10/10/2014  01:07:00     -100.079      -39.954      -13.083       15.589       12.452       10.605      243.005      155.047      112.459        0.615        0.026      107.760        6.256        0.003      340.049       13.802      862.929
10/10/2014  01:08:00      -89.138      -43.201       -8.090       17.635       12.330       11.625      310.993      152.019      135.146        0.524        0.030       99.055        9.122        0.008      340.071       13.837      862.937
10/10/2014  01:09:00      -52.918      -45.079       -7.442       13.496       12.117        9.754      182.139      146.819       95.134        0.266        0.021       69.516        4.222        0.004      340.188       14.034      862.941
10/10/2014  01:10:00      -78.693      -48.786       -5.744       17.559       17.457        8.554      308.301      304.753       73.172        0.465        0.034       92.589        7.156        0.006      340.342       14.295      862.935
10/10/2014  01:11:00      -70.776      -14.343       -7.329       15.015       12.819       11.106      225.462      164.327      123.333        0.289        0.026       72.215        7.112        0.010      340.130       13.939      862.944
10/10/2014  01:12:00      -49.469      -29.446       -8.747       14.552       16.772        7.651      211.771      281.310       58.533        0.197        0.028       57.569        3.597        0.004      340.247       14.134      862.943
10/10/2014  01:13:00      -19.843      -32.530       -5.408       14.602        7.872        5.938      213.204       61.970       35.262        0.090        0.016       38.104        5.343        0.020      340.332       14.279      862.951
10/10/2014  01:14:00      -54.759      -49.200      -12.356       12.848       12.019        7.716      165.081      144.460       59.542        0.297        0.018       73.615        5.855        0.006      340.598       14.729      862.940
10/10/2014  01:15:00      -94.268      -36.028      -11.575       17.383        9.627        6.249      302.161       92.674       39.054        0.538        0.022      100.918        2.076        0.000      340.209       14.071      862.944
10/10/2014  01:16:00     -140.996      -16.482      -22.483       16.274       14.018       11.985      264.848      196.494      143.649        1.063        0.030      141.956        8.966        0.004      340.069       13.838      862.953
10/10/2014  01:17:00     -130.245       -5.871      -12.383       22.499       16.766        9.911      506.211      281.094       98.221        0.902        0.044      130.378        2.245        0.000      340.105       13.895      862.951
10/10/2014  01:18:00      -89.123      -21.273       -4.381       27.568       20.268       15.982      760.021      410.777      255.421        0.492        0.071       91.626       10.913        0.014      340.159       13.987      862.956
10/10/2014  01:19:00      -93.437      -36.060       -6.102       31.460       24.391       15.968      989.710      594.922      254.992        0.595        0.092      100.154       14.500        0.021      340.169       14.003      862.953
10/10/2014  01:20:00      -86.320      -16.885      -10.873       22.205       16.848       14.027      493.070      283.844      196.769        0.441        0.049       87.956        9.695        0.012      340.244       14.130      862.953
10/10/2014  01:21:00      -78.812      -12.185       -9.755       14.801       17.892       10.319      219.082      320.136      106.492        0.355        0.032       79.748        8.747        0.012      340.231       14.108      862.967
10/10/2014  01:22:00      -38.125      -29.390       -5.845       26.105        9.466        9.754      681.460       89.604       95.138        0.161        0.043       48.139        9.924        0.043      340.191       14.041      862.977
10/10/2014  01:23:00      -59.993      -28.250       -5.147       11.150       10.987        7.610      124.318      120.708       57.909        0.236        0.015       66.311        6.597        0.010      340.345       14.302      862.974
10/10/2014  01:24:00      -61.321      -24.294       -9.324       18.112        9.333        8.620      328.052       87.107       74.309        0.246        0.024       65.958        9.615        0.021      340.397       14.389      862.978
10/10/2014  01:25:00      -74.566      -42.591      -14.246       15.252       14.788        8.612      232.626      218.671       74.162        0.405        0.026       85.873        8.598        0.010      340.234       14.114      862.991
10/10/2014  01:26:00      -62.370      -30.232      -10.539        9.918        7.863        7.794       98.365       61.834       60.739        0.257        0.011       69.311        4.400        0.004      340.364       14.335      862.983
10/10/2014  01:27:00      -48.721      -42.895      -13.039        7.960        7.585        6.949       63.354       57.533       48.286        0.228        0.008       64.914        3.854        0.004      340.440       14.462      862.976
10/10/2014  01:28:00      -85.270      -14.535      -16.653       19.233       16.755       11.124      369.898      280.738      123.743        0.427        0.039       86.500       12.536        0.021      340.285       14.199      862.982
10/10/2014  01:29:00      -86.909      -44.895      -10.133       15.891       17.539       11.354      252.516      307.605      128.923        0.518        0.034       97.819        7.811        0.006      340.146       13.966      862.985
10/10/2014  01:30:00      -95.537       -0.703      -15.291       11.762       44.499       12.175      138.335     1980.133      148.221        0.581        0.113       95.540       15.158        0.025      340.026       13.764      862.985
10/10/2014  01:31:00      -49.814       22.665      -14.324       65.222       54.790       21.875     4253.850     3001.949      478.504        0.547        0.387       54.728       18.771        0.118      340.668       14.847      862.984
10/10/2014  01:32:00     -122.519      -19.497      -23.731       16.654       16.280       13.337      277.354      265.050      177.877        0.834        0.036      124.061       10.503        0.007      340.217       14.085      862.983
10/10/2014  01:33:00     -120.094      -36.115      -15.539       23.006       18.308       14.274      529.261      335.177      203.757        0.852        0.053      125.407       13.128        0.011      340.086       13.864      862.993
10/10/2014  01:34:00     -113.378      -61.676       -9.155       16.233       16.412       11.583      263.519      269.354      134.165        0.870        0.033      129.068        5.221        0.002      339.949       13.634      862.999
10/10/2014  01:35:00     -109.561      -17.573       -3.737       30.752       30.975       16.375      945.692      959.460      268.143        0.725        0.109      110.961       15.647        0.020      339.737       13.276      862.996
10/10/2014  01:36:00     -112.510        7.347       -9.175       32.153       18.456       16.000     1033.790      340.619      256.009        0.721        0.082      112.750       18.213        0.026      339.706       13.224      862.997
10/10/2014  01:37:00     -133.572       -9.931      -10.597       33.809       22.537       20.353     1143.027      507.933      414.238        1.006        0.103      133.941       16.432        0.015      339.639       13.110      863.002
10/10/2014  01:38:00     -123.655      -14.534       -8.828       45.627       26.071       23.582     2081.790      679.718      556.099        0.945        0.166      124.506       22.785        0.033      339.536       12.937      863.021
10/10/2014  01:39:00      -94.941      -18.507       -0.444       32.484       27.617       19.086     1055.197      762.720      364.262        0.577        0.109       96.728       15.683        0.026      339.610       13.061      863.022
10/10/2014  01:40:00      -91.270      -33.683        0.462       19.790       25.245       14.901      391.636      637.321      222.054        0.536        0.063       97.287       11.090        0.013      339.797       13.377      863.011
10/10/2014  01:41:00      -86.769      -11.747       -2.406       24.851       22.178       13.185      617.596      491.875      173.837        0.448        0.064       87.560       10.431        0.014      339.813       13.402      863.006
10/10/2014  01:42:00     -104.390       -2.322       -3.899       30.866       16.674       16.095      952.739      278.018      259.035        0.620        0.074      104.416       16.241        0.024      339.700       13.213      863.013
10/10/2014  01:43:00      -75.926      -18.929       -1.628       42.789       24.019       19.022     1830.905      576.906      361.823        0.445        0.138       78.250       22.361        0.082      339.655       13.138      863.024
10/10/2014  01:44:00     -122.177       -8.110      -12.315       29.590       25.685       20.681      875.572      659.722      427.709        0.855        0.098      122.446       16.754        0.019      339.720       13.245      863.035
10/10/2014  01:45:00     -143.562        8.674      -18.480       39.818       23.122       16.230     1585.509      534.625      263.427        1.170        0.119      143.824       12.527        0.008      339.765       13.323      863.047
10/10/2014  01:46:00      -95.549       21.980       -8.902       47.094       51.607       21.869     2217.837     2663.231      478.264        0.752        0.268       98.044       16.507        0.028      339.568       12.989      863.047
10/10/2014  01:47:00     -123.319       32.518      -10.955       43.780       37.005       19.412     1916.699     1369.352      376.830        1.002        0.183      127.534       14.286        0.013      339.601       13.046      863.050
10/10/2014  01:48:00     -110.129        3.620      -17.722       33.198       30.749       22.022     1102.089      945.491      484.983        0.749        0.127      110.188       17.283        0.025      339.532       12.930      863.062
10/10/2014  01:49:00     -147.224       19.163       -4.936       42.743       30.174       20.763     1826.988      910.468      431.083        1.262        0.158      148.466       19.931        0.018      339.489       12.856      863.067
10/10/2014  01:50:00     -160.745        6.800      -11.394       22.567       27.568       15.918      509.277      760.006      253.397        1.377        0.076      160.889       11.498        0.005      339.497       12.870      863.073
10/10/2014  01:51:00      -91.412      -20.840       -3.005       41.079       29.668       21.498     1687.446      880.191      462.165        0.591        0.151       93.757       18.744        0.040      339.419       12.740      863.083
10/10/2014  01:52:00     -122.716      -50.028       -6.333       31.534       31.132       21.226      994.400      969.198      450.562        1.001        0.121      132.522       18.051        0.019      339.399       12.706      863.075
10/10/2014  01:53:00      -99.897      -56.071       -3.125       24.446       30.253       16.029      597.629      915.221      256.922        0.745        0.088      114.557       13.186        0.013      339.386       12.685      863.081
10/10/2014  01:54:00      -72.425      -30.321       -2.696       36.945       28.708       13.177     1364.959      824.160      173.625        0.427        0.118       78.516       13.146        0.028      339.434       12.764      863.083
10/10/2014  01:55:00      -54.448      -12.754        2.781       24.342       17.533       10.807      592.532      307.422      116.781        0.208        0.051       55.922        9.174        0.027      339.445       12.784      863.077
10/10/2014  01:56:00      -72.801      -18.169       -1.956       17.709       20.877       10.757      313.598      435.852      115.720        0.325        0.043       75.034        9.569        0.016      339.452       12.796      863.084
10/10/2014  01:57:00      -82.488      -11.225       -5.846       22.847       18.272       10.142      521.986      333.859      102.858        0.396        0.048       83.248       10.342        0.015      339.480       12.843      863.091
10/10/2014  01:58:00      -67.279      -51.971       -0.984       31.117       19.200       15.606      968.269      368.621      243.540        0.440        0.079       85.014       16.232        0.036      339.467       12.819      863.092
10/10/2014  01:59:00     -109.397      -28.242       -7.319       27.328       21.185       12.787      746.827      448.806      163.503        0.709        0.068      112.984       13.476        0.014      339.537       12.937      863.097
10/10/2014  02:00:00      -88.291       13.050       -8.388       36.983       28.738       18.917     1367.715      825.856      357.850        0.529        0.128       89.250       17.125        0.037      339.396       12.700      863.111
10/10/2014  02:01:00     -102.419       25.225       -9.051       23.221       18.409       16.162      539.232      338.884      261.225        0.617        0.057      105.479       12.990        0.015      339.321       12.574      863.108
10/10/2014  02:02:00      -68.990      -25.714       -3.005       31.837       22.827       13.299     1013.601      521.084      176.873        0.357        0.086       73.626       10.093        0.019      339.309       12.552      863.106
10/10/2014  02:03:00      -57.973       -2.773       -0.070       26.038       24.443       16.853      677.974      597.484      284.018        0.246        0.078       58.039       15.654        0.073      339.320       12.570      863.107
10/10/2014  02:04:00      -80.863        7.435       -8.375       25.013       21.616       14.786      625.627      467.240      218.630        0.399        0.066       81.204       12.657        0.024      339.385       12.682      863.096
10/10/2014  02:05:00      -56.760      -24.744       -9.473       19.594       20.450       12.433      383.921      418.193      154.582        0.244        0.048       61.919       11.346        0.034      339.412       12.727      863.095
10/10/2014  02:06:00      -64.368      -50.278       -6.468       15.383       20.867       12.251      236.650      435.436      150.087        0.377        0.041       81.677        9.089        0.012      339.403       12.711      863.104
10/10/2014  02:07:00      -82.336      -33.939       -8.802       16.202       15.486       11.978      262.520      239.812      143.480        0.433        0.032       89.056        9.385        0.011      339.329       12.587      863.115
10/10/2014  02:08:00      -85.793      -11.532       -3.120       14.486       14.157        9.061      209.847      200.413       82.109        0.400        0.025       86.564        7.137        0.007      339.344       12.613      863.126
10/10/2014  02:09:00      -42.017      -16.715        2.313       21.020       15.664       10.274      441.846      245.350      105.564        0.142        0.040       45.220        6.118        0.018      339.369       12.656      863.131
10/10/2014  02:10:00      -38.047      -22.534       -0.026       26.547       14.578        9.469      704.734      212.529       89.661        0.148        0.050       44.219        6.620        0.022      339.385       12.682      863.127
10/10/2014  02:11:00      -18.166      -26.159       -3.399       25.361       14.493       10.779      643.170      210.059      116.178        0.100        0.048       31.847       10.456        0.108      339.517       12.905      863.124
10/10/2014  02:12:00      -31.303      -47.120        6.961       30.597       26.390       16.181      936.200      696.455      261.825        0.257        0.095       56.570       16.101        0.081      339.574       13.001      863.114
10/10/2014  02:13:00      -49.230      -36.323       -0.943       26.448       25.416       14.625      699.501      645.958      213.887        0.265        0.078       61.180       10.309        0.028      339.564       12.984      863.104
10/10/2014  02:14:00      -63.128      -35.952        0.190       32.340       19.129       10.338     1045.904      365.903      106.867        0.340        0.076       72.648       13.190        0.033      339.509       12.890      863.111
10/10/2014  02:15:00     -101.732      -30.038       -3.983       25.839       21.527       14.293      667.638      463.424      204.277        0.630        0.067      106.074       10.033        0.009      339.411       12.726      863.137
10/10/2014  02:16:00      -70.670       -6.370        0.488       24.230       21.521       13.771      587.082      463.138      189.634        0.314        0.062       70.957       10.562        0.022      339.259       12.470      863.143
10/10/2014  02:17:00     -104.311        6.101       -8.410       12.771       12.370       11.583      163.086      153.008      134.158        0.572        0.023      104.489        9.009        0.007      339.223       12.410      863.149
10/10/2014  02:18:00      -60.905        8.024       -5.691       30.673       19.602       14.380      940.833      384.241      206.782        0.267        0.077       61.431       13.929        0.051      339.249       12.453      863.164
10/10/2014  02:19:00      -38.976      -15.994       -2.861       19.733       23.389        9.431      389.389      547.050       88.946        0.140        0.051       42.130       10.468        0.062      339.237       12.431      863.165
10/10/2014  02:20:00      -10.705      -24.287        9.022       26.810       18.383       11.781      718.797      337.950      138.787        0.099        0.060       26.542       12.648        0.227      339.252       12.460      863.150
10/10/2014  02:21:00      -26.560      -41.210        4.864       29.831       17.550       17.519      889.902      307.989      306.931        0.197        0.075       49.028       16.195        0.109      339.380       12.675      863.132
10/10/2014  02:22:00      -43.633      -44.478        0.268       31.577       25.434       14.112      997.084      646.911      199.162        0.286        0.092       62.307       14.768        0.056      339.551       12.962      863.119
10/10/2014  02:23:00      -71.549      -31.042        0.818       35.218       28.859       17.785     1240.314      832.819      316.311        0.424        0.119       77.993       17.991        0.053      339.562       12.982      863.132
10/10/2014  02:24:00      -98.463      -34.033       -1.853       30.332       22.166       15.299      920.039      491.335      234.050        0.625        0.082      104.179       14.107        0.018      339.427       12.753      863.139
10/10/2014  02:25:00      -87.278      -43.960       -1.687       37.592       20.581       12.956     1413.179      423.578      167.867        0.578        0.100       97.724       13.238        0.018      339.561       12.979      863.136
10/10/2014  02:26:00      -27.373      -44.027        6.220       28.624       20.154       16.210      819.341      406.183      262.750        0.211        0.074       51.843       16.075        0.096      339.728       13.260      863.129
10/10/2014  02:27:00      -64.661      -60.214        2.060       26.238       24.815       13.825      688.435      615.802      191.121        0.465        0.075       88.356       11.389        0.017      339.713       13.235      863.137
10/10/2014  02:28:00      -44.419      -13.471       -1.034       23.314       13.374       10.690      543.553      178.869      114.285        0.150        0.042       46.417        9.261        0.040      339.560       12.977      863.134
10/10/2014  02:29:00      -32.463       11.935       -0.741       15.409        9.387        8.783      237.435       88.125       77.139        0.080        0.020       34.588        9.502        0.075      339.452       12.796      863.136
10/10/2014  02:30:00      -56.504        8.610       -3.111       21.258       11.257        7.954      451.891      126.720       63.271        0.196        0.032       57.156        7.326        0.016      339.531       12.928      863.139
10/10/2014  02:31:00      -47.070      -14.169        2.143       18.922       20.351       11.403      358.057      414.151      130.029        0.166        0.045       49.156       11.053        0.051      339.431       12.760      863.147
10/10/2014  02:32:00      -23.881      -13.660        4.437       18.030       10.833        8.291      325.066      117.353       68.741        0.064        0.026       27.512        7.929        0.083      339.256       12.465      863.150
10/10/2014  02:33:00        4.865      -21.914        2.340       10.127       13.243        7.923      102.556      175.384       62.771        0.042        0.017       22.448        5.957        0.070      339.177       12.329      863.150
10/10/2014  02:34:00        8.462      -16.722       16.334       12.182       12.975       11.373      148.392      168.355      129.340        0.053        0.022       18.741        9.663        0.266      339.088       12.181      863.150
10/10/2014  02:35:00        9.797      -10.890        3.645       24.640       24.422       10.684      607.149      596.456      114.151        0.077        0.066       14.648        6.130        0.175      339.020       12.067      863.154
10/10/2014  02:36:00       13.712      -17.375        1.975       23.483       13.451       17.308      551.436      180.934      299.561        0.076        0.052       22.134       13.746        0.386      338.923       11.904      863.174
10/10/2014  02:37:00      -39.526       -0.447        0.459       29.562       15.812       13.905      873.921      250.007      193.347        0.144        0.066       39.528        9.177        0.054      339.257       12.467      863.183
10/10/2014  02:38:00      -31.596       33.053       -6.000       24.457       14.571       13.586      598.156      212.319      184.592        0.156        0.050       45.726        4.476        0.010      339.286       12.514      863.172
10/10/2014  02:39:00      -42.429      -18.842        5.809       16.728       19.827       12.557      279.842      393.117      157.677        0.151        0.042       46.424       11.748        0.064      339.326       12.582      863.156
10/10/2014  02:40:00       -9.922       -0.191        5.626        9.583        6.582        5.805       91.829       43.318       33.702        0.015        0.008        9.924        5.825        0.345      339.185       12.345      863.146
10/10/2014  02:41:00      -10.057      -50.312       -1.811       14.492       28.295        8.386      210.013      800.626       70.318        0.186        0.054       51.307        9.205        0.032      339.297       12.532      863.155
10/10/2014  02:42:00       16.269      -24.347       13.834       14.047       18.336       20.121      197.309      336.201      404.855        0.099        0.047       29.283       13.709        0.219      339.167       12.314      863.165
10/10/2014  02:43:00      -24.061      -20.751       15.607       34.249       23.283       18.509     1172.986      542.086      342.583        0.166        0.103       31.773       19.154        0.363      339.008       12.047      863.166
10/10/2014  02:44:00      -64.479      -34.320        0.706       29.959       19.235       17.536      897.561      369.979      307.506        0.346        0.079       73.044       11.578        0.025      339.262       12.473      863.156
10/10/2014  02:45:00     -105.959      -51.642       -1.414       20.470       19.703       14.755      419.019      388.228      217.706        0.746        0.051      117.874       11.116        0.009      339.325       12.581      863.155
10/10/2014  02:46:00      -74.025      -47.225        0.796       39.019       23.402       19.138     1522.497      547.636      366.275        0.507        0.122       87.807       19.010        0.047      339.059       12.132      863.176
10/10/2014  02:47:00      -86.525       -6.767       -5.511       26.148       19.269       14.595      683.702      371.279      213.018        0.442        0.063       86.790       11.759        0.018      338.937       11.927      863.179
10/10/2014  02:48:00      -63.040       -2.693      -11.912       18.122       17.527       10.832      328.412      307.187      117.340        0.244        0.038       63.098        8.931        0.020      338.864       11.805      863.167
10/10/2014  02:49:00      -40.369      -21.477       -1.768       19.346       13.636        8.995      374.282      185.933       80.910        0.137        0.032       45.727        7.883        0.030      338.961       11.967      863.144
10/10/2014  02:50:00      -57.132      -21.475       -5.624       14.509       10.910        8.380      210.525      119.033       70.226        0.208        0.020       61.035        6.040        0.010      339.044       12.109      863.138
10/10/2014  02:51:00      -95.106      -43.812      -13.241       10.933       11.037        6.293      119.528      121.823       39.598        0.571        0.014      104.712        3.810        0.001      338.991       12.017      863.141
10/10/2014  02:52:00     -108.228      -42.645      -10.130       19.119       14.654       11.630      365.525      214.748      135.265        0.717        0.036      116.327       11.481        0.010      338.962       11.971      863.124
10/10/2014  02:53:00      -92.034       -9.438       -7.870       21.237       12.971       11.082      451.018      168.240      122.813        0.468        0.037       92.517        8.805        0.009      338.998       12.030      863.102
10/10/2014  02:54:00      -23.662      -14.455       -2.254       13.816        8.917        5.995      190.878       79.522       35.935        0.054        0.015       27.728        5.554        0.040      339.027       12.077      863.098
10/10/2014  02:55:00      -41.019      -24.549        3.606       30.475       21.391       16.528      928.754      457.567      273.177        0.198        0.083       47.804       16.142        0.114      339.000       12.033      863.113
10/10/2014  02:56:00      -94.621      -35.690        0.252       36.352       29.129       18.457     1321.474      848.501      340.651        0.637        0.126      101.128        8.463        0.007      338.904       11.872      863.127
10/10/2014  02:57:00      -54.597        8.266       -0.295       32.717       26.849       17.147     1070.397      720.864      294.026        0.257        0.104       55.219       18.636        0.114      338.923       11.906      863.134
10/10/2014  02:58:00      -49.324      -41.019        3.349       35.458       18.927       18.266     1257.245      358.243      333.661        0.304        0.097       64.152       20.029        0.097      338.997       12.029      863.142
10/10/2014  02:59:00      -41.739        1.007       -3.056       27.363       34.296       18.681      748.722     1176.212      348.978        0.201        0.114       41.751       13.795        0.109      338.815       11.723      863.135
10/10/2014  03:00:00      -36.676      -15.007       -5.398       11.174       12.660        6.823      124.859      160.264       46.558        0.097        0.017       39.628        5.172        0.017      338.860       11.798      863.126
10/10/2014  03:01:00      -90.075      -12.126       -3.450       33.763       17.916       12.380     1139.962      320.979      153.273        0.494        0.081       90.887       10.214        0.013      338.915       11.890      863.122
10/10/2014  03:02:00     -126.450      -27.815        1.274       44.495       26.673       18.891     1979.817      711.434      356.883        0.991        0.152      129.473       22.722        0.031      338.860       11.799      863.122
10/10/2014  03:03:00      -79.722      -28.748        7.292       41.979       28.620       17.009     1762.271      819.103      289.307        0.505        0.144       84.747       19.627        0.054      339.002       12.037      863.113
10/10/2014  03:04:00      -70.770      -33.981        1.053       37.979       24.982       20.326     1442.408      624.100      413.151        0.432        0.124       78.506       21.849        0.077      339.090       12.183      863.094
10/10/2014  03:05:00      -99.596      -42.778        0.406       28.457       26.415       17.490      809.781      697.753      305.914        0.678        0.091      108.394       17.015        0.025      339.035       12.092      863.086
10/10/2014  03:06:00      -72.497      -51.813        7.616       42.396       32.306       20.362     1797.389     1043.678      414.631        0.563        0.163       89.109       21.525        0.058      338.992       12.020      863.085
10/10/2014  03:07:00     -106.051      -60.174        0.543       64.818       29.743       21.891     4201.337      884.642      479.212        1.022        0.278      121.934       25.779        0.045      338.953       11.955      863.086
10/10/2014  03:08:00     -114.959      -58.476       -0.767       39.592       33.260       18.814     1567.513     1106.237      353.959        0.983        0.151      128.977       21.801        0.029      339.039       12.099      863.090
10/10/2014  03:09:00     -111.604      -44.785       -2.550       37.129       28.372       14.635     1378.567      804.973      214.197        0.843        0.120      120.255       13.465        0.013      339.009       12.048      863.094
10/10/2014  03:10:00     -126.281      -14.623       -9.947       39.624       28.188       21.822     1570.081      794.590      476.219        0.955        0.142      127.125       19.864        0.024      338.756       11.625      863.110
10/10/2014  03:11:00      -74.110      -31.364        0.563       42.156       20.321       17.834     1777.165      412.926      318.048        0.449        0.125       80.474       18.286        0.052      338.748       11.609      863.115
10/10/2014  03:12:00      -36.143      -22.018        5.711       40.938       21.171       20.984     1675.908      448.216      440.316        0.219        0.128       42.322       22.675        0.287      338.864       11.804      863.110
10/10/2014  03:13:00      -47.855      -34.554        5.205       36.784       23.757       13.654     1353.070      564.418      186.425        0.281        0.105       59.026       13.221        0.050      338.856       11.791      863.116
10/10/2014  03:14:00      -97.204      -41.262       -2.985       20.597       15.947       10.168      424.239      254.297      103.380        0.597        0.039      105.599        6.744        0.004      338.997       12.028      863.120
10/10/2014  03:15:00     -101.047       -2.076       -5.357       20.192       19.736       12.995      407.728      389.497      168.871        0.560        0.048      101.069       11.297        0.012      338.911       11.884      863.123
10/10/2014  03:16:00      -82.935        1.108      -13.268       11.708       15.880        9.681      137.085      252.181       93.725        0.377        0.024       82.943        9.732        0.014      338.908       11.877      863.106
10/10/2014  03:17:00      -61.390      -10.433      -12.177       11.218        7.386        6.336      125.848       54.558       40.149        0.212        0.011       62.270        5.209        0.007      339.056       12.130      863.080
10/10/2014  03:18:00      -90.096      -45.804       -6.620       26.342       19.329       14.491      693.901      373.609      209.992        0.577        0.064      101.071        9.066        0.008      339.000       12.033      863.081
10/10/2014  03:19:00     -115.931      -48.961        1.665       43.347       37.673       17.878     1878.996     1419.286      319.634        0.973        0.181      125.846       15.199        0.015      338.780       11.665      863.081
10/10/2014  03:20:00      -99.136      -43.924       -1.082       25.964       23.600       12.070      674.125      556.956      145.676        0.657        0.069      108.431       11.108        0.010      338.881       11.835      863.084
10/10/2014  03:21:00      -24.982      -25.334        3.992       22.752       13.543       10.459      517.673      183.418      109.395        0.105        0.041       35.580       11.298        0.101      338.878       11.829      863.075
10/10/2014  03:22:00      -31.614      -27.319        6.672       48.640       18.226       17.104     2365.852      332.183      292.538        0.239        0.150       41.782       21.018        0.253      338.872       11.818      863.080
10/10/2014  03:23:00      -91.740      -45.948       -6.208       42.944       28.952       18.721     1844.203      838.246      350.461        0.680        0.152      102.603       21.191        0.043      338.861       11.801      863.084
10/10/2014  03:24:00     -126.836      -47.404       -5.734       36.223       27.215       18.901     1312.109      740.675      357.263        1.039        0.121      135.404       21.288        0.025      338.778       11.660      863.086
10/10/2014  03:25:00     -139.324      -54.009       -0.873       30.721       22.331       16.312      943.792      498.652      266.081        1.202        0.085      149.426       16.576        0.012      338.717       11.558      863.090
10/10/2014  03:26:00      -99.907      -42.834       -2.820       22.293       22.702       14.673      496.979      515.379      215.302        0.653        0.061      108.702       10.982        0.010      338.827       11.742      863.099
10/10/2014  03:27:00     -120.518      -42.782       -7.763       21.005       23.420       16.372      441.208      548.488      268.034        0.884        0.063      127.886       12.846        0.010      338.814       11.721      863.096
10/10/2014  03:28:00     -104.911      -49.871        4.655       36.791       25.003       17.547     1353.611      625.167      307.911        0.790        0.114      116.162       15.007        0.017      338.703       11.534      863.100
10/10/2014  03:29:00      -95.013      -27.708       -3.409       30.810       27.100       17.142      949.286      734.385      293.846        0.589        0.099       98.971       14.851        0.023      338.681       11.496      863.109
10/10/2014  03:30:00      -67.016      -21.558       -0.344       26.794       17.661       11.788      717.926      311.917      138.945        0.306        0.058       70.398       12.627        0.032      338.675       11.489      863.104
10/10/2014  03:31:00      -51.551      -29.144        1.211       14.587       12.433       10.586      212.769      154.582      112.073        0.199        0.024       59.219        6.946        0.014      338.843       11.770      863.097
10/10/2014  03:32:00      -93.497      -27.293       -8.038       12.240       15.176       10.358      149.821      230.298      107.281        0.502        0.024       97.399        5.726        0.003      338.897       11.860      863.084
10/10/2014  03:33:00      -77.815      -41.057       -1.204       26.303       13.812       13.202      691.845      190.760      174.284        0.440        0.053       87.982       12.324        0.020      338.801       11.699      863.075
10/10/2014  03:34:00      -76.544      -38.763        1.652       34.191       23.416       17.712     1169.040      548.288      313.716        0.470        0.102       85.799       18.702        0.048      338.711       11.548      863.087
10/10/2014  03:35:00     -123.289      -45.644       -3.797       19.902       18.268       10.895      396.070      333.727      118.709        0.907        0.042      131.467        8.900        0.005      338.711       11.548      863.093
10/10/2014  03:36:00     -101.388      -61.368       -1.606       24.942       14.815       12.052      622.092      219.480      145.248        0.752        0.049      118.514        9.212        0.006      338.769       11.646      863.090
10/10/2014  03:37:00      -64.078      -39.849        2.155       29.398       14.498       13.902      864.228      210.186      193.271        0.348        0.063       75.458       14.757        0.038      338.852       11.785      863.072
10/10/2014  03:38:00     -120.201      -39.748       -5.549       30.299       17.387       13.079      918.014      302.302      171.049        0.872        0.070      126.603       11.178        0.008      338.805       11.706      863.057
10/10/2014  03:39:00     -120.536      -53.893       -2.234       19.567       16.503       11.526      382.880      272.333      132.860        0.911        0.039      132.036        9.470        0.005      338.791       11.682      863.057
10/10/2014  03:40:00      -73.318      -38.687        2.134       40.729       25.270       19.328     1658.834      638.587      373.589        0.477        0.134       82.899       21.551        0.068      338.814       11.720      863.055
10/10/2014  03:41:00      -94.796      -72.788        5.957       55.958       36.169       26.025     3131.281     1308.226      677.279        0.972        0.256      119.517       24.469        0.042      338.680       11.496      863.048
10/10/2014  03:42:00     -100.455      -73.627        3.155       39.148       32.211       26.868     1532.603     1037.521      721.891        0.941        0.165      124.548       24.069        0.037      338.778       11.660      863.046
10/10/2014  03:43:00     -101.602      -54.774        0.847       46.749       36.474       22.040     2185.511     1330.345      485.777        0.866        0.200      115.426       18.929        0.027      338.721       11.564      863.051
10/10/2014  03:44:00     -103.291      -68.079        5.940       41.979       38.867       22.506     1762.221     1510.648      506.499        0.956        0.189      123.708       24.459        0.039      338.708       11.543      863.055
10/10/2014  03:45:00     -116.396      -71.244       -0.264       44.559       26.347       23.300     1985.521      694.170      542.903        1.092        0.161      136.469       18.762        0.019      338.665       11.471      863.056
10/10/2014  03:46:00      -89.471      -52.196        4.927       44.331       29.086       18.475     1965.258      846.005      341.324        0.695        0.158      103.584       19.802        0.037      338.644       11.436      863.056
10/10/2014  03:47:00     -122.848      -60.968        1.551       46.827       34.563       20.338     2192.743     1194.632      413.640        1.131        0.190      137.145       21.317        0.024      338.627       11.407      863.051
10/10/2014  03:48:00      -95.232      -40.879        6.903       45.707       29.963       21.797     2089.099      897.784      475.130        0.712        0.173      103.635       21.995        0.045      338.679       11.494      863.051
10/10/2014  03:49:00     -107.385      -59.200       -2.338       41.378       33.969       22.012     1712.151     1153.862      484.520        0.920        0.168      122.622       21.271        0.030      338.715       11.555      863.060
10/10/2014  03:50:00      -85.511      -49.184        0.841       39.724       36.876       21.268     1578.035     1359.836      452.349        0.656        0.170       98.646       16.030        0.026      338.718       11.559      863.054
10/10/2014  03:51:00     -127.265      -54.255       -3.170       36.854       32.379       17.316     1358.199     1048.430      299.852        1.093        0.135      138.347       18.141        0.017      338.639       11.428      863.055
10/10/2014  03:52:00     -131.407      -28.913      -13.402       31.639       22.119       19.310     1001.055      489.230      372.864        1.007        0.093      134.550       18.874        0.020      338.503       11.198      863.076
10/10/2014  03:53:00     -135.273      -39.112       -4.430       30.102       21.256       18.373      906.101      451.839      337.554        1.077        0.085      140.814       15.615        0.012      338.641       11.430      863.091
10/10/2014  03:54:00     -117.252      -44.171        3.200       26.011       23.143       16.288      676.591      535.616      265.309        0.859        0.074      125.297       12.310        0.010      338.520       11.227      863.086
10/10/2014  03:55:00     -123.222      -54.676       -0.448       22.133       17.740       15.821      489.882      314.704      250.310        0.961        0.053      134.808       11.203        0.007      338.601       11.364      863.087
10/10/2014  03:56:00      -71.480      -55.440        2.484       38.010       24.216       17.865     1444.777      586.430      319.162        0.527        0.118       90.459       15.435        0.029      338.575       11.319      863.092
10/10/2014  03:57:00     -107.334      -36.750       -3.471       34.712       27.647       22.315     1204.943      764.344      497.967        0.767        0.123      113.451       20.002        0.031      338.529       11.243      863.112
10/10/2014  03:58:00     -121.815      -35.619        1.279       32.676       21.444       15.339     1067.719      459.834      235.289        0.894        0.088      126.916       13.783        0.012      338.465       11.134      863.121
10/10/2014  03:59:00      -97.135      -38.558        6.850       32.190       29.675       21.251     1036.178      880.628      451.607        0.667        0.118      104.507       20.103        0.037      338.387       11.003      863.123
10/10/2014  04:00:00     -116.082      -45.202        2.082       25.125       25.007       15.428      631.277      625.348      238.036        0.851        0.075      124.573       10.936        0.008      338.307       10.870      863.121
10/10/2014  04:01:00     -107.643      -46.905        5.336       37.039       26.744       18.878     1371.877      715.219      356.390        0.813        0.122      117.419       16.672        0.020      338.316       10.884      863.129
10/10/2014  04:02:00      -66.832      -54.519        8.089       43.273       34.166       21.362     1872.553     1167.322      456.330        0.550        0.175       86.249       19.876        0.053      338.356       10.951      863.133
10/10/2014  04:03:00      -87.616      -75.265        1.278       36.282       36.611       17.117     1316.406     1340.332      292.996        0.815        0.147      115.505       21.557        0.035      338.478       11.156      863.119
10/10/2014  04:04:00      -40.747      -57.493       10.595       37.902       29.779       22.546     1436.542      886.759      508.307        0.395        0.142       70.468       21.596        0.094      338.506       11.204      863.110
10/10/2014  04:05:00     -102.263      -86.182       -2.322       63.475       38.906       30.273     4029.112     1513.706      916.481        1.217        0.323      133.735       29.398        0.048      338.481       11.162      863.109
10/10/2014  04:06:00     -133.563     -101.295      -10.175       45.720       45.883       30.672     2090.282     2105.282      940.743        1.667        0.257      167.629       22.348        0.018      338.498       11.191      863.103
10/10/2014  04:07:00     -115.311      -66.778      -11.758       46.382       68.535       29.430     2151.298     4697.054      866.110        1.280        0.386      133.251       21.779        0.027      338.474       11.151      863.096
10/10/2014  04:08:00     -120.331      -86.476       -8.097       55.520       51.521       25.960     3082.504     2654.445      673.917        1.422        0.321      148.181       23.915        0.026      338.474       11.149      863.100
10/10/2014  04:09:00     -140.146      -36.353      -10.532       39.754       38.614       24.744     1580.405     1491.029      612.281        1.238        0.184      144.784       21.172        0.021      338.418       11.056      863.125
10/10/2014  04:10:00     -131.737      -65.915       -1.028       43.630       36.380       20.439     1903.598     1323.505      417.762        1.267        0.182      147.308       14.629        0.010      338.358       10.955      863.141
10/10/2014  04:11:00      -92.053      -47.768        1.271       43.490       27.248       20.493     1891.338      742.459      419.966        0.690        0.153      103.709       22.490        0.047      338.358       10.955      863.159
10/10/2014  04:12:00      -72.280      -33.400        4.027       38.672       27.612       19.035     1495.533      762.436      362.317        0.449        0.131       79.624       16.835        0.045      338.371       10.978      863.174
10/10/2014  04:13:00      -76.175      -35.852       -0.375       54.096       32.010       18.275     2926.376     1024.609      333.971        0.569        0.214       84.190       21.120        0.063      338.333       10.913      863.177
10/10/2014  04:14:00      -44.744      -84.628        4.607       33.872       36.847       21.327     1147.287     1357.683      454.823        0.607        0.148       95.729       16.227        0.029      338.374       10.982      863.178
10/10/2014  04:15:00     -108.718      -68.134       -5.297       34.664       33.497       19.555     1201.562     1122.033      382.414        0.960        0.135      128.304       19.344        0.023      338.319       10.891      863.185
10/10/2014  04:16:00     -113.060      -84.703       -6.602       23.981       39.170       16.619      575.073     1534.302      276.206        1.119        0.119      141.270       11.955        0.007      338.318       10.887      863.188
10/10/2014  04:17:00      -65.755      -44.035        4.041       44.269       24.109       22.074     1959.784      581.257      487.243        0.465        0.151       79.137       17.544        0.049      338.282       10.827      863.178
10/10/2014  04:18:00      -74.487      -70.346        0.333       33.151       35.442       18.012     1099.021     1256.107      324.415        0.659        0.134      102.455       14.564        0.020      338.320       10.891      863.180
10/10/2014  04:19:00      -94.877      -52.836       -6.049       42.356       27.728       26.786     1794.063      768.841      717.495        0.755        0.164      108.597       21.818        0.040      338.293       10.847      863.193
10/10/2014  04:20:00      -95.267      -75.946       -1.149       30.527       40.540       20.677      931.896     1643.480      427.544        0.892        0.150      121.834       23.198        0.036      338.292       10.845      863.196
10/10/2014  04:21:00     -122.590      -66.353       -7.732       37.308       36.175       19.362     1391.872     1308.666      374.879        1.128        0.154      139.395       13.459        0.009      338.266       10.801      863.213
10/10/2014  04:22:00      -78.555      -38.891        1.562       44.465       25.609       15.891     1977.105      655.805      252.539        0.529        0.144       87.655       18.335        0.044      338.218       10.720      863.235
10/10/2014  04:23:00      -71.279      -65.766        3.508       44.245       36.083       21.353     1957.579     1301.965      455.970        0.657        0.186       96.983       24.029        0.061      338.223       10.728      863.245
10/10/2014  04:24:00     -102.057      -55.030       -4.783       32.257       28.521       16.978     1040.520      813.449      288.260        0.780        0.107      115.948       13.843        0.014      338.211       10.710      863.248
10/10/2014  04:25:00      -84.708      -42.064        7.548       45.557       28.684       21.638     2075.448      822.748      468.182        0.618        0.168       94.577       23.234        0.060      338.171       10.641      863.259
10/10/2014  04:26:00      -95.892      -58.211        3.710       35.648       24.772       21.046     1270.814      613.670      442.927        0.746        0.116      112.178       17.620        0.025      338.198       10.686      863.284
10/10/2014  04:27:00      -77.098      -54.998        2.642       30.717       41.902       20.078      943.514     1755.778      403.122        0.604        0.155       94.704       19.120        0.041      338.224       10.731      863.300
10/10/2014  04:28:00     -120.326      -52.214       -1.619       48.833       39.484       19.575     2384.697     1558.983      383.169        1.077        0.216      131.167       16.501        0.016      338.268       10.806      863.319
10/10/2014  04:29:00     -108.827      -47.234       -0.620       34.508       37.430       17.783     1190.787     1401.013      316.225        0.849        0.145      118.635       11.129        0.009      338.218       10.720      863.336
10/10/2014  04:30:00     -102.659      -75.019        3.644       42.827       39.671       23.318     1834.148     1573.757      543.721        1.007        0.198      127.149       21.460        0.028      338.252       10.778      863.354
10/10/2014  04:31:00      -92.124      -78.717       -9.452       34.058       31.532       20.467     1159.914      994.274      418.898        0.867        0.129      121.174       22.604        0.035      338.286       10.835      863.344
10/10/2014  04:32:00      -63.099      -44.075       14.043       55.186       36.434       29.449     3045.495     1327.444      867.249        0.568        0.262       76.968       31.336        0.166      338.211       10.709      863.340
10/10/2014  04:33:00     -133.143     -105.159      -11.034       47.161       46.280       26.520     2224.166     2141.858      703.308        1.699        0.253      169.663       22.372        0.017      338.284       10.832      863.346
10/10/2014  04:34:00     -113.380      -73.117       -4.618       41.029       20.831       20.295     1683.392      433.943      411.867        1.038        0.126      134.911       16.787        0.015      338.247       10.768      863.365
10/10/2014  04:35:00      -70.070      -57.242        6.922       48.022       25.071       20.539     2306.116      628.542      421.856        0.579        0.168       90.478       19.512        0.047      338.223       10.729      863.377
10/10/2014  04:36:00      -75.370      -69.739        5.567       34.295       22.957       21.546     1176.128      527.046      464.234        0.637        0.108      102.684       19.228        0.035      338.251       10.775      863.382
10/10/2014  04:37:00      -59.935      -51.419        9.864       51.573       36.319       18.223     2659.746     1319.101      332.083        0.532        0.216       78.969       26.114        0.109      338.240       10.757      863.375
10/10/2014  04:38:00      -79.339      -51.965        1.913       40.943       31.195       15.271     1676.290      973.117      233.215        0.594        0.144       94.842       11.060        0.014      338.222       10.727      863.387
10/10/2014  04:39:00      -48.598      -34.057        0.015       44.056       19.717       18.664     1940.965      388.745      348.360        0.310        0.134       59.343       19.872        0.112      338.153       10.611      863.399
10/10/2014  04:40:00      -55.866      -31.283        4.022       44.799       22.068       20.935     2006.934      486.976      438.254        0.352        0.147       64.028       24.476        0.146      338.137       10.583      863.390
10/10/2014  04:41:00      -75.313      -76.539       -1.739       35.141       39.519       21.290     1234.906     1561.726      453.262        0.739        0.162      107.379       24.360        0.051      338.210       10.706      863.390
10/10/2014  04:42:00      -90.960      -67.356       -2.061       35.753       38.002       22.621     1278.305     1444.121      511.706        0.802        0.162      113.184       20.324        0.032      338.217       10.715      863.396
10/10/2014  04:43:00     -138.490      -51.919      -12.551       22.678       21.579       16.366      514.295      465.660      267.835        1.164        0.062      147.902       10.614        0.005      338.215       10.716      863.390
10/10/2014  04:44:00     -112.070      -66.120       -2.433       33.766       26.928       19.843     1140.164      725.139      393.754        0.960        0.113      130.121       15.367        0.014      338.112       10.542      863.396
10/10/2014  04:45:00      -61.303      -58.728        7.067       49.127       32.596       27.236     2413.491     1062.529      741.795        0.574        0.211       84.895       23.584        0.077      338.090       10.505      863.398
10/10/2014  04:46:00      -98.006      -68.128        8.058       50.731       33.882       24.455     2573.682     1148.011      598.068        0.931        0.216      119.359       24.293        0.041      338.085       10.497      863.405
10/10/2014  04:47:00      -91.301      -22.078       -2.900       45.733       34.578       22.953     2091.549     1195.609      526.850        0.632        0.191       93.933       22.542        0.058      337.921       10.221      863.423
10/10/2014  04:48:00     -117.312      -23.882       -3.510       34.237       26.850       20.472     1172.150      720.939      419.097        0.833        0.116      119.718       19.787        0.027      337.845       10.093      863.411
10/10/2014  04:49:00      -86.135      -46.835        8.307       39.951       29.786       23.245     1596.091      887.205      540.324        0.635        0.151       98.045       19.944        0.041      337.884       10.160      863.405
10/10/2014  04:50:00     -134.805      -55.280        2.654       44.274       23.965       19.327     1960.197      574.345      373.516        1.207        0.145      145.700       18.240        0.016      337.987       10.333      863.400
10/10/2014  04:51:00     -166.001      -28.473       -6.393       30.941       34.439       18.803      957.337     1186.011      353.542        1.545        0.125      168.425       16.129        0.009      338.034       10.411      863.409
10/10/2014  04:52:00     -166.622      -13.904      -11.564       34.222       27.261       23.167     1171.124      743.153      536.694        1.527        0.123      167.201       21.032        0.016      337.999       10.353      863.407
10/10/2014  04:53:00     -155.701      -55.784       -1.588       44.533       34.850       22.169     1983.181     1214.524      491.475        1.552        0.184      165.393       24.637        0.022      337.971       10.306      863.406
10/10/2014  04:54:00     -191.554      -60.160       -6.444       39.085       33.943       21.333     1527.603     1152.151      455.076        2.174        0.157      200.779       19.005        0.009      338.009       10.369      863.426
10/10/2014  04:55:00     -161.611      -26.203       -3.980       46.477       29.374       21.973     2160.123      862.851      482.814        1.516        0.175      163.722       24.700        0.023      338.044       10.428      863.435
10/10/2014  04:56:00     -125.711      -43.881        2.652       44.943       32.531       20.799     2019.856     1058.285      432.598        1.062        0.176      133.150       19.584        0.022      337.994       10.344      863.447
10/10/2014  04:57:00     -152.143      -60.672       -7.982       24.672       25.189       16.459      608.685      634.505      270.904        1.420        0.076      163.794       13.152        0.006      338.009       10.369      863.453
10/10/2014  04:58:00      -81.647      -56.410        4.017       39.344       35.146       22.602     1547.985     1235.252      510.845        0.658        0.165       99.238       24.206        0.059      337.987       10.332      863.460
10/10/2014  04:59:00      -73.088      -45.461        5.965       42.059       34.043       21.824     1768.976     1158.953      476.285        0.542        0.170       86.073       21.201        0.061      338.106       10.532      863.459
10/10/2014  05:00:00      -92.477      -39.928       -1.653       34.511       26.078       18.480     1191.013      680.058      341.501        0.618        0.111      100.729       17.381        0.030      338.095       10.514      863.451
10/10/2014  05:01:00      -75.739      -47.926        0.641       32.258       32.135       17.738     1040.556     1032.631      314.654        0.521        0.119       89.629       10.459        0.014      338.140       10.589      863.440
10/10/2014  05:02:00      -42.796      -31.087       10.100       39.523       25.556       22.018     1562.042      653.104      484.807        0.280        0.135       52.895       18.659        0.124      338.123       10.561      863.433
10/10/2014  05:03:00      -64.962      -60.355        6.134       46.851       45.257       33.251     2195.055     2048.180     1105.649        0.662        0.267       88.673       28.760        0.105      338.070       10.471      863.444
10/10/2014  05:04:00      -67.792      -60.232       -0.305       49.018       44.314       25.060     2402.810     1963.688      628.026        0.661        0.250       90.684       23.846        0.069      338.052       10.443      863.446
10/10/2014  05:05:00      -66.175      -44.655        6.420       53.762       33.388       26.730     2890.372     1114.739      714.506        0.557        0.236       79.832       30.699        0.148      338.030       10.404      863.447
10/10/2014  05:06:00      -52.612      -38.922        9.499       40.272       32.517       20.199     1621.802     1057.353      407.982        0.373        0.154       65.444       20.183        0.095      338.026       10.398      863.462
10/10/2014  05:07:00      -53.439      -80.350       11.551       52.529       39.996       34.469     2759.295     1599.711     1188.111        0.750        0.277       96.498       33.773        0.122      338.027       10.400      863.460
10/10/2014  05:08:00     -112.920      -70.794        2.482       53.905       29.936       26.420     2905.739      896.156      698.026        1.113        0.225      133.277       23.941        0.032      338.066       10.468      863.461
10/10/2014  05:09:00     -130.187     -102.764       -7.645       54.278       52.734       26.112     2946.066     2780.869      681.821        1.699        0.320      165.859       27.941        0.028      338.040       10.420      863.462
10/10/2014  05:10:00     -134.333      -76.786       -2.782       54.017       31.600       25.592     2917.827      998.545      654.945        1.426        0.229      154.730       27.559        0.032      338.043       10.426      863.468
10/10/2014  05:11:00      -91.415      -61.326        7.476       53.035       33.459       22.066     2812.690     1119.499      486.893        0.830        0.221      110.080       22.668        0.042      338.024       10.395      863.463
10/10/2014  05:12:00      -83.422      -70.985       11.043       36.376       39.196       25.738     1323.222     1536.359      662.435        0.782        0.176      109.536       20.344        0.034      338.031       10.409      863.465
10/10/2014  05:13:00     -112.518      -79.083       -4.048       49.658       35.320       27.513     2465.907     1247.469      756.960        1.170        0.224      137.529       31.482        0.052      338.108       10.536      863.469
10/10/2014  05:14:00     -124.132      -68.735        1.758       49.397       32.939       24.656     2440.071     1084.990      607.894        1.213        0.207      141.892       23.255        0.027      338.072       10.475      863.474
10/10/2014  05:15:00     -126.892      -74.236       -5.970       32.942       26.309       19.602     1085.170      692.169      384.256        1.190        0.108      147.012       15.425        0.011      338.060       10.455      863.484
10/10/2014  05:16:00      -63.261      -51.321        9.846       40.940       38.096       22.414     1676.068     1451.290      502.375        0.518        0.181       81.461       24.032        0.087      338.007       10.366      863.490
10/10/2014  05:17:00      -63.385      -68.929        2.033       37.409       23.398       19.644     1399.434      547.475      385.906        0.555        0.117       93.642       19.812        0.045      338.146       10.600      863.497
10/10/2014  05:18:00      -47.512      -52.311        5.027       29.628       28.204       17.102      877.816      795.447      292.486        0.349        0.098       70.667       16.986        0.058      338.205       10.698      863.499
10/10/2014  05:19:00      -37.244      -55.063        7.950       35.511       31.486       23.635     1261.008      991.352      558.630        0.365        0.141       66.476       21.314        0.103      338.093       10.510      863.502
10/10/2014  05:20:00      -86.086      -53.704        6.293       37.454       36.222       21.167     1402.798     1312.008      448.036        0.675        0.158      101.464       19.270        0.036      338.081       10.491      863.510
10/10/2014  05:21:00      -96.836      -78.937       -3.857       28.277       33.077       18.016      799.561     1094.109      324.587        0.892        0.111      124.933       11.004        0.008      338.062       10.459      863.517
10/10/2014  05:22:00      -71.577      -89.869        4.551       37.474       23.928       17.856     1404.279      572.570      318.826        0.776        0.115      114.890       19.194        0.028      338.098       10.519      863.511
10/10/2014  05:23:00      -61.375      -36.525       -2.373       36.188       27.991       15.513     1309.578      783.473      240.655        0.372        0.117       71.421       14.007        0.038      338.062       10.458      863.516
10/10/2014  05:24:00      -59.778      -35.943        3.419       35.052       21.506       17.471     1228.614      462.528      305.220        0.344        0.100       69.752       12.353        0.031      337.964       10.294      863.530
10/10/2014  05:25:00      -72.230      -85.385       -8.043       21.800       23.252       15.498      475.222      540.678      240.196        0.691        0.063      111.838       14.486        0.017      337.950       10.270      863.536
10/10/2014  05:26:00      -70.492      -34.873       -1.782       19.927       19.850       15.954      397.089      394.027      254.541        0.362        0.052       78.646        8.490        0.012      337.972       10.307      863.530
10/10/2014  05:27:00      -39.462      -35.292        3.604       25.079       15.457       13.543      628.973      238.919      183.402        0.193        0.053       52.941       12.123        0.052      337.945       10.262      863.524
10/10/2014  05:28:00      -67.576      -35.388       -3.515       23.133       16.700       14.664      535.120      278.904      215.040        0.343        0.051       76.281        9.439        0.015      337.927       10.232      863.519
10/10/2014  05:29:00      -75.934      -44.883        0.783       30.850       21.537       16.595      951.736      463.861      275.404        0.474        0.085       88.207       14.625        0.027      337.797       10.014      863.519
10/10/2014  05:30:00      -83.190      -47.469       -4.472       33.630       20.217       15.125     1130.951      408.717      228.753        0.548        0.088       95.781       11.439        0.014      337.809       10.033      863.528
10/10/2014  05:31:00     -105.905      -54.872       -4.701       29.847       21.058       17.077      890.820      443.431      291.614        0.794        0.081      119.277       13.545        0.013      337.765        9.961      863.523
10/10/2014  05:32:00     -103.620      -37.280       -5.822       22.223       21.886       12.048      493.869      479.016      145.159        0.664        0.056      110.122        7.965        0.005      337.749        9.933      863.516
10/10/2014  05:33:00     -113.843      -34.732       -6.943       25.534       21.438       13.469      651.990      459.593      181.407        0.775        0.065      119.023        9.855        0.007      337.713        9.872      863.505
10/10/2014  05:34:00     -119.074      -22.418       -9.900       26.294       21.208       15.671      691.352      449.780      245.567        0.808        0.069      121.166       12.972        0.011      337.737        9.914      863.508
10/10/2014  05:35:00     -113.585      -23.581      -11.411       30.965       21.044       17.105      958.838      442.846      292.572        0.764        0.085      116.007       13.369        0.013      337.690        9.834      863.517
10/10/2014  05:36:00      -75.171      -12.267       -3.058       32.270       31.536       19.005     1041.335      994.515      361.174        0.410        0.120       76.165       17.925        0.055      337.747        9.930      863.529
10/10/2014  05:37:00     -143.100      -56.469      -11.511       20.907       23.548       15.110      437.123      554.520      228.316        1.251        0.061      153.839       12.707        0.007      337.713        9.873      863.544
10/10/2014  05:38:00     -131.697      -35.947       -9.446       45.337       26.628       13.757     2055.446      709.038      189.260        1.084        0.148      136.514       13.320        0.010      337.715        9.877      863.569
10/10/2014  05:39:00      -91.096      -23.970      -10.758       24.149       24.893       14.369      583.158      619.678      206.476        0.520        0.070       94.197       15.139        0.026      337.744        9.926      863.588
10/10/2014  05:40:00      -67.148      -19.221       -8.157       28.235       17.298        8.896      797.211      299.229       79.145        0.306        0.059       69.845        8.841        0.016      337.893       10.174      863.601
10/10/2014  05:41:00      -76.952      -38.016       -0.142       25.470       20.147       14.231      648.724      405.904      202.524        0.431        0.063       85.831       12.337        0.021      337.829       10.067      863.598
10/10/2014  05:42:00      -71.376      -49.035        0.099       32.644       23.622       16.409     1065.656      557.998      269.258        0.470        0.095       86.597       16.842        0.038      337.892       10.172      863.592
10/10/2014  05:43:00      -82.036      -49.386       -1.263       25.042       16.812       15.919      627.099      282.627      253.421        0.517        0.058       95.754       14.687        0.024      337.869       10.135      863.585
10/10/2014  05:44:00      -90.508      -50.381      -11.812       17.454       29.654        9.589      304.656      879.357       91.953        0.607        0.064      103.586        7.102        0.005      337.875       10.146      863.596
10/10/2014  05:45:00     -102.802      -21.440       -6.359       15.074       16.357        8.281      227.238      267.542       68.570        0.582        0.028      105.014        2.862        0.001      337.816       10.045      863.610
10/10/2014  05:46:00      -94.999      -50.751       -0.007       33.944       24.254       15.538     1152.205      588.259      241.438        0.679        0.099      107.705       15.649        0.021      337.751        9.937      863.610
10/10/2014  05:47:00      -76.812      -25.663      -10.940       18.650       16.450        7.983      347.816      270.602       63.730        0.368        0.034       80.986        4.403        0.003      337.784        9.992      863.613
10/10/2014  05:48:00      -95.344      -37.665       -7.617       21.839       16.297       11.181      476.936      265.577      125.026        0.572        0.043      102.514        9.520        0.009      337.770        9.967      863.618
10/10/2014  05:49:00      -58.370      -38.834        0.081       32.048       28.715       15.537     1027.045      824.539      241.391        0.350        0.105       70.108       15.863        0.051      337.645        9.758      863.637
10/10/2014  05:50:00      -42.877      -26.250        3.257       23.132       17.283       13.096      535.095      298.694      171.509        0.177        0.050       50.274       12.092        0.058      337.678        9.815      863.629
10/10/2014  05:51:00      -12.670      -22.430       -1.545       21.061       10.633        9.482      443.571      113.065       89.905        0.066        0.032       25.761        9.780        0.144      337.915       10.212      863.628
10/10/2014  05:52:00      -16.501      -58.149       -8.122       17.794       12.960       11.463      316.634      167.949      131.390        0.217        0.031       60.445        5.874        0.009      337.871       10.137      863.632
10/10/2014  05:53:00      -52.479      -30.337       -0.145       26.523       17.685       15.896      703.456      312.763      252.689        0.247        0.063       60.616       11.990        0.039      337.798       10.017      863.636
10/10/2014  05:54:00      -27.030       -2.926       -2.691       33.999       15.985        7.025     1155.955      255.508       49.348        0.110        0.073       27.188        5.071        0.035      337.867       10.130      863.628
10/10/2014  05:55:00       15.347       -4.138       -6.061       18.451       19.374       12.130      340.434      375.362      147.129        0.058        0.043       15.895        6.703        0.178      337.845       10.093      863.622
10/10/2014  05:56:00      -49.454      -29.602        4.671       34.771       27.643       24.981     1209.006      764.155      624.045        0.297        0.130       57.636       19.738        0.117      337.816       10.047      863.641
10/10/2014  05:57:00      -84.945      -37.590        0.470       37.906       30.510       18.465     1436.874      930.845      340.974        0.567        0.135       92.891       19.343        0.043      337.806       10.030      863.660
10/10/2014  05:58:00      -87.775      -57.887       -5.224       30.640       27.947       20.886      938.824      781.049      436.243        0.662        0.108      105.145       12.932        0.015      337.831       10.070      863.661
10/10/2014  05:59:00      -90.803      -65.581      -12.088       25.091       27.826       20.523      629.551      774.283      421.192        0.726        0.091      112.009       15.017        0.018      337.861       10.121      863.661
10/10/2014  06:00:00      -60.853      -49.136       -0.811       24.682       18.063       18.051      609.193      326.257      325.846        0.369        0.063       78.214       13.360        0.029      337.840       10.086      863.657
10/10/2014  06:01:00      -44.671      -40.093        1.561       23.842       28.090       20.153      568.424      789.034      406.160        0.268        0.088       60.025       14.234        0.056      337.909       10.202      863.656
10/10/2014  06:02:00      -51.407      -35.659        2.146       25.009       23.540       17.740      625.465      554.143      314.695        0.271        0.075       62.564       12.566        0.040      337.852       10.105      863.660
10/10/2014  06:03:00      -31.389      -37.329        4.329       43.396       21.656       19.715     1883.219      468.968      388.697        0.257        0.137       48.772       19.970        0.168      337.811       10.038      863.674
10/10/2014  06:04:00      -83.084      -54.034       -8.674       18.450       19.486       13.541      340.400      379.721      183.369        0.540        0.045       99.109       11.108        0.013      337.819       10.048      863.684
10/10/2014  06:05:00      -29.962      -36.090        6.294       29.464       21.241       21.011      868.143      451.174      441.471        0.200        0.088       46.906       20.869        0.198      337.836       10.079      863.681
10/10/2014  06:06:00      -81.907      -47.204       -6.350       31.413       24.151       15.719      986.747      583.294      247.084        0.540        0.091       94.536       12.984        0.019      337.788        9.998      863.689
10/10/2014  06:07:00      -59.882      -51.137        1.633       29.235       23.641       14.808      854.673      558.919      219.278        0.392        0.082       78.745       13.740        0.030      337.767        9.962      863.692
10/10/2014  06:08:00      -60.999      -56.601       -5.202       22.133       22.829       18.937      489.858      521.159      358.609        0.416        0.068       83.213       14.737        0.031      337.840       10.087      863.695
10/10/2014  06:09:00      -59.412      -21.314       -2.628       24.912       11.669       11.484      620.584      136.155      131.884        0.244        0.044       63.119        8.097        0.016      337.787        9.998      863.708
10/10/2014  06:10:00      -68.082      -26.738       -3.872       13.616       12.537        9.023      185.405      157.165       81.417        0.289        0.021       73.144        5.499        0.006      337.782        9.988      863.713
10/10/2014  06:11:00      -68.967      -19.952       -2.551       23.129       20.331       13.515      534.934      413.352      182.652        0.315        0.057       71.795       11.893        0.027      337.697        9.845      863.721
10/10/2014  06:12:00      -65.444      -18.957       -3.440       22.326       18.791        9.410      498.453      353.105       88.553        0.280        0.047       68.134        4.475        0.004      337.627        9.730      863.720
10/10/2014  06:13:00      -69.275      -15.116       -2.251       20.717       21.242       14.951      429.177      451.237      223.521        0.307        0.055       70.905       13.161        0.034      337.595        9.675      863.724
10/10/2014  06:14:00      -73.130      -12.671       -6.556       21.355       17.677       13.794      456.049      312.462      190.280        0.325        0.048       74.219        9.007        0.015      337.516        9.541      863.727
10/10/2014  06:15:00      -63.556      -10.899        1.424       25.204       14.571       14.208      635.241      212.307      201.860        0.260        0.052       64.483       15.283        0.056      337.361        9.284      863.733
10/10/2014  06:16:00      -79.672       -6.449       -7.267       23.314       23.230       17.442      543.531      539.645      304.212        0.391        0.069       79.933       12.859        0.026      337.346        9.258      863.732
10/10/2014  06:17:00      -75.805       -4.575       -4.323       26.253       20.623       17.666      689.225      425.310      312.073        0.361        0.071       75.943       15.937        0.044      337.328        9.228      863.739
10/10/2014  06:18:00      -83.337       -5.880       -9.114       34.886       17.109       18.176     1217.060      292.728      330.353        0.445        0.092       83.544       20.025        0.057      337.259        9.112      863.746
10/10/2014  06:19:00      -96.598       -1.331       -6.022       28.550       21.706       16.520      815.079      471.140      272.909        0.546        0.078       96.607       17.619        0.033      337.264        9.121      863.749
10/10/2014  06:20:00     -102.287       -8.489       -5.080       35.862       21.780       18.697     1286.086      474.350      349.590        0.633        0.106      102.639       20.783        0.041      337.289        9.162      863.763
10/10/2014  06:21:00      -68.218      -12.471        0.217       29.446       25.271       15.689      867.087      638.618      246.151        0.328        0.088       69.348       15.271        0.048      337.226        9.057      863.773
10/10/2014  06:22:00      -86.088       -1.978       -1.539       37.230       18.854       17.227     1386.086      355.486      296.763        0.473        0.102       86.110       18.725        0.047      337.251        9.098      863.784
10/10/2014  06:23:00      -93.215       -3.654       -2.724       24.342       20.481       16.435      592.548      419.483      270.119        0.500        0.064       93.287       12.180        0.017      337.225        9.056      863.794
10/10/2014  06:24:00      -90.352      -15.523        1.036       27.141       21.612       14.121      736.621      467.077      199.408        0.490        0.070       91.676       12.344        0.018      337.237        9.075      863.805
10/10/2014  06:25:00      -94.295      -22.972       -4.052       22.609       17.659       12.307      511.159      311.827      151.468        0.520        0.049       97.053        9.748        0.010      337.267        9.125      863.814
10/10/2014  06:26:00      -55.672      -28.128        1.369       29.258       24.256       16.148      856.035      588.347      260.761        0.280        0.085       62.374       12.446        0.040      337.363        9.286      863.821
10/10/2014  06:27:00      -68.137      -41.796       -1.547       32.871       21.815       14.062     1080.507      475.884      197.754        0.407        0.088       79.935       14.656        0.034      337.426        9.391      863.831
10/10/2014  06:28:00      -93.802      -39.618       -2.720       28.495       19.993       14.071      811.972      399.730      198.000        0.589        0.070      101.826       11.870        0.014      337.419        9.379      863.849
10/10/2014  06:29:00      -77.868      -55.627        0.201       40.687       27.904       21.295     1655.404      778.647      453.487        0.602        0.144       95.697       19.697        0.042      337.478        9.479      863.861
10/10/2014  06:30:00      -60.349      -48.934        4.660       40.966       46.213       20.153     1678.247     2135.602      406.127        0.514        0.211       77.695       23.910        0.095      337.447        9.427      863.867
10/10/2014  06:31:00      -51.020      -50.253       10.724       47.419       40.529       21.491     2248.537     1642.593      461.862        0.480        0.218       71.613       22.121        0.095      337.445        9.423      863.875
10/10/2014  06:32:00      -94.092      -72.257        4.197       50.713       46.383       29.563     2571.835     2151.357      873.972        0.984        0.280      118.635       29.033        0.060      337.436        9.408      863.879
10/10/2014  06:33:00      -74.988      -56.197        7.075       49.068       32.429       29.419     2407.687     1051.637      865.486        0.658        0.216       93.708       28.569        0.093      337.449        9.430      863.885
10/10/2014  06:34:00      -85.427      -75.246       -4.667       33.397       45.372       25.993     1115.345     2058.625      675.652        0.841        0.192      113.841       25.575        0.050      337.448        9.428      863.892
10/10/2014  06:35:00      -52.542      -81.853        2.402       44.945       54.917       23.915     2020.027     3015.844      571.946        0.754        0.280       97.266       19.495        0.040      337.434        9.405      863.894
10/10/2014  06:36:00      -92.900     -122.134       -9.658       39.753       35.385       21.502     1580.300     1252.124      462.350        1.347        0.165      153.451       20.124        0.017      337.420        9.383      863.900
10/10/2014  06:37:00     -108.814      -96.682        1.797       48.925       46.813       29.618     2393.672     2191.488      877.241        1.333        0.273      145.560       30.627        0.044      337.379        9.313      863.902
10/10/2014  06:38:00      -84.775      -40.539        4.095       36.780       34.472       27.225     1352.783     1188.289      741.198        0.606        0.164       93.969       13.359        0.020      337.381        9.316      863.905
10/10/2014  06:39:00      -63.129      -72.482        6.202       38.418       46.810       24.066     1475.937     2191.140      579.149        0.676        0.212       96.120       12.914        0.018      337.388        9.328      863.910
10/10/2014  06:40:00      -77.477      -66.591       -4.069       38.889       41.726       20.233     1512.386     1741.076      409.392        0.706        0.183      102.162       20.249        0.039      337.346        9.258      863.920
10/10/2014  06:41:00      -72.241      -54.152       -2.606       34.008       29.060       16.953     1156.521      844.468      287.404        0.522        0.114       90.284       17.869        0.039      337.340        9.248      863.928
10/10/2014  06:42:00      -80.744      -41.737       -6.934       28.432       21.905       14.441      808.406      479.810      208.533        0.490        0.075       90.894        8.934        0.010      337.345        9.257      863.937
10/10/2014  06:43:00      -70.896      -41.483        2.798       39.280       25.765       19.208     1542.944      663.837      368.951        0.466        0.129       82.141       20.207        0.061      337.233        9.070      863.947
10/10/2014  06:44:00      -65.568      -25.754        0.475       38.817       23.641       17.254     1506.790      558.913      297.709        0.366        0.118       70.444       19.959        0.080      337.261        9.115      863.957
10/10/2014  06:45:00      -70.222       -5.969       -0.033       31.164       28.767       15.266      971.180      827.525      233.048        0.350        0.102       70.475       15.067        0.046      337.122        8.883      863.966
10/10/2014  06:46:00     -108.384      -24.060        3.774       49.653       35.043       21.710     2465.414     1227.992      471.307        0.825        0.208      111.023       20.756        0.035      336.957        8.607      863.977
10/10/2014  06:47:00     -146.478      -53.055       -2.260       36.383       33.893       17.564     1323.693     1148.707      308.506        1.353        0.139      155.790       16.186        0.011      336.930        8.561      863.993
10/10/2014  06:48:00     -142.144      -71.553        1.751       43.488       31.497       23.623     1891.224      992.081      558.070        1.438        0.172      159.137       19.697        0.015      336.902        8.516      864.008
10/10/2014  06:49:00     -108.403      -69.276       -5.420       31.948       20.987       22.964     1020.655      440.445      527.348        0.928        0.099      128.648        7.935        0.004      336.941        8.578      864.019
10/10/2014  06:50:00      -98.784      -55.841       -4.588       29.118       23.181       15.474      847.831      537.354      239.433        0.726        0.081      113.475       11.741        0.011      336.855        8.436      864.030
10/10/2014  06:51:00     -109.634      -41.608      -16.701       16.790       17.614       15.296      281.897      310.261      233.957        0.743        0.041      117.264        9.055        0.006      336.908        8.526      864.046
10/10/2014  06:52:00     -106.648      -13.616       -6.251       20.126       17.786       14.250      405.067      316.337      203.058        0.626        0.046      107.514       12.959        0.015      336.811        8.364      864.049
10/10/2014  06:53:00      -93.749      -42.176       -4.630       25.073       16.260       12.238      628.644      264.399      149.773        0.582        0.052      102.800       10.280        0.010      336.884        8.484      864.052
10/10/2014  06:54:00      -81.804      -54.134       -8.566       20.112       16.197       14.309      404.512      262.348      204.747        0.528        0.044       98.094        9.704        0.010      336.860        8.446      864.051
10/10/2014  06:55:00      -92.746      -44.226      -11.114       23.850       25.827       19.547      568.833      667.056      382.092        0.615        0.081      102.751        9.441        0.008      336.895        8.503      864.059
10/10/2014  06:56:00     -138.715      -63.987      -10.581       23.441       18.727       15.380      549.503      350.695      236.537        1.229        0.057      152.761       13.231        0.008      336.921        8.544      864.067
10/10/2014  06:57:00     -127.186      -41.107       -5.655       27.461       31.137       20.047      754.089      969.494      401.889        1.001        0.106      133.664       16.217        0.015      336.953        8.599      864.076
10/10/2014  06:58:00     -107.015      -47.079       -0.102       34.427       34.094       18.932     1185.188     1162.413      358.418        0.819        0.135      116.913       14.963        0.016      336.997        8.675      864.079
10/10/2014  06:59:00     -115.476      -31.916       -0.395       44.576       28.600       20.691     1986.993      817.951      428.101        0.879        0.162      119.805       19.145        0.026      337.129        8.895      864.087
10/10/2014  07:00:00      -92.063      -27.260        0.738       32.777       22.949       18.513     1074.342      526.641      342.743        0.558        0.097       96.014       17.967        0.035      337.114        8.870      864.087
10/10/2014  07:01:00      -70.742      -39.926        1.103       35.577       27.530       17.176     1265.726      757.883      295.018        0.446        0.116       81.232       19.313        0.057      337.261        9.116      864.089
10/10/2014  07:02:00     -119.603      -49.311       -5.166       27.734       20.218       15.985      769.157      408.747      255.510        0.910        0.072      129.370       15.664        0.015      337.195        9.006      864.107
10/10/2014  07:03:00     -136.401      -58.954       -2.021       40.839       35.675       20.098     1667.837     1272.712      403.918        1.271        0.167      148.596       21.904        0.022      337.129        8.894      864.120
10/10/2014  07:04:00     -105.790      -40.152       -1.872       30.590       29.108       20.834      935.740      847.251      434.067        0.751        0.111      113.154       15.266        0.018      337.134        8.903      864.129
10/10/2014  07:05:00     -112.981      -41.764        1.318       28.557       24.899       17.251      815.479      619.962      297.585        0.812        0.087      120.453       13.048        0.012      337.242        9.083      864.125
10/10/2014  07:06:00     -120.604      -45.784       -9.701       22.644       18.305       15.438      512.750      335.070      238.328        0.891        0.054      129.002       10.830        0.007      337.198        9.010      864.123
10/10/2014  07:07:00      -95.200      -38.620       -4.092       36.776       20.056       14.030     1352.463      402.224      196.853        0.626        0.098      102.735       16.235        0.025      337.114        8.869      864.125
10/10/2014  07:08:00     -102.013      -39.549       -5.977       22.171       25.871       13.969      491.571      669.289      195.138        0.668        0.068      109.411       10.713        0.010      337.100        8.846      864.122
10/10/2014  07:09:00      -66.348      -45.741        8.864       56.661       33.162       24.445     3210.459     1099.730      597.570        0.574        0.245       80.587       28.172        0.122      337.148        8.926      864.116
10/10/2014  07:10:00      -99.352      -63.589        1.382       44.597       38.089       23.696     1988.928     1450.778      561.499        0.896        0.200      117.959       20.951        0.032      337.184        8.987      864.115
10/10/2014  07:11:00     -124.158      -71.669       -0.405       48.530       26.538       26.287     2355.204      704.271      690.988        1.215        0.188      143.358       26.396        0.034      337.200        9.013      864.120
10/10/2014  07:12:00     -117.993      -49.429       -3.903       26.813       31.736       16.816      718.912     1007.205      282.782        0.919        0.100      127.928       14.016        0.012      337.207        9.025      864.120
10/10/2014  07:13:00     -106.071      -35.354       -3.278       31.628       27.724       17.128     1000.305      768.636      293.374        0.729        0.103      111.808       12.906        0.013      337.123        8.885      864.124
10/10/2014  07:14:00      -94.995      -27.208       -5.435       29.842       30.259       18.016      890.529      915.590      324.575        0.596        0.107       98.815       16.827        0.029      337.116        8.871      864.139
10/10/2014  07:15:00      -64.650      -51.122       -0.027       37.158       26.024       18.186     1380.718      677.227      330.718        0.459        0.119       82.420       17.310        0.044      337.121        8.881      864.146
10/10/2014  07:16:00      -92.943      -46.341        9.235       40.560       23.387       20.186     1645.086      546.964      407.456        0.673        0.130      103.855       21.469        0.043      337.299        9.180      864.146
10/10/2014  07:17:00      -99.124      -42.008       -3.006       24.452       18.536       12.768      597.903      343.595      163.015        0.635        0.055      107.658       12.433        0.013      337.386        9.324      864.136
10/10/2014  07:18:00     -114.148      -50.412      -10.481       27.170       22.257       16.361      738.193      495.378      267.672        0.859        0.075      124.785       14.523        0.014      337.302        9.184      864.144
10/10/2014  07:19:00     -100.951      -41.613       -5.329       20.738       20.805       15.652      430.075      432.844      244.971        0.653        0.055      109.191        9.553        0.008      337.242        9.084      864.147
10/10/2014  07:20:00      -91.371      -72.180       -3.747       35.934       31.532       17.103     1291.218      994.287      292.510        0.807        0.129      116.441       18.230        0.025      337.261        9.116      864.152
10/10/2014  07:21:00      -71.547      -45.373        2.112       37.967       24.035       20.236     1441.480      577.695      409.488        0.480        0.121       84.721       21.182        0.063      337.230        9.065      864.151
10/10/2014  07:22:00      -69.617      -53.224       -1.646       30.309       30.513       21.220      918.661      931.048      450.286        0.499        0.115       87.631       17.319        0.039      337.223        9.053      864.165
10/10/2014  07:23:00      -80.012      -81.576       -1.383       30.045       25.783       18.283      902.705      664.762      334.285        0.748        0.095      114.265       15.901        0.019      337.279        9.147      864.169
10/10/2014  07:24:00      -80.212      -62.327        2.409       42.612       42.243       21.439     1815.784     1784.444      459.618        0.719        0.203      101.580       18.260        0.032      337.352        9.268      864.173
10/10/2014  07:25:00      -49.539      -41.394        0.474       43.719       30.364       21.641     1911.380      921.971      468.354        0.373        0.165       64.557       23.042        0.127      337.415        9.375      864.177
10/10/2014  07:26:00      -38.048      -54.322        0.999       32.562       26.023       15.834     1060.279      677.190      250.709        0.319        0.099       66.322       12.470        0.035      337.464        9.455      864.181
10/10/2014  07:27:00      -85.082      -85.708        6.951       51.262       46.171       28.528     2627.751     2131.743      813.846        1.010        0.279      120.768       27.428        0.052      337.439        9.413      864.191
10/10/2014  07:28:00     -116.720     -102.132       -3.586       50.293       54.752       31.221     2529.423     2997.791      974.781        1.528        0.325      155.096       30.895        0.040      337.341        9.250      864.199
10/10/2014  07:29:00      -51.482      -51.747        2.677       56.384       53.506       29.523     3179.167     2862.896      871.587        0.612        0.346       72.994       28.701        0.155      337.313        9.203      864.201
10/10/2014  07:30:00     -109.096      -57.915       -0.094       51.553       46.607       35.532     2657.758     2172.230     1262.502        1.067        0.305      123.515       22.049        0.032      337.274        9.138      864.210
10/10/2014  07:31:00     -135.363      -87.899      -20.787       40.302       45.104       22.408     1624.213     2034.371      502.136        1.532        0.208      161.398        8.646        0.003      337.302        9.184      864.215
10/10/2014  07:32:00     -134.370      -82.635       -2.736       40.402       54.111       32.208     1632.356     2927.969     1037.362        1.524        0.280      157.746       27.461        0.030      337.324        9.221      864.221
10/10/2014  07:33:00      -95.618      -58.598        4.788       29.023       29.780       22.293      842.307      886.874      496.973        0.741        0.111      112.145       18.550        0.027      337.360        9.281      864.231
10/10/2014  07:34:00      -80.918      -82.194       -0.471       37.649       26.757       23.079     1417.465      715.935      532.627        0.798        0.133      115.341       19.911        0.030      337.472        9.468      864.235
10/10/2014  07:35:00      -53.447      -78.604       12.628       45.140       47.023       21.373     2037.616     2211.146      456.806        0.695        0.235       95.054       23.569        0.061      337.515        9.541      864.254
10/10/2014  07:36:00       -4.691      -18.723       15.768       25.582       32.259       17.852      654.440     1040.671      318.685        0.132        0.101       19.302       11.795        0.373      337.530        9.564      864.263
10/10/2014  07:37:00      -80.820      -59.445        2.492       33.157       37.335       21.938     1099.406     1393.899      481.256        0.652        0.149      100.327       14.387        0.021      337.460        9.449      864.268
10/10/2014  07:38:00      -77.182      -58.083      -15.802       34.367       28.702       16.796     1181.085      823.825      282.097        0.593        0.114       96.596        9.998        0.011      337.454        9.438      864.274
10/10/2014  07:39:00      -61.745      -86.575        9.257       36.383       42.958       30.761     1323.721     1845.364      946.216        0.775        0.206      106.337       24.797        0.054      337.447        9.428      864.281
10/10/2014  07:40:00      -32.924      -55.983        8.064       32.883       38.143       16.981     1081.300     1454.919      288.347        0.355        0.141       64.947       18.322        0.080      337.429        9.397      864.279
10/10/2014  07:41:00      -50.345      -31.295        2.648       50.974       20.672       18.604     2598.334      427.323      346.093        0.345        0.169       59.279       19.655        0.110      337.511        9.535      864.281
10/10/2014  07:42:00      -79.300      -53.376       -3.457       29.589       30.902       19.248      875.537      954.953      370.505        0.567        0.110       95.590       17.252        0.033      337.441        9.417      864.289
10/10/2014  07:43:00      -76.541      -60.443        0.690       46.670       34.391       27.732     2178.108     1182.716      769.046        0.682        0.206       97.529       29.091        0.089      337.471        9.468      864.294
10/10/2014  07:44:00     -111.202      -79.580       -6.128       35.205       30.056       21.098     1239.411      903.336      445.112        1.066        0.129      136.743       19.005        0.019      337.484        9.489      864.295
10/10/2014  07:45:00      -92.760      -72.133        0.177       28.531       41.553       25.393      814.009     1726.680      644.794        0.850        0.159      117.506       22.148        0.036      337.498        9.513      864.295
10/10/2014  07:46:00      -65.773      -76.941       -3.640       40.879       28.019       22.752     1671.075      785.061      517.655        0.662        0.149      101.222       21.727        0.046      337.604        9.690      864.297
10/10/2014  07:47:00      -99.484      -65.387       -4.259       37.601       23.205       17.286     1413.864      538.486      298.791        0.822        0.113      119.048       18.220        0.023      337.639        9.746      864.310
10/10/2014  07:48:00     -100.796      -72.942       -3.533       25.492       22.672       19.038      649.857      514.017      362.440        0.851        0.076      124.420       14.709        0.014      337.617        9.713      864.320
10/10/2014  07:49:00      -68.693      -30.305        0.296       37.599       20.268       18.735     1413.649      410.806      350.985        0.391        0.109       75.080       17.253        0.053      337.613        9.706      864.331
10/10/2014  07:50:00      -56.577      -49.037       -7.373       31.708       21.627       17.426     1005.380      467.728      303.679        0.372        0.089       74.870       17.021        0.052      337.635        9.743      864.350
10/10/2014  07:51:00      -85.329      -48.187       -5.940       26.651       20.590       14.925      710.264      423.943      222.770        0.550        0.068       97.995       14.676        0.022      337.688        9.831      864.354
10/10/2014  07:52:00      -62.496      -32.174        2.347       34.328       28.884       19.931     1178.418      834.306      397.257        0.368        0.120       70.292       21.164        0.091      337.770        9.969      864.367
10/10/2014  07:53:00      -56.490      -42.803       -0.047       23.171       31.544       15.729      536.876      995.032      247.401        0.340        0.089       70.875       12.818        0.033      337.782        9.989      864.367
10/10/2014  07:54:00      -47.966      -30.681        4.233       33.901       20.817       16.065     1149.258      433.333      258.071        0.255        0.092       56.939       19.155        0.113      337.847       10.098      864.375
10/10/2014  07:55:00      -22.455       -5.756       12.536       20.321       17.639       14.156      412.954      311.119      200.385        0.081        0.046       23.181       10.010        0.186      337.999       10.353      864.380
10/10/2014  07:56:00      -49.576      -40.243        3.098       18.874       20.806       12.504      356.210      432.909      156.355        0.252        0.047       63.853        7.153        0.013      337.906       10.197      864.387
10/10/2014  07:57:00      -44.245      -19.493        2.128       22.756       19.165       16.386      517.852      367.286      268.486        0.175        0.058       48.349       16.402        0.115      337.952       10.273      864.405
10/10/2014  07:58:00      -45.193      -30.502       -4.437       15.707       15.962       15.459      246.716      254.777      238.974        0.187        0.037       54.523       11.695        0.046      337.902       10.190      864.421
10/10/2014  07:59:00      -13.577      -19.744        3.782       14.820       11.896       11.175      219.640      141.527      124.886        0.054        0.024       23.962        7.284        0.092      338.011       10.374      864.440
10/10/2014  08:00:00      -43.735        6.707        4.027       22.977       16.996        9.972      527.932      288.854       99.437        0.144        0.046       44.246       12.871        0.085      338.043       10.426      864.466
10/10/2014  08:01:00      -43.181      -17.186        0.773       23.518       18.618       12.959      553.107      346.623      167.936        0.161        0.053       46.475        8.048        0.030      337.973       10.309      864.486
10/10/2014  08:02:00      -13.457       -8.215        3.819       11.104       10.896        9.814      123.293      118.716       96.320        0.030        0.017       15.766        9.082        0.332      338.178       10.654      864.501
10/10/2014  08:03:00      -38.184       -9.320       -5.262       10.043       13.115        7.288      100.858      172.000       53.109        0.095        0.016       39.305        3.319        0.007      338.109       10.538      864.508
10/10/2014  08:04:00      -51.536        2.549        5.314       13.921       13.696       16.692      193.791      187.569      278.626        0.168        0.033       51.599       11.610        0.051      338.136       10.583      864.518
10/10/2014  08:05:00       -3.296        3.182      -17.130       31.221       19.246       13.487      974.752      370.404      181.887        0.092        0.076        4.582        3.917        0.731      338.210       10.707      864.516
10/10/2014  08:06:00      -13.805       20.416      -12.930       22.730       14.302       15.526      516.653      204.539      241.062        0.087        0.048       24.645        4.667        0.036      338.283       10.828      864.508
10/10/2014  08:07:00      -18.648       10.290       11.023       10.662       11.967       13.796      113.685      143.198      190.336        0.051        0.022       21.299        7.820        0.135      338.413       11.047      864.505
10/10/2014  08:08:00      -17.929       19.793        6.928       12.245       13.721       13.143      149.940      188.256      172.725        0.064        0.026       26.706        7.064        0.070      338.504       11.202      864.511
10/10/2014  08:09:00      -18.816       10.255        3.154       15.554        9.096       11.736      241.916       82.732      137.723        0.047        0.023       21.429       11.192        0.273      338.505       11.202      864.525
10/10/2014  08:10:00      -15.946        7.511        6.529       12.861        6.491        9.966      165.405       42.139       99.314        0.033        0.015       17.627        9.259        0.276      338.523       11.232      864.557
10/10/2014  08:11:00        1.365        3.997       22.451        8.411        7.384        8.491       70.739       54.530       72.102        0.036        0.010        4.224        4.220        0.998      338.914       11.889      864.579
10/10/2014  08:12:00       -4.719       12.750       14.523        8.172       10.325       11.806       66.773      106.597      139.378        0.035        0.016       13.595        7.041        0.268      338.793       11.686      864.594
10/10/2014  08:13:00       -9.816        6.235       13.977        8.697        7.887        8.796       75.636       62.212       77.377        0.027        0.011       11.629        6.016        0.268      338.901       11.869      864.609
10/10/2014  08:14:00      -16.668        2.102       -8.525       15.016       10.581       10.613      225.487      111.957      112.644        0.040        0.023       16.800       10.038        0.357      338.621       11.398      864.618
10/10/2014  08:15:00       -7.648       -9.843        7.235        5.951        7.081        9.689       35.415       50.145       93.871        0.019        0.009       12.466        4.129        0.110      338.776       11.659      864.624
10/10/2014  08:16:00       -9.312       -2.583        0.881        7.885        6.361        9.259       62.178       40.467       85.731        0.014        0.009        9.663        4.141        0.184      338.686       11.506      864.635
10/10/2014  08:17:00      -13.882      -19.300       11.504       21.852       22.544       17.155      477.525      508.244      294.293        0.099        0.064       23.773       14.810        0.388      338.715       11.556      864.646
10/10/2014  08:18:00       -3.386      -46.712       -0.295       21.626       22.121       16.268      467.670      489.342      264.647        0.171        0.061       46.834       17.661        0.142      338.637       11.424      864.655
10/10/2014  08:19:00       -7.568        8.355       30.495       12.764       26.228       19.048      162.927      687.922      362.827        0.114        0.061       11.273       19.015        2.845      339.076       12.162      864.655
10/10/2014  08:20:00       35.178       -7.373        7.405       28.831       16.704       20.849      831.202      279.009      434.665        0.145        0.077       35.942       14.225        0.157      338.556       11.288      864.647
10/10/2014  08:21:00       11.244      -14.513       25.400       18.154       24.809       16.644      329.576      615.478      277.007        0.110        0.061       18.359       10.261        0.312      338.837       11.759      864.633
10/10/2014  08:22:00       13.109        4.006       42.247       18.483       21.311       20.755      341.605      454.149      430.774        0.160        0.061       13.707       17.455        1.622      338.957       11.960      864.625
10/10/2014  08:23:00       40.804       27.555       22.063       33.284       24.218       23.281     1107.814      586.497      542.022        0.257        0.112       49.236       20.551        0.174      338.755       11.622      864.619
10/10/2014  08:24:00       37.095       15.405       17.925       31.834       27.486       21.683     1013.385      755.500      470.138        0.209        0.112       40.167       20.224        0.254      338.994       12.024      864.618
10/10/2014  08:25:00       -6.470       32.897       56.698       16.334       24.327       17.968      266.795      591.824      322.848        0.276        0.059       33.527       12.711        0.144      339.214       12.393      864.612
10/10/2014  08:26:00        3.720       27.498       55.047       17.793       26.878       15.521      316.593      722.402      240.896        0.254        0.064       27.748       13.757        0.246      338.922       11.902      864.606
10/10/2014  08:27:00       14.537       38.217       52.499       26.096       30.889       20.661      680.980      954.136      426.867        0.324        0.103       40.888       17.209        0.177      338.837       11.761      864.594
10/10/2014  08:28:00        3.170       10.736       41.041       24.830       33.556       21.208      616.535     1125.981      449.773        0.200        0.110       11.194       21.570        3.713      339.057       12.130      864.585
10/10/2014  08:29:00       17.385      -44.364       25.846       20.939       35.738       22.806      438.456     1277.180      520.093        0.259        0.112       47.648       23.631        0.246      338.827       11.743      864.580
10/10/2014  08:30:00       17.449      -24.520       25.797       25.541       28.990       25.899      652.356      840.394      670.767        0.187        0.108       30.095       19.684        0.428      338.874       11.822      864.578
10/10/2014  08:31:00       14.960       -0.819       22.595       26.123       38.451       22.261      682.418     1478.464      495.532        0.170        0.133       14.982       25.628        2.926      338.921       11.901      864.592
10/10/2014  08:32:00       21.645       41.561       30.508       19.033       19.300       18.858      362.241      372.480      355.635        0.211        0.055       46.860       10.915        0.054      339.048       12.113      864.617
10/10/2014  08:33:00       38.892       19.273        5.199       30.281       27.000       21.140      916.933      728.974      446.905        0.200        0.105       43.406       13.856        0.102      339.047       12.113      864.638
10/10/2014  08:34:00       39.796       21.085       27.305       41.162       15.738       20.161     1694.318      247.688      406.457        0.256        0.117       45.037       18.708        0.173      339.196       12.364      864.665
10/10/2014  08:35:00       13.159       41.759        1.531       18.155       27.191       19.511      329.609      739.342      380.662        0.168        0.072       43.783       20.653        0.223      339.061       12.136      864.688
10/10/2014  08:36:00       23.498       43.703       -1.024       29.086       29.880       23.004      845.975      892.813      529.199        0.237        0.113       49.619       20.432        0.170      339.039       12.101      864.707
10/10/2014  08:37:00       66.345       30.486        2.886       28.267       22.201       20.168      799.043      492.872      406.734        0.352        0.085       73.014        6.512        0.008      338.923       11.905      864.712
10/10/2014  08:38:00       51.857       21.686       16.093       27.586       29.110       21.266      761.013      847.368      452.224        0.274        0.103       56.209       15.317        0.074      339.041       12.102      864.722
10/10/2014  08:39:00       67.490       35.914       12.441       24.281       18.683       19.356      589.585      349.065      374.636        0.366        0.066       76.451       14.308        0.035      338.971       11.984      864.733
10/10/2014  08:40:00       32.806       36.835        3.203       21.214       20.905       20.118      450.049      437.038      404.733        0.187        0.065       49.326       17.183        0.121      339.070       12.152      864.733
10/10/2014  08:41:00       22.310       38.481        5.467       25.211       24.117       23.389      635.615      581.632      547.051        0.189        0.088       44.480       18.590        0.175      339.111       12.222      864.736
10/10/2014  08:42:00       14.221       42.571       -1.632       17.031       21.724       20.016      290.043      471.945      400.659        0.159        0.058       44.883       15.298        0.116      339.069       12.150      864.749
10/10/2014  08:43:00       21.280       30.887       -6.043       22.382       20.078       14.018      500.964      403.120      196.497        0.127        0.055       37.508        9.470        0.064      339.164       12.310      864.758
10/10/2014  08:44:00       29.775       36.419       21.217       27.848       24.021       25.125      775.521      577.020      631.260        0.232        0.099       47.041       20.725        0.194      339.422       12.745      864.769
10/10/2014  08:45:00       -2.506      -10.658       24.155       12.313       16.316       10.250      151.621      266.218      105.053        0.061        0.026       10.949        9.609        0.770      339.705       13.222      864.777
10/10/2014  08:46:00        9.290        5.656       18.303       21.127       24.749       16.668      446.355      612.504      277.824        0.089        0.067       10.876       15.206        1.955      339.561       12.978      864.782
10/10/2014  08:47:00        1.153        3.318       12.330       18.448       24.521       20.759      340.323      601.300      430.916        0.077        0.069        3.513       14.027       15.945      339.592       13.032      864.787
10/10/2014  08:48:00        5.119       -0.784       15.688       17.058       22.520       20.604      290.990      507.133      424.535        0.075        0.061        5.178       10.891        4.423      339.521       12.911      864.791
10/10/2014  08:49:00       15.252       -6.220       13.766       22.150       15.894       20.800      490.613      252.613      432.624        0.082        0.059       16.471       11.859        0.518      339.435       12.766      864.798
10/10/2014  08:50:00       16.566       -3.510       11.528       18.997       22.963       21.118      360.899      527.303      445.970        0.088        0.067       16.934       12.934        0.583      339.323       12.579      864.800
10/10/2014  08:51:00        6.259       16.350       25.169       15.487       13.134       14.358      239.838      172.493      206.156        0.078        0.031       17.507       11.424        0.426      339.498       12.873      864.804
10/10/2014  08:52:00      -13.293       -3.527        9.414       33.274       14.664        8.996     1107.137      215.038       80.936        0.084        0.070       13.753       13.350        0.942      339.322       12.575      864.804
10/10/2014  08:53:00      -43.300      -27.278      -12.113       18.947       17.020       13.752      358.976      289.675      189.105        0.180        0.042       51.176        7.327        0.020      339.251       12.456      864.809
10/10/2014  08:54:00      -51.554      -10.234      -17.831       19.054       11.906       15.883      363.068      141.751      252.282        0.192        0.038       52.560        8.456        0.026      339.385       12.682      864.814
10/10/2014  08:55:00       -7.050      -47.805      -16.861       14.022       19.264       14.343      196.622      371.103      205.722        0.170        0.039       48.322        6.646        0.019      339.333       12.594      864.810
10/10/2014  08:56:00       -9.703      -46.227        4.837       17.772       12.035       12.919      315.847      144.837      166.903        0.144        0.031       47.234        5.189        0.012      339.268       12.486      864.808
10/10/2014  08:57:00      -33.845      -31.355        0.164       10.743       18.933        8.128      115.417      358.445       66.070        0.133        0.027       46.137        7.048        0.023      339.283       12.510      864.797
10/10/2014  08:58:00      -33.001      -26.867      -11.904       20.691       14.388        9.433      428.135      207.025       88.972        0.134        0.036       42.555        5.139        0.015      339.345       12.615      864.802
10/10/2014  08:59:00      -23.487      -26.664        7.608       23.033       15.217       15.279      530.529      231.565      233.437        0.116        0.050       35.533       14.833        0.174      339.512       12.895      864.800
10/10/2014  09:00:00      -31.752      -37.352        0.286       19.467       17.414       14.253      378.946      303.261      203.156        0.164        0.044       49.024        9.109        0.035      339.424       12.747      864.807
10/10/2014  09:01:00      -19.590      -34.244        1.266       17.789       25.854       15.519      316.441      668.453      240.828        0.139        0.061       39.451       14.503        0.135      339.635       13.104      864.809
10/10/2014  09:02:00      -37.842      -27.983        0.804       19.358       14.220       12.686      374.741      202.201      160.940        0.148        0.037       47.064        6.719        0.020      339.535       12.935      864.816
10/10/2014  09:03:00      -27.887        5.231      -11.686       17.155       12.570       16.559      294.281      158.010      274.207        0.083        0.036       28.373       13.873        0.239      339.625       13.087      864.823
10/10/2014  09:04:00      -29.764      -42.291       -9.539       18.885       10.227       15.810      356.627      104.582      249.946        0.174        0.036       51.715        8.506        0.027      339.504       12.882      864.832
10/10/2014  09:05:00      -15.135      -13.809      -12.804       16.350       11.069        9.870      267.330      122.521       97.409        0.054        0.024       20.488        9.905        0.234      339.640       13.113      864.835
10/10/2014  09:06:00      -20.902        1.824      -15.845       14.827       10.667        7.725      219.833      113.785       59.679        0.054        0.020       20.982        4.910        0.055      339.745       13.288      864.838
10/10/2014  09:07:00       -9.779       -6.014       -5.113        9.858        5.913        6.847       97.172       34.962       46.878        0.017        0.009       11.480        5.466        0.227      339.970       13.670      864.846
10/10/2014  09:08:00      -16.132       -3.355       -6.140        8.166        6.970        6.392       66.686       48.578       40.860        0.023        0.008       16.477        3.875        0.055      339.885       13.526      864.859
10/10/2014  09:09:00      -16.359       -1.699       -8.701        9.617        7.341        5.023       92.483       53.884       25.230        0.026        0.009       16.447        4.391        0.071      339.824       13.422      864.872
10/10/2014  09:10:00      -20.086       -7.889       -3.080        9.364        6.909        6.161       87.677       47.730       37.960        0.032        0.009       21.580        2.572        0.014      339.799       13.381      864.883
10/10/2014  09:11:00      -50.310      -13.756      -10.079       14.089       18.244       12.039      198.513      332.832      144.935        0.175        0.034       52.157       10.062        0.037      339.678       13.177      864.893
10/10/2014  09:12:00       -3.875      -18.393       -0.692       10.883       18.136       10.085      118.430      328.916      101.700        0.045        0.027       18.796        7.641        0.165      339.830       13.432      864.901
10/10/2014  09:13:00      -45.283      -29.402        6.894       19.411       15.471       15.494      376.795      239.345      240.052        0.191        0.043       53.992       13.924        0.067      339.699       13.211      864.905
10/10/2014  09:14:00      -14.177        1.397       22.447       31.455       21.749       17.378      989.430      473.041      301.982        0.124        0.088       14.245       15.746        1.222      340.224       14.099      864.909
10/10/2014  09:15:00       -0.044       10.414       29.375       12.474       18.675       14.533      155.608      348.751      211.194        0.084        0.036       10.414       11.161        1.149      340.533       14.619      864.904
10/10/2014  09:16:00       -6.368        0.463       37.055        7.895        9.190        8.715       62.331       84.453       75.945        0.082        0.011        6.385        4.844        0.576      340.747       14.982      864.903
10/10/2014  09:17:00       29.841       28.586       28.531       28.787       17.739       20.325      828.694      314.677      413.100        0.204        0.078       41.324       12.833        0.096      340.131       13.940      864.908
10/10/2014  09:18:00       13.885       50.163        5.584       21.019       21.090       21.810      441.812      444.800      475.662        0.205        0.068       52.049       15.983        0.094      340.222       14.093      864.916
10/10/2014  09:19:00       17.295       81.864        3.423       43.245       35.372       24.253     1870.103     1251.173      588.199        0.536        0.185       83.671       20.464        0.060      340.397       14.390      864.917
10/10/2014  09:20:00      -18.881       88.239      -20.056       22.623       20.820       16.684      511.823      433.475      278.350        0.488        0.061       90.237        8.934        0.010      339.928       13.598      864.923
10/10/2014  09:21:00        4.927       36.588        4.261       24.289       30.498       18.597      589.949      930.108      345.862        0.162        0.093       36.919        8.401        0.052      340.365       14.336      864.923
10/10/2014  09:22:00      -19.649       34.995        8.257       24.495       35.457       21.023      599.997     1257.205      441.947        0.199        0.115       40.134       20.104        0.251      340.461       14.497      864.927
10/10/2014  09:23:00      -27.559       44.550       -3.395       17.452       26.942       16.524      304.565      725.880      273.039        0.203        0.065       52.384       10.614        0.041      340.329       14.276      864.936
10/10/2014  09:24:00      -26.641       50.018        3.324       20.495       26.236       21.350      420.059      688.317      455.809        0.239        0.078       56.671       20.215        0.127      340.485       14.539      864.936
10/10/2014  09:25:00       -9.117        6.943       14.400       23.776       25.210       14.155      565.286      635.568      200.360        0.087        0.070       11.460       10.816        0.891      340.737       14.965      864.946
10/10/2014  09:26:00       -9.149       18.945       13.428       16.234       26.137       23.121      263.552      683.149      534.594        0.105        0.074       21.038       10.083        0.230      340.820       15.105      864.949
10/10/2014  09:27:00       -3.861       13.131       16.485       16.951       26.268       20.772      287.348      690.015      431.485        0.093        0.070       13.687       18.185        1.765      340.977       15.370      864.950
10/10/2014  09:28:00        3.413        8.056        8.954       16.348       14.934       18.714      267.254      223.039      350.207        0.050        0.042        8.749        9.289        1.127      340.927       15.287      864.956
10/10/2014  09:29:00       -2.694       44.572        4.237       17.835       29.868       22.078      318.081      892.117      487.435        0.185        0.085       44.654        9.074        0.041      340.741       14.971      864.966
10/10/2014  09:30:00        6.876       28.943        1.859       13.457       23.565       20.488      181.102      555.291      419.763        0.102        0.058       29.749       13.222        0.198      340.710       14.918      864.974
10/10/2014  09:31:00        2.604       22.459       12.430       20.301       19.446       20.488      412.149      378.140      419.776        0.094        0.061       22.610       15.009        0.441      340.929       15.290      864.987
10/10/2014  09:32:00        1.780       16.727       17.503       15.799       24.151       19.293      249.607      583.284      372.209        0.090        0.060       16.822       13.879        0.681      341.011       15.428      864.999
10/10/2014  09:33:00       -6.295        2.549       21.013       17.356       19.311       17.017      301.247      372.911      289.581        0.073        0.048        6.791        9.754        2.063      341.283       15.888      865.001
10/10/2014  09:34:00       -6.105       32.446       53.241       28.448       30.367       27.792      809.303      922.138      772.409        0.321        0.125       33.015        9.860        0.089      341.228       15.795      865.001
10/10/2014  09:35:00       18.856       51.649       48.245       25.270       27.066       30.318      638.571      732.549      919.203        0.382        0.115       54.983       11.481        0.044      340.642       14.804      865.002
10/10/2014  09:36:00       54.159       53.323       30.659       22.668       29.972       28.449      513.853      898.309      809.327        0.447        0.111       76.004       13.522        0.032      340.626       14.777      864.999
10/10/2014  09:37:00       65.160       17.254       14.232       54.982       25.546       26.230     3023.015      652.618      687.995        0.455        0.218       67.406       29.746        0.195      340.897       15.235      864.995
10/10/2014  09:38:00       34.766       56.493       -0.711       38.385       41.124       32.339     1473.390     1691.209     1045.823        0.430        0.211       66.333       20.459        0.095      340.856       15.166      864.991
10/10/2014  09:39:00       64.539       42.173       19.337       15.563       22.318       24.783      242.208      498.097      614.197        0.384        0.068       77.096       17.607        0.052      340.867       15.184      864.996
10/10/2014  09:40:00        3.018       39.587       17.945       28.592       33.356       27.637      817.530     1112.615      763.815        0.230        0.135       39.702       23.401        0.347      341.069       15.526      865.008
10/10/2014  09:41:00       23.459      -16.992       16.432       23.040       35.671       23.448      530.858     1272.389      549.801        0.173        0.118       28.966       20.388        0.495      340.831       15.124      865.003
10/10/2014  09:42:00       45.177      -63.287       -2.872       27.242       25.424       28.837      742.130      646.381      831.601        0.414        0.111       77.757       19.270        0.061      340.290       14.209      865.014
10/10/2014  09:43:00       47.898       35.083       25.399       36.784       66.882       26.214     1353.077     4473.160      687.161        0.534        0.326       59.372       31.053        0.274      340.541       14.633      865.015
10/10/2014  09:44:00       30.486       -0.846       40.292       31.099       41.904       19.678      967.165     1755.944      387.235        0.283        0.156       30.497        9.513        0.097      340.877       15.202      865.017
10/10/2014  09:45:00       34.426       10.426       46.185       32.446       42.931       27.763     1052.742     1843.085      770.800        0.355        0.183       35.970       26.847        0.557      340.720       14.936      865.026
10/10/2014  09:46:00        9.333       11.740       31.810       20.620       24.647       22.640      425.166      607.486      512.550        0.139        0.077       14.998        9.274        0.382      341.118       15.608      865.031
10/10/2014  09:47:00       14.420       18.871       31.180       20.181       23.712       22.278      407.290      562.265      496.303        0.150        0.073       23.750       12.671        0.285      341.209       15.764      865.034
10/10/2014  09:48:00       40.886      -19.240       15.658       24.641       28.273       30.140      607.192      799.342      908.429        0.230        0.116       45.187       20.323        0.202      340.700       14.902      865.034
10/10/2014  09:49:00       37.186      -23.970       19.694       43.268       38.045       31.168     1872.115     1447.422      971.445        0.332        0.215       44.242       22.894        0.268      340.961       15.345      865.034
10/10/2014  09:50:00       33.164       28.724       22.742       34.158       27.110       32.386     1166.791      734.954     1048.879        0.270        0.148       43.873       26.798        0.373      341.122       15.617      865.038
10/10/2014  09:51:00       38.175       35.372        2.649       21.398       19.348       25.519      457.886      374.350      651.239        0.210        0.074       52.043       10.715        0.042      340.830       15.122      865.039
10/10/2014  09:52:00       42.496       39.863       -6.106       13.480       19.426       19.234      181.723      377.362      369.931        0.218        0.046       58.266        9.882        0.029      340.852       15.159      865.025
10/10/2014  09:53:00       23.196       21.293      -11.496       18.824       15.338       14.630      354.328      235.258      214.033        0.096        0.040       31.487        9.503        0.091      340.850       15.155      865.018
10/10/2014  09:54:00       17.743       26.765        2.878       26.685       20.076       22.139      712.093      403.051      490.145        0.132        0.080       32.112       18.667        0.338      341.382       16.056      865.009
10/10/2014  09:55:00       31.438       42.247       31.155       35.416       29.926       29.032     1254.328      895.593      842.840        0.337        0.150       52.661       15.864        0.091      341.634       16.483      864.991
10/10/2014  09:56:00       77.235       55.333       47.133       48.501       26.548       31.730     2352.380      704.821     1006.822        0.766        0.203       95.011       21.156        0.050      341.362       16.023      864.978
10/10/2014  09:57:00       95.591       71.532       29.497       49.170       42.105       44.149     2417.719     1772.854     1949.177        1.063        0.307      119.392       30.457        0.065      341.228       15.795      864.966
10/10/2014  09:58:00       58.932       37.939       38.382       54.721       70.284       37.175     2994.413     4939.861     1381.962        0.785        0.466       70.089       27.195        0.151      341.104       15.585      864.950
10/10/2014  09:59:00        9.031       25.011       36.118       34.355       49.112       29.191     1180.278     2411.954      852.111        0.323        0.222       26.592        8.599        0.105      341.388       16.065      864.938
10/10/2014  10:00:00       14.328       -8.641       34.428       30.574       44.937       29.262      934.776     2019.313      856.260        0.264        0.191       16.732       27.255        2.653      341.444       16.161      864.939
10/10/2014  10:01:00       10.375       -2.840       24.734       20.536       32.837       21.173      421.745     1078.274      448.276        0.134        0.097       10.757       17.840        2.751      341.360       16.019      864.926
10/10/2014  10:02:00       71.519       82.272       57.939       49.291       32.563       39.483     2429.563     1060.356     1558.944        1.014        0.252      109.012       26.596        0.060      341.366       16.030      864.917
10/10/2014  10:03:00       36.265       -3.284       35.841       57.335       43.129       29.437     3287.307     1860.069      866.516        0.431        0.301       36.414       16.824        0.213      341.436       16.148      864.902
10/10/2014  10:04:00       65.427      -44.588        0.141       40.282       39.539       23.478     1622.602     1563.314      551.215        0.500        0.187       79.176       14.757        0.035      340.864       15.180      864.892
10/10/2014  10:05:00       55.133       -0.630       27.795       49.675       34.506       37.816     2467.638     1190.647     1430.046        0.445        0.254       55.137       33.175        0.362      341.213       15.769      864.879
10/10/2014  10:06:00       80.880        3.599        7.575       36.596       41.357       27.792     1339.298     1710.441      772.401        0.522        0.191       80.960        8.118        0.010      340.918       15.269      864.859
10/10/2014  10:07:00       31.841       28.917       28.458       40.563       29.906       33.086     1645.349      894.348     1094.679        0.315        0.182       43.012       30.530        0.504      341.701       16.597      864.843
10/10/2014  10:08:00       28.638        1.814       34.809       32.441       38.465       20.788     1052.399     1479.564      432.146        0.250        0.148       28.696       17.299        0.363      341.711       16.613      864.822
10/10/2014  10:09:00       57.301       -9.175        5.372       23.338       30.537       26.300      544.653      932.495      691.695        0.278        0.108       58.031       15.301        0.070      341.156       15.674      864.810
10/10/2014  10:10:00       25.772      -10.752        3.613       32.121       26.340       27.549     1031.753      693.821      758.957        0.164        0.124       27.925       22.323        0.639      341.577       16.387      864.810
10/10/2014  10:11:00        8.876       -3.610       27.151       15.696       36.931       22.637      246.365     1363.879      512.441        0.148        0.106        9.582       11.376        1.410      341.801       16.766      864.794
10/10/2014  10:12:00       74.497      105.165       79.749       52.030       33.168       30.858     2707.091     1100.135      952.220        1.386        0.238      128.878       12.396        0.009      341.551       16.341      864.784
10/10/2014  10:13:00       75.857       50.541       32.887       59.422       53.428       28.212     3530.977     2854.584      795.898        0.828        0.359       91.152        7.695        0.007      341.463       16.193      864.777
10/10/2014  10:14:00        8.283       19.171       41.830       32.305       45.537       31.664     1043.581     2073.624     1002.599        0.315        0.206       20.884       14.330        0.471      341.891       16.919      864.765
10/10/2014  10:15:00        4.503       12.452       30.107       24.241       33.325       22.948      587.619     1110.573      526.596        0.165        0.111       13.241       21.511        2.639      341.898       16.932      864.752
10/10/2014  10:16:00       23.910      -57.099        1.006       31.021       26.555       20.517      962.315      705.181      420.946        0.296        0.104       61.903       11.264        0.033      341.431       16.138      864.742
10/10/2014  10:17:00       43.682      -41.390        6.865       26.142       29.337       24.032      683.405      860.655      577.514        0.289        0.106       60.177       17.988        0.089      341.219       15.779      864.749
10/10/2014  10:18:00       25.277       20.209       16.095       43.751       30.431       38.716     1914.139      926.031     1498.966        0.282        0.217       32.363       16.917        0.273      342.013       17.125      864.759
10/10/2014  10:19:00       81.395       66.722        3.887       38.217       37.509       28.468     1460.552     1406.934      810.451        0.738        0.184      105.247       16.163        0.024      341.875       16.892      864.764
10/10/2014  10:20:00       22.963       45.088       32.990       29.610       35.612       45.457      876.749     1268.206     2066.338        0.393        0.211       50.598       32.882        0.422      342.034       17.162      864.776
10/10/2014  10:21:00       19.269       28.693       57.203       37.795       51.468       32.227     1428.463     2648.958     1038.551        0.479        0.256       34.563       20.078        0.337      341.939       17.001      864.785
10/10/2014  10:22:00       46.197       44.272       27.587       28.212       41.055       27.336      795.935     1685.525      747.257        0.404        0.161       63.986       24.862        0.151      341.592       16.411      864.790
10/10/2014  10:23:00       24.837      -50.054       -1.623       28.547       40.817       36.850      814.938     1666.029     1357.907        0.348        0.192       55.877       31.211        0.312      341.887       16.912      864.798
10/10/2014  10:24:00       18.823       28.913       38.404       34.672       31.382       22.761     1202.137      984.804      518.066        0.268        0.135       34.501       16.279        0.223      342.322       17.650      864.789
10/10/2014  10:25:00       52.072       40.302       10.551       28.740       28.988       27.526      825.960      840.311      757.653        0.344        0.121       65.847       12.505        0.036      341.930       16.986      864.792
10/10/2014  10:26:00       64.103       34.342       16.023       43.607       55.138       30.548     1901.588     3040.229      933.189        0.571        0.294       72.723       21.913        0.091      341.925       16.976      864.785
10/10/2014  10:27:00       13.261       33.379       34.065       42.069       41.295       37.765     1769.830     1705.271     1426.208        0.368        0.245       35.916       26.225        0.533      342.438       17.850      864.782
10/10/2014  10:28:00       34.375       42.475       41.202       44.288       34.360       36.684     1961.405     1180.604     1345.702        0.458        0.224       54.642       23.421        0.184      342.663       18.231      864.779
10/10/2014  10:29:00       22.990       -9.169       48.400       39.992       58.578       43.994     1599.397     3431.364     1935.438        0.496        0.348       24.751       48.742        3.878      342.394       17.774      864.790
10/10/2014  10:30:00        7.515        9.598       59.429       36.925       70.842       36.031     1363.480     5018.542     1298.261        0.568        0.384       12.191       40.633       11.110      342.044       17.179      864.783
10/10/2014  10:31:00       24.139      -18.108       41.076       37.934       55.056       35.695     1438.953     3031.110     1274.158        0.417        0.287       30.176       32.643        1.170      342.063       17.210      864.797
10/10/2014  10:32:00       45.488       23.730        3.067       55.837       33.367       37.882     3117.722     1113.381     1435.030        0.415        0.283       51.306       27.526        0.288      342.066       17.216      864.798
10/10/2014  10:33:00       47.532       40.545        7.959       49.304       38.275       30.958     2430.873     1464.988      958.413        0.441        0.243       62.475       25.918        0.172      342.584       18.097      864.808
10/10/2014  10:34:00       81.967       46.492       29.591       53.977       49.930       32.538     2913.528     2493.027     1058.743        0.811        0.323       94.234       28.350        0.091      342.615       18.149      864.804
10/10/2014  10:35:00       95.063       62.351       21.054       38.439       28.247       38.516     1477.575      797.896     1483.514        0.856        0.188      113.687       24.770        0.047      342.023       17.144      864.813
10/10/2014  10:36:00       80.176       72.071        7.234       37.541       32.320       22.677     1409.342     1044.558      514.230        0.732        0.148      107.807       11.720        0.012      341.925       16.977      864.815
10/10/2014  10:37:00       17.751      -15.074       12.727       28.170       52.374       20.949      793.572     2743.059      438.846        0.234        0.199       23.288       11.176        0.230      342.138       17.338      864.819
10/10/2014  10:38:00       11.499      -53.239       31.648       25.718       55.573       33.716      661.412     3088.394     1136.738        0.443        0.244       54.467       18.331        0.113      342.484       17.926      864.815
10/10/2014  10:39:00       31.180      -27.550        6.705       44.565       32.760       34.136     1986.037     1073.226     1165.286        0.300        0.211       41.608       23.303        0.314      342.301       17.615      864.825
10/10/2014  10:40:00        9.516      -10.794       26.162       30.616       30.514       26.245      937.358      931.133      688.825        0.172        0.128       14.390       10.214        0.504      342.342       17.686      864.816
10/10/2014  10:41:00       24.355      -37.451        7.750       45.478       51.728       38.498     2068.253     2675.776     1482.099        0.414        0.311       44.674       21.975        0.242      342.468       17.900      864.816
10/10/2014  10:42:00       48.713      -68.351       -5.948       42.632       61.254       42.677     1817.468     3752.033     1821.329        0.723        0.370       83.934       42.101        0.252      342.477       17.916      864.810
10/10/2014  10:43:00       30.800      -27.088       18.472       52.587       57.979       37.915     2765.411     3361.514     1437.573        0.479        0.378       41.017       19.605        0.228      342.491       17.937      864.822
10/10/2014  10:44:00       23.784       14.510       55.830       40.517       67.946       46.670     1641.613     4616.725     2178.073        0.616        0.422       27.861       51.627        3.434      342.308       17.629      864.811
10/10/2014  10:45:00       50.256       48.587       47.578       56.553       45.747       43.199     3198.225     2092.803     1866.189        0.715        0.358       69.903       25.681        0.135      342.284       17.585      864.824
10/10/2014  10:46:00       23.109       16.113       57.079       41.885       54.717       34.160     1754.373     2993.946     1166.912        0.498        0.296       28.172       27.631        0.962      342.760       18.395      864.823
10/10/2014  10:47:00       16.530      -11.405       25.183       41.289       68.457       38.622     1704.808     4686.303     1491.696        0.446        0.394       20.082       24.865        1.533      342.736       18.356      864.835
10/10/2014  10:48:00       62.494      -46.332       21.497       70.649       86.091       51.632     4991.342     7411.707     2665.856        1.079        0.753       77.796       65.622        0.712      342.616       18.149      864.827
10/10/2014  10:49:00       64.707     -111.731       11.299       59.299       88.075       46.560     3516.360     7757.149     2167.836        1.512        0.672      129.115       63.139        0.239      342.474       17.908      864.835
10/10/2014  10:50:00       44.456       48.557       51.347       37.901       27.894       28.460     1436.449      778.051      809.984        0.500        0.151       65.834       18.042        0.075      342.385       17.759      864.830
10/10/2014  10:51:00       47.508       46.312        9.764       35.168       31.438       23.839     1236.759      988.353      568.289        0.364        0.140       66.346       17.549        0.070      342.484       17.926      864.824
10/10/2014  10:52:00       31.366       49.828        9.181       36.393       36.382       31.360     1324.456     1323.685      983.456        0.359        0.182       58.878       24.551        0.174      342.507       17.966      864.807
10/10/2014  10:53:00       58.418       30.596       23.105       35.642       27.603       28.062     1270.366      761.914      787.450        0.385        0.141       65.945        5.958        0.008      342.493       17.941      864.811
10/10/2014  10:54:00       44.986       50.536       38.822       37.355       56.416       46.187     1395.365     3182.773     2133.235        0.640        0.336       67.658       40.649        0.361      342.507       17.964      864.807
10/10/2014  10:55:00       43.764       65.203       41.896       60.446       61.566       54.207     3653.713     3790.410     2938.383        0.915        0.519       78.528       43.041        0.300      342.354       17.705      864.800
10/10/2014  10:56:00       40.324      -64.590        8.515       43.853       48.098       30.551     1923.111     2313.446      933.351        0.552        0.258       76.144       37.812        0.247      342.257       17.541      864.806
10/10/2014  10:57:00       35.052       20.053       29.541       32.999       43.751       38.389     1088.946     1914.107     1473.700        0.349        0.224       40.383       32.526        0.649      342.532       18.008      864.798
10/10/2014  10:58:00      117.351       83.317       33.334       71.040       57.411       46.097     5046.617     3296.064     2124.976        1.614        0.523      143.921       35.385        0.060      342.639       18.188      864.802
10/10/2014  10:59:00      152.077      110.960       20.570       37.530       31.217       37.997     1408.520      974.497     1443.755        1.984        0.191      188.254       23.893        0.016      342.443       17.854      864.813
10/10/2014  11:00:00      125.532       91.210        6.488       36.852       24.266       27.901     1358.058      588.862      778.470        1.342        0.136      155.170       20.336        0.017      342.265       17.553      864.807
10/10/2014  11:01:00       96.508       84.228       18.242       30.835       27.868       30.191      950.813      776.641      911.505        0.969        0.132      128.094       18.896        0.022      342.351       17.701      864.813
10/10/2014  11:02:00       78.890       64.082        1.437       40.102       20.926       25.261     1608.188      437.904      638.121        0.651        0.134      101.637       16.973        0.028      342.392       17.770      864.803
10/10/2014  11:03:00       60.175       61.557        6.687       35.986       31.752       31.566     1294.987     1008.215      996.410        0.538        0.165       86.083       19.090        0.049      342.623       18.164      864.785
10/10/2014  11:04:00       86.775       45.789       22.877       62.872       37.963       31.228     3952.885     1441.225      975.159        0.826        0.318       98.115       23.476        0.057      342.772       18.415      864.775
10/10/2014  11:05:00      112.230       64.832        4.581       68.008       59.767       34.374     4625.080     3572.102     1181.556        1.310        0.469      129.610       29.220        0.051      342.799       18.460      864.755
10/10/2014  11:06:00      146.983       91.540       21.621       45.524       34.713       47.175     2072.390     1205.003     2225.467        1.798        0.275      173.158       31.977        0.034      342.705       18.299      864.759
10/10/2014  11:07:00      120.039       92.623       17.806       53.192       41.866       44.277     2829.392     1752.758     1960.491        1.492        0.327      151.619       14.756        0.009      342.701       18.293      864.749
10/10/2014  11:08:00       83.250      100.081       -7.711       47.645       40.988       32.979     2270.066     1680.009     1087.633        1.102        0.252      130.179       18.653        0.021      342.681       18.260      864.742
10/10/2014  11:09:00       17.821       60.444       -2.412       21.177       42.810       22.867      448.470     1832.671      522.911        0.339        0.140       63.016       22.327        0.126      342.887       18.613      864.747
10/10/2014  11:10:00       19.178       44.054        2.859       23.315       31.442       22.750      543.586      988.582      517.562        0.218        0.102       48.047       19.861        0.171      343.000       18.804      864.736
10/10/2014  11:11:00       71.210       43.093        1.127       40.106       27.644       25.565     1608.507      764.207      653.556        0.498        0.151       83.234       14.905        0.032      342.769       18.410      864.731
10/10/2014  11:12:00        0.300       26.320       -0.597       15.774       37.391       17.286      248.827     1398.113      298.790        0.132        0.097       26.321       15.969        0.368      343.044       18.879      864.717
10/10/2014  11:13:00       31.299       17.561       13.523       26.735       19.849       23.305      714.774      393.964      543.114        0.156        0.083       35.889       16.260        0.205      342.998       18.801      864.705
10/10/2014  11:14:00        3.021      -42.821       23.203       33.522       55.211       36.724     1123.738     3048.211     1348.666        0.395        0.276       42.928       24.728        0.332      343.319       19.348      864.691
10/10/2014  11:15:00       41.572      -93.625        0.788       45.783       85.514       44.439     2096.120     7312.711     1974.852        1.094        0.569      102.440       24.507        0.057      343.139       19.041      864.663
10/10/2014  11:16:00       76.579       75.035       21.376       48.429       42.666       41.784     2345.394     1820.428     1745.934        0.893        0.296      107.212       10.137        0.009      342.939       18.700      864.653
10/10/2014  11:17:00       36.179       58.014       46.771       50.029       55.114       45.646     2502.887     3037.523     2083.542        0.724        0.381       68.371       33.753        0.244      343.481       19.623      864.645
10/10/2014  11:18:00       49.133       81.501       58.980       52.570       45.507       48.530     2763.566     2070.847     2355.161        0.986        0.359       95.166        8.858        0.009      343.429       19.534      864.623
10/10/2014  11:19:00       73.691       72.989       56.376       50.298       47.107       37.512     2529.915     2219.064     1407.174        1.004        0.308      103.719       26.197        0.064      343.175       19.102      864.626
10/10/2014  11:20:00       83.699       71.506       37.656       49.728       32.648       42.653     2472.854     1065.882     1819.258        0.945        0.268      110.085       25.939        0.056      342.892       18.620      864.609
10/10/2014  11:21:00      119.546       96.414       30.065       30.857       29.523       43.570      952.169      871.604     1898.377        1.411        0.186      153.581       16.849        0.012      342.766       18.405      864.608
10/10/2014  11:22:00      -10.639       49.340       -0.330       56.184       37.542       25.963     3156.678     1409.424      674.084        0.389        0.262       50.474       28.690        0.323      343.188       19.125      864.609
10/10/2014  11:23:00        7.317        3.472       35.683       27.480       45.947       24.023      755.154     2111.154      577.111        0.239        0.172        8.099       23.322        8.292      343.667       19.940      864.605
10/10/2014  11:24:00       20.331       27.639       32.815       27.360       18.183       19.199      748.549      330.628      368.588        0.185        0.072       34.311       15.046        0.192      343.225       19.187      864.606
10/10/2014  11:25:00       23.257       47.560        9.604       51.299       47.005       21.142     2631.622     2209.435      446.981        0.409        0.264       52.941       22.520        0.181      343.273       19.268      864.600
10/10/2014  11:26:00        2.992      105.448      -16.471       22.477       26.876       17.501      505.202      722.316      306.300        0.647        0.077      105.490       13.825        0.017      343.065       18.915      864.607
10/10/2014  11:27:00       -3.251       43.433        5.780       22.010       26.018       25.010      484.429      676.920      625.486        0.186        0.089       43.554       17.620        0.164      343.840       20.235      864.597
10/10/2014  11:28:00       -5.565       38.295       41.382       23.592       24.412       30.989      556.588      595.935      960.296        0.266        0.106       38.697        9.760        0.064      343.806       20.177      864.596
10/10/2014  11:29:00      -13.240       39.320       20.519       25.344       30.281       26.592      642.306      916.910      707.141        0.220        0.113       41.490       14.610        0.124      343.730       20.048      864.583
10/10/2014  11:30:00        1.754       30.923        8.830       21.680       33.862       33.895      470.021     1146.602     1148.855        0.190        0.138       30.972       19.217        0.385      343.550       19.740      864.587
10/10/2014  11:31:00       47.156       41.929       33.592       42.939       32.170       22.331     1843.726     1034.907      498.676        0.424        0.169       63.101       12.632        0.040      343.798       20.165      864.575
10/10/2014  11:32:00       68.362       37.159        5.668       43.948       38.043       24.590     1931.403     1447.276      604.648        0.503        0.199       77.808       16.051        0.043      343.361       19.419      864.580
10/10/2014  11:33:00       19.955        5.829       13.831       24.901       27.110       23.151      620.047      734.940      535.977        0.126        0.095       20.789       10.185        0.240      343.694       19.986      864.574
10/10/2014  11:34:00       21.029       26.200       23.222       37.303       22.829       24.239     1391.478      521.160      587.537        0.208        0.125       33.596       17.079        0.258      343.781       20.135      864.575
10/10/2014  11:35:00       68.245       45.577       19.199       48.733       28.159       35.753     2374.889      792.956     1278.254        0.577        0.222       82.065       21.382        0.068      343.195       19.136      864.576
10/10/2014  11:36:00      100.761       83.162       23.706       39.652       39.688       45.610     1572.292     1575.140     2080.257        1.143        0.261      130.647       30.106        0.053      343.212       19.165      864.573
10/10/2014  11:37:00       83.336       42.798       27.684       56.717       52.158       54.396     3216.764     2720.484     2958.921        0.922        0.445       93.683       40.527        0.187      343.565       19.766      864.565
10/10/2014  11:38:00      122.552       77.358       23.325       70.866       48.383       37.045     5021.991     2340.925     1372.365        1.514        0.437      144.925       29.807        0.042      343.408       19.498      864.561
10/10/2014  11:39:00       19.777       -0.013       15.009       47.941       31.737       24.254     2298.300     1007.221      588.277        0.225        0.195       19.777       18.809        0.904      343.992       20.494      864.556
10/10/2014  11:40:00       40.872       22.232        9.265       57.833       47.207       19.509     3344.646     2228.546      380.612        0.410        0.298       46.527       15.998        0.118      343.977       20.470      864.551
10/10/2014  11:41:00        8.410        8.711       62.963       27.059       33.263       25.396      732.215     1106.442      644.965        0.330        0.124       12.108       21.553        3.169      344.341       21.091      864.543
10/10/2014  11:42:00       52.671       73.905       49.203       76.669       53.049       50.818     5878.060     2814.244     2582.506        1.096        0.564       90.754       39.472        0.189      343.968       20.452      864.529
10/10/2014  11:43:00       52.962       95.886        7.652       69.725       85.598       45.086     4861.591     7327.036     2032.724        1.314        0.711      109.540       39.806        0.132      343.873       20.291      864.524
10/10/2014  11:44:00       40.326       78.866        1.068       43.822       46.941       40.072     1920.398     2203.462     1605.748        0.679        0.286       88.578        8.477        0.009      343.609       19.842      864.514
10/10/2014  11:45:00       26.256      -16.743        8.051       30.238       55.939       25.836      914.333     3129.193      667.506        0.287        0.236       31.140       16.347        0.276      343.761       20.101      864.514
10/10/2014  11:46:00       90.370       49.729       75.331       99.141      106.455       75.199     9828.862    11332.712     5654.956        2.156        1.341      103.149       82.240        0.636      343.573       19.778      864.496
10/10/2014  11:47:00       42.415      111.563      101.588       52.758       58.990       46.384     2783.445     3479.808     2151.460        1.649        0.421      119.354       41.921        0.123      343.294       19.303      864.507
10/10/2014  11:48:00       38.920       25.494       46.090       33.223       61.253       34.853     1103.776     3751.908     1214.762        0.518        0.304       46.526       38.357        0.680      343.447       19.565      864.510
10/10/2014  11:49:00       87.255      -46.316       16.040       64.774       51.248       42.724     4195.659     2626.377     1825.320        0.933        0.432       98.786       37.926        0.147      343.523       19.695      864.505
10/10/2014  11:50:00       13.831      -34.800       10.823       40.361       39.302       38.600     1628.988     1544.632     1489.929        0.309        0.233       37.448       30.252        0.653      343.905       20.346      864.494
10/10/2014  11:51:00       32.140      -33.140       21.070       38.386       55.783       33.954     1473.473     3111.752     1152.895        0.416        0.287       46.166       28.869        0.391      343.968       20.454      864.489
10/10/2014  11:52:00       19.214       -2.411       32.782       32.144       28.425       27.998     1033.228      807.991      783.905        0.204        0.131       19.364       24.539        1.606      344.008       20.523      864.480
10/10/2014  11:53:00       -7.329        5.618       24.502       31.263       25.808       14.573      977.377      666.042      212.361        0.127        0.093        9.235       14.148        2.347      344.390       21.177      864.477
10/10/2014  11:54:00       -1.816      -28.905       15.163       35.981       34.101       30.034     1294.612     1162.879      902.012        0.221        0.168       28.962       11.844        0.167      344.435       21.252      864.456
10/10/2014  11:55:00       18.901      -23.980       22.308       23.444       45.734       30.902      549.632     2091.562      954.955        0.251        0.180       30.533       25.133        0.678      344.342       21.093      864.448
10/10/2014  11:56:00       25.521       11.790       31.486       24.438       37.144       25.310      597.208     1379.668      640.610        0.220        0.131       28.112       15.252        0.294      344.046       20.586      864.450
10/10/2014  11:57:00      129.668       86.160       20.072       60.698       39.915       35.560     3684.230     1593.201     1264.512        1.559        0.327      155.683       22.209        0.020      343.879       20.300      864.425
10/10/2014  11:58:00      113.408       93.006       17.897       65.209       49.654       41.881     4252.179     2465.482     1754.036        1.515        0.424      146.668       19.000        0.017      343.928       20.383      864.421
10/10/2014  11:59:00       77.136       45.124       40.575       55.998       72.679       59.822     3135.766     5282.181     3578.626        1.081        0.600       89.365       52.744        0.348      344.240       20.919      864.400
10/10/2014  12:00:00      137.656      100.465       65.224       83.960       83.173       46.075     7049.351     6917.718     2122.907        2.469        0.804      170.418       48.424        0.081      343.895       20.326      864.386
10/10/2014  12:01:00       37.586      -21.096       50.528       43.345       77.235       53.681     1878.803     5965.238     2881.616        0.757        0.536       43.102       46.999        1.189      344.634       21.593      864.376
10/10/2014  12:02:00      129.671     -132.644       -7.135       68.243       86.528       56.193     4657.170     7487.165     3157.622        2.488        0.765      185.497       51.006        0.076      344.099       20.675      864.369
10/10/2014  12:03:00      146.251     -163.359      -10.378       68.230       95.952       58.764     4655.329     9206.733     3453.253        3.275        0.866      219.261       49.905        0.052      343.969       20.453      864.368
10/10/2014  12:04:00       96.494     -101.192       23.728       74.156       86.786       50.879     5499.068     7531.818     2588.690        1.786        0.781      139.824       60.964        0.190      343.983       20.477      864.375
10/10/2014  12:05:00       29.779      -19.721       21.692       54.075       52.700       39.599     2924.087     2777.311     1568.080        0.451        0.363       35.717       30.205        0.715      344.261       20.955      864.363
10/10/2014  12:06:00       68.597      -87.988       -1.351       51.561       63.360       43.069     2658.534     4014.465     1854.945        1.049        0.426      111.568       39.886        0.128      344.041       20.578      864.366
10/10/2014  12:07:00       35.670      -37.548       25.967       38.025       61.844       40.218     1445.908     3824.649     1617.451        0.512        0.344       51.790       42.670        0.679      344.522       21.401      864.361
10/10/2014  12:08:00       -7.450       -0.405       36.730       28.483       38.698       25.264      811.253     1497.573      638.288        0.218        0.147        7.461       13.247        3.152      344.648       21.616      864.351
10/10/2014  12:09:00      114.374       78.960       26.219       54.114       43.844       43.633     2928.331     1922.317     1903.849        1.338        0.338      138.983       23.533        0.029      344.307       21.031      864.345
10/10/2014  12:10:00       44.320       23.637       52.609       52.950       51.277       29.056     2803.651     2629.289      844.245        0.578        0.314       50.229       14.892        0.088      344.608       21.548      864.344
10/10/2014  12:11:00       23.846        3.814       35.068       37.024       34.956       23.213     1370.740     1221.899      538.836        0.247        0.157       24.149       20.501        0.721      344.808       21.888      864.332
10/10/2014  12:12:00        5.120      -13.347       12.766       46.862       51.543       25.612     2196.080     2656.694      655.975        0.294        0.275       14.295       17.213        1.450      344.512       21.384      864.322
10/10/2014  12:13:00       43.978      -61.415       12.951       64.882       91.421       45.720     4209.615     8357.780     2090.339        1.026        0.733       75.537       55.791        0.546      344.775       21.833      864.303
10/10/2014  12:14:00       48.608      -50.646       17.451       39.592       66.745       42.413     1567.510     4454.923     1798.823        0.653        0.391       70.198       35.498        0.256      344.671       21.654      864.288
10/10/2014  12:15:00      108.478       71.259       41.613       70.916       79.212       45.758     5029.041     6274.583     2093.750        1.598        0.670      129.790       21.504        0.027      344.545       21.439      864.276
10/10/2014  12:16:00      124.283       97.064       64.721       69.005       55.696       50.262     4761.709     3102.046     2526.223        1.972        0.519      157.695       32.123        0.041      344.323       21.059      864.274
10/10/2014  12:17:00       19.938      -11.878       23.843       36.920       64.009       41.472     1363.123     4097.161     1719.958        0.414        0.359       23.208       31.128        1.799      344.223       20.890      864.251
10/10/2014  12:18:00       23.157       63.345        3.840       37.020       40.010       33.378     1370.504     1600.807     1114.106        0.432        0.204       67.445       25.201        0.140      344.385       21.167      864.233
10/10/2014  12:19:00      140.411       92.093       22.524       61.699       35.752       33.962     3806.766     1278.234     1153.416        1.747        0.312      167.917       12.627        0.006      344.075       20.635      864.230
10/10/2014  12:20:00       69.990       66.734       32.699       62.746       41.623       43.398     3937.047     1732.459     1883.380        0.899        0.378       96.705       39.246        0.165      344.494       21.351      864.207
10/10/2014  12:21:00       93.055       85.277       56.636       70.832       63.891       42.433     5017.143     4082.048     1800.546        1.502        0.545      126.220       34.429        0.074      344.720       21.739      864.183
10/10/2014  12:22:00       61.452       48.920       63.267       56.174       50.253       57.326     3155.470     2525.392     3286.304        0.957        0.448       78.546       34.748        0.196      344.646       21.612      864.189
10/10/2014  12:23:00       62.324       88.786       92.011       75.868       59.750       65.318     5755.983     3570.086     4266.379        1.691        0.680      108.477       44.477        0.168      344.418       21.222      864.180
10/10/2014  12:24:00       74.759       30.897       76.751       76.878       86.701       59.258     5910.234     7517.142     3511.546        1.468        0.847       80.892       55.559        0.472      344.260       20.953      864.166
10/10/2014  12:25:00       26.297      -22.339       40.558       49.286       83.131       42.291     2429.132     6910.813     1788.507        0.698        0.556       34.504       39.432        1.306      344.664       21.644      864.154
10/10/2014  12:26:00       61.123      -45.799        1.058       55.496       68.584       38.694     3079.766     4703.771     1497.200        0.756        0.464       76.378       28.020        0.135      344.488       21.342      864.152
10/10/2014  12:27:00       89.403       92.976       58.879       54.326       63.843       52.097     2951.278     4075.984     2714.084        1.492        0.487      128.987       38.667        0.090      344.473       21.315      864.148
10/10/2014  12:28:00       63.126       33.561       53.636       51.840       69.295       43.901     2687.399     4801.809     1927.305        0.870        0.471       71.493       28.077        0.154      344.403       21.198      864.129
10/10/2014  12:29:00       70.730       73.592       22.196       40.792       37.019       40.311     1663.956     1370.424     1624.987        0.778        0.233      102.071       22.365        0.048      344.312       21.041      864.102
10/10/2014  12:30:00       91.720       63.685       40.828       88.357       76.910       39.308     7807.034     5915.206     1545.110        1.470        0.763      111.662       26.743        0.057      344.515       21.386      864.080
10/10/2014  12:31:00       76.887        8.122       48.423       78.687       57.679       46.860     6191.605     3326.897     2195.851        1.002        0.586       77.315       25.927        0.112      344.683       21.674      864.054
10/10/2014  12:32:00       42.311       73.984       90.284       55.217       68.212       41.202     3048.892     4652.935     1697.586        1.241        0.470       85.228       37.642        0.195      344.805       21.884      864.030
10/10/2014  12:33:00       10.779        3.841       57.363       31.843       63.276       43.172     1013.962     4003.853     1863.816        0.515        0.344       11.443       45.675       15.932      344.851       21.962      864.015
10/10/2014  12:34:00       80.776      -62.456       36.073       69.119      107.902       64.819     4777.418    11642.893     4201.558        1.617        1.031      102.105       77.250        0.572      344.831       21.928      864.009
10/10/2014  12:35:00       64.995      -90.358       -2.083       38.249       42.723       26.876     1463.003     1825.280      722.313        0.820        0.201      111.305       22.260        0.040      344.371       21.141      864.005
10/10/2014  12:36:00       17.946       17.002       31.711       29.953       43.496       36.278      897.191     1891.892     1316.075        0.286        0.205       24.721       31.954        1.671      344.667       21.649      863.989
10/10/2014  12:37:00       51.765       -0.194       40.215       34.705       78.234       35.289     1204.406     6120.583     1245.314        0.643        0.429       51.766       41.313        0.637      344.979       22.183      863.993
10/10/2014  12:38:00       48.163      -72.620        9.365       50.921       65.045       47.261     2592.946     4230.883     2233.594        0.837        0.453       87.140       30.175        0.120      344.815       21.900      863.995
10/10/2014  12:39:00       75.984      103.752      132.329       82.393       82.380       64.100     6788.645     6786.447     4108.802        2.586        0.884      128.601       66.135        0.264      344.606       21.542      863.975
10/10/2014  12:40:00       97.288       75.412       63.866       79.088       82.863       73.525     6254.957     6866.247     5405.927        1.888        0.926      123.093       59.729        0.235      344.264       20.958      863.975
10/10/2014  12:41:00       87.879      -10.621       38.954       46.104       45.228       36.599     2125.550     2045.561     1339.484        0.743        0.276       88.519       28.740        0.105      344.494       21.353      863.962
10/10/2014  12:42:00       27.346       36.907       52.981       50.509       43.802       31.627     2551.143     1918.631     1000.256        0.519        0.274       45.933       17.522        0.146      344.898       22.044      863.943
10/10/2014  12:43:00       -2.391       17.998       11.025       32.806       43.091       32.913     1076.209     1856.840     1083.289        0.223        0.201       18.156       20.193        1.237      345.379       22.869      863.932
10/10/2014  12:44:00       38.664       43.435       22.447       60.140       41.533       36.388     3616.875     1724.981     1324.062        0.527        0.333       58.151       30.094        0.268      345.027       22.265      863.936
10/10/2014  12:45:00        7.079       59.894       -5.653       55.369       36.928       28.990     3065.733     1363.675      840.440        0.447        0.263       60.310       23.945        0.158      345.072       22.341      863.926
10/10/2014  12:46:00       19.673       46.108      -14.407       41.962       24.442       24.539     1760.808      597.423      602.161        0.284        0.148       50.130       16.610        0.110      344.879       22.011      863.909
10/10/2014  12:47:00        6.327      -11.989        9.459       19.499       24.235       16.883      380.193      587.318      285.035        0.076        0.063       13.556       13.218        0.951      345.192       22.548      863.895
10/10/2014  12:48:00        8.922      -22.543       21.408       26.896       27.729       24.175      723.380      768.883      584.443        0.156        0.104       24.244       12.459        0.264      345.320       22.765      863.879
10/10/2014  12:49:00       20.557        9.403       27.005       28.233       26.789       28.732      797.092      717.636      825.525        0.179        0.117       22.606       17.360        0.590      345.229       22.612      863.871
10/10/2014  12:50:00        0.550       -4.074       11.765       36.484       43.650       37.029     1331.086     1905.340     1371.111        0.238        0.230        4.111       22.824       30.818      344.915       22.072      863.852
10/10/2014  12:51:00       70.216      -60.045       32.515       51.900       84.161       57.134     2693.644     7083.095     3264.245        1.131        0.652       92.389       50.237        0.296      345.116       22.417      863.846
10/10/2014  12:52:00       87.673       53.655       30.166       98.008       62.051       39.110     9605.557     3850.340     1529.580        1.323        0.749      102.788       32.538        0.100      345.296       22.724      863.831
10/10/2014  12:53:00      139.271       79.131       27.570       71.040       50.906       46.140     5046.633     2591.404     2128.882        1.809        0.488      160.182       31.698        0.039      345.064       22.328      863.817
10/10/2014  12:54:00       73.544      113.804      103.979       71.491       62.722       58.530     5110.985     3934.003     3425.772        2.082        0.624      135.499       38.088        0.079      345.202       22.564      863.799
10/10/2014  12:55:00      140.501       86.144       27.602       72.643       43.128       39.123     5276.989     1860.036     1530.612        1.829        0.433      164.806       18.261        0.012      344.690       21.687      863.797
10/10/2014  12:56:00       48.970       59.863       16.734       41.513       47.937       30.023     1723.294     2297.975      901.357        0.559        0.246       77.341       12.961        0.028      345.061       22.324      863.763
10/10/2014  12:57:00       69.700       68.800      104.697       95.047       89.290       73.776     9033.967     7972.641     5442.867        2.150        1.122       97.937       67.883        0.480      345.366       22.844      863.734
10/10/2014  12:58:00       94.271      112.839      105.973      108.714       84.563       79.031    11818.653     7150.859     6245.949        2.903        1.261      147.036       69.854        0.226      345.052       22.304      863.735
10/10/2014  12:59:00      104.898       46.251       42.974       69.666       66.903       48.022     4853.390     4476.078     2306.089        1.331        0.582      114.642       22.919        0.040      344.910       22.064      863.730
10/10/2014  13:00:00       53.194      103.984       75.563       61.991       52.091       49.939     3842.836     2713.469     2493.944        1.420        0.453      116.800       36.812        0.099      345.039       22.286      863.707
10/10/2014  13:01:00      -49.276       30.404      -19.822       29.433       45.805       30.973      866.277     2098.090      959.353        0.383        0.196       57.901       22.368        0.149      344.907       22.058      863.689
10/10/2014  13:02:00       21.184      -44.111       25.368       75.970       76.179       38.190     5771.478     5803.269     1458.445        0.803        0.652       48.934       32.191        0.433      345.390       22.886      863.668
10/10/2014  13:03:00      137.127     -126.663       23.135       66.735      108.321       55.291     4453.591    11733.370     3057.041        2.731        0.962      186.675       67.365        0.130      344.942       22.118      863.652
10/10/2014  13:04:00       74.929      -10.311       90.944      100.203      129.649       62.410    10040.612    16808.821     3894.948        2.236        1.537       75.635       63.850        0.713      345.369       22.848      863.625
10/10/2014  13:05:00       66.252       49.860       71.367       95.996       98.298       63.997     9215.270     9662.444     4095.555        1.747        1.149       82.917       54.860        0.438      345.481       23.040      863.617
10/10/2014  13:06:00       64.474       60.322      114.110       89.863      123.463       99.609     8075.370    15243.099     9921.997        2.702        1.662       88.293      105.807        1.436      345.264       22.669      863.616
10/10/2014  13:07:00       99.818       90.205       51.291       68.010       68.327       63.607     4625.301     4668.589     4045.848        1.703        0.667      134.538       47.369        0.124      344.946       22.125      863.627
10/10/2014  13:08:00       26.706       23.014       72.902      107.862      118.689       70.664    11634.207    14087.017     4993.386        1.863        1.536       35.254       80.206        5.176      345.297       22.725      863.597
10/10/2014  13:09:00      107.572     -123.983       16.221       72.025      151.679       78.221     5187.609    23006.389     6118.526        3.075        1.716      164.145       94.574        0.332      345.223       22.600      863.594
10/10/2014  13:10:00       65.000       -4.202       58.028       70.905       77.269       51.641     5027.468     5970.518     2666.806        1.064        0.683       65.135       50.034        0.590      345.378       22.865      863.593
10/10/2014  13:11:00        1.907       24.008       49.618       37.004       66.171       47.409     1369.271     4378.553     2247.638        0.552        0.400       24.084       38.353        2.536      345.675       23.374      863.569
10/10/2014  13:12:00       40.840       99.396      102.701       70.176       72.047       72.474     4924.608     5190.842     5252.507        1.873        0.768      107.459       61.656        0.329      345.435       22.963      863.547
10/10/2014  13:13:00       30.430      -35.187       34.088       52.319       97.122       53.064     2737.317     9432.779     2815.830        0.915        0.749       46.519       62.567        1.809      345.527       23.120      863.541
10/10/2014  13:14:00       12.461      -74.736       -0.140       64.729       51.291       42.379     4189.836     2630.788     1795.980        0.718        0.431       75.767       25.071        0.109      345.569       23.192      863.523
10/10/2014  13:15:00       43.183      -70.606        7.333       83.228       45.428       36.320     6926.827     2063.706     1319.164        0.861        0.515       82.765       18.913        0.052      345.513       23.098      863.510
10/10/2014  13:16:00      100.025     -108.591        1.288       80.872      120.856       68.958     6540.346    14606.138     4755.165        2.385        1.295      147.638       70.939        0.231      345.425       22.944      863.497
10/10/2014  13:17:00       74.662     -133.799      -25.355       95.621       93.950       52.156     9143.410     8826.550     2720.274        2.240        1.035      153.220       61.103        0.159      345.009       22.232      863.507
10/10/2014  13:18:00       11.672      -94.571       15.181       40.711       43.475       39.526     1657.424     1890.097     1562.285        0.721        0.255       95.289       23.944        0.063      345.317       22.762      863.510
10/10/2014  13:19:00       74.637       29.790       23.413       79.934       59.394       48.311     6389.518     3527.687     2333.916        0.963        0.613       80.362       11.601        0.021      345.540       23.144      863.510
10/10/2014  13:20:00       96.591       62.935       36.524      107.918       62.785       51.003    11646.374     3941.998     2601.326        1.640        0.909      115.285       38.137        0.109      345.658       23.345      863.497
10/10/2014  13:21:00      196.479       88.497       46.128      138.852      100.142       96.167    19279.818    10028.518     9248.134        4.355        1.928      215.489       87.648        0.165      345.168       22.502      863.471
10/10/2014  13:22:00      158.884      110.594       37.879       68.153       47.309       50.717     4644.830     2238.118     2572.200        2.418        0.473      193.585       47.883        0.061      344.861       21.980      863.498
10/10/2014  13:23:00       95.423       59.467       41.519       57.272       55.354       53.023     3280.029     3064.076     2811.425        1.176        0.458      112.436       40.087        0.127      345.056       22.315      863.495
10/10/2014  13:24:00       70.186       75.373       52.715       35.788       32.700       43.121     1280.803     1069.293     1859.407        0.880        0.210      102.991       15.017        0.021      345.284       22.705      863.460
10/10/2014  13:25:00        8.712        4.495       28.156       23.924       63.039       27.195      572.365     3973.860      739.588        0.309        0.264        9.803       33.464       11.653      345.343       22.805      863.430
10/10/2014  13:26:00       18.310       23.017       38.257       36.652       47.649       28.581     1343.373     2270.398      816.869        0.338        0.222       29.412       21.015        0.510      345.519       23.107      863.397
10/10/2014  13:27:00      -16.834        9.913       46.339       31.557       43.454       34.885      995.853     1888.254     1216.990        0.331        0.205       19.536       18.450        0.892      345.817       23.620      863.380
10/10/2014  13:28:00       44.773       88.677      101.750       45.140       57.503       34.173     2037.596     3306.631     1167.825        1.337        0.326       99.339       37.813        0.145      345.375       22.860      863.358
10/10/2014  13:29:00       57.311       36.219        1.401       67.206       60.646       42.144     4516.671     3677.997     1776.127        0.728        0.499       67.796       46.390        0.468      345.068       22.335      863.349
10/10/2014  13:30:00      -73.972      -13.213        3.794       31.531       44.258       22.886      994.200     1958.751      523.773        0.457        0.174       75.143       12.848        0.029      345.501       23.077      863.316
10/10/2014  13:31:00      -34.922      -54.502        7.712       47.725       45.781       26.974     2277.679     2095.906      727.615        0.467        0.255       64.730       12.511        0.037      345.447       22.982      863.281
10/10/2014  13:32:00      -57.772      -28.849       -3.682       33.977       21.678       17.786     1154.456      469.933      316.345        0.306        0.097       64.575        9.719        0.023      345.323       22.772      863.251
10/10/2014  13:33:00      -19.188      -64.123       -4.656       29.290       61.360       28.192      857.903     3765.035      794.804        0.496        0.271       66.933       25.719        0.148      345.724       23.460      863.220
10/10/2014  13:34:00       23.328      -68.604        6.312       51.936       74.602       45.083     2697.313     5565.398     2032.519        0.779        0.515       72.462       52.119        0.517      345.484       23.048      863.207
10/10/2014  13:35:00       -2.204       11.823       53.508       24.283       32.998       29.832      589.671     1088.876      889.947        0.279        0.128       12.027       22.868        3.615      346.137       24.168      863.206
10/10/2014  13:36:00       12.708       26.560       37.037       40.796       40.087       33.407     1664.309     1606.986     1116.004        0.331        0.219       29.443       24.138        0.672      345.953       23.852      863.200
10/10/2014  13:37:00        8.715      -67.646        9.609       25.919       57.432       24.535      671.785     3298.442      601.976        0.466        0.229       68.205       22.691        0.111      345.609       23.262      863.199
10/10/2014  13:38:00       63.054       46.456       35.543       51.911       44.980       33.113     2694.721     2023.235     1096.486        0.660        0.291       78.320       21.770        0.077      345.782       23.559      863.187
10/10/2014  13:39:00       43.916       38.684       60.772       66.727       89.624       59.631     4452.429     8032.389     3555.898        1.158        0.802       58.525       56.605        0.935      345.881       23.727      863.170
10/10/2014  13:40:00      105.069       78.844       47.071       86.650       74.953       54.523     7508.154     5617.951     2972.741        1.778        0.805      131.362       45.213        0.118      345.793       23.577      863.165
10/10/2014  13:41:00       61.652       45.348       94.270       72.412       94.948       51.794     5243.451     9015.159     2682.604        1.584        0.847       76.534       51.890        0.460      345.870       23.710      863.160
10/10/2014  13:42:00      106.244       64.482       31.474       81.702       76.197       50.956     6675.138     5805.991     2596.546        1.575        0.754      124.281       36.504        0.086      345.619       23.279      863.156
10/10/2014  13:43:00      184.065       89.448       44.376      101.628       93.148       50.574    10328.347     8676.475     2557.738        3.270        1.078      204.649       19.597        0.009      345.703       23.421      863.152
10/10/2014  13:44:00      138.997       99.181       56.400       86.407       64.584       65.705     7466.205     4171.074     4317.134        2.414        0.798      170.754       49.905        0.085      345.457       23.001      863.161
10/10/2014  13:45:00      183.375      136.740       24.936       82.987       84.973       63.876     6886.796     7220.400     4080.101        3.556        0.909      228.745       40.187        0.031      345.324       22.770      863.152
10/10/2014  13:46:00      116.611      189.853      -11.768       85.840      107.940       82.160     7368.591    11651.143     6750.284        3.777        1.289      222.805       68.572        0.095      345.261       22.660      863.145
10/10/2014  13:47:00       26.185      101.546      -13.317       45.523       60.605       36.195     2072.307     3673.003     1310.089        0.911        0.353      104.867       38.267        0.133      345.267       22.675      863.147
10/10/2014  13:48:00       85.499       40.423       41.747       88.356       50.806       52.085     7806.714     2581.296     2712.895        1.189        0.655       94.573       45.252        0.229      345.494       23.065      863.131
10/10/2014  13:49:00      147.151      122.827      135.449      113.703      104.521       70.731    12928.450    10924.619     5002.829        4.197        1.443      191.677       67.894        0.125      345.481       23.038      863.115
10/10/2014  13:50:00      133.090       77.125       82.441       79.811       90.882       92.004     6369.730     8259.556     8464.773        2.677        1.155      153.822       85.663        0.310      345.254       22.651      863.124
10/10/2014  13:51:00       76.340      -10.642        8.710       62.580       32.287       35.490     3916.194     1042.420     1259.558        0.612        0.311       77.078       22.295        0.084      345.520       23.109      863.122
10/10/2014  13:52:00       95.652       38.376        9.473       60.936       68.996       49.160     3713.203     4760.423     2416.689        1.080        0.545      103.064       21.630        0.044      345.471       23.025      863.082
10/10/2014  13:53:00        6.274       19.083       26.323       48.267       47.122       37.717     2329.666     2220.468     1422.594        0.353        0.299       20.088       23.201        1.334      345.980       23.899      863.073
10/10/2014  13:54:00       64.014       65.551       41.606       34.395       55.149       48.400     1183.036     3041.454     2342.566        0.835        0.328       91.623       22.281        0.059      345.738       23.483      863.082
10/10/2014  13:55:00       23.107       48.960       -3.431       52.041       46.517       30.087     2708.269     2163.876      905.224        0.436        0.289       54.139       21.923        0.164      345.426       22.949      863.062
10/10/2014  13:56:00      141.044       89.589       22.832       37.662       53.228       40.237     1418.454     2833.189     1618.990        1.715        0.294      167.092       20.590        0.015      345.391       22.887      863.048
10/10/2014  13:57:00       94.676        0.433        4.948       43.144      110.936       33.741     1861.377    12306.751     1138.483        1.214        0.765       94.677       48.683        0.264      345.453       22.993      863.034
10/10/2014  13:58:00      162.305       83.707       70.111      102.927      160.116       84.936    10593.996    25637.191     7214.151        4.085        2.172      182.619       83.392        0.209      345.689       23.397      863.006
10/10/2014  13:59:00      121.068      133.770       59.162      118.086       96.787       82.851    13944.349     9367.768     6864.311        3.311        1.509      180.421       66.274        0.135      345.758       23.515      863.008
10/10/2014  14:00:00      111.440      -32.008       24.142       84.695      112.491       43.198     7173.253    12654.185     1866.070        1.786        1.085      115.945       33.377        0.083      345.768       23.533      863.002
10/10/2014  14:01:00      141.493     -168.482      -37.369       63.307       62.621       38.484     4007.727     3921.444     1481.026        2.961        0.471      220.015       19.089        0.008      345.399       22.898      862.981
10/10/2014  14:02:00      111.709       34.734       59.590      108.157      153.494       81.671    11697.994    23560.561     6670.146        2.958        2.096      116.985       79.782        0.465      345.718       23.446      862.981
10/10/2014  14:03:00      180.610      126.278       38.765       93.851       81.774       60.973     8808.083     6687.019     3717.670        3.464        0.961      220.377       36.529        0.027      345.748       23.498      862.991
10/10/2014  14:04:00      197.158       86.356        0.714      108.950       69.638       55.215    11870.139     4849.520     3048.664        3.305        0.988      215.241       30.044        0.019      345.294       22.719      863.014
10/10/2014  14:05:00       56.746       38.698       27.673       64.140       46.806       28.957     4113.933     2190.818      838.510        0.631        0.357       68.685       14.074        0.042      345.672       23.370      863.014
10/10/2014  14:06:00       36.523       33.958       24.298       41.230       38.577       28.892     1699.904     1488.190      834.776        0.355        0.201       49.870       14.261        0.082      345.795       23.581      862.997
10/10/2014  14:07:00       88.283       91.992       15.179       52.586       37.361       45.284     2765.328     1395.809     2050.674        1.135        0.311      127.500       22.603        0.031      345.491       23.058      862.997
10/10/2014  14:08:00      253.562      141.177       38.148       73.148       58.107       65.871     5350.630     3376.445     4339.042        4.937        0.653      290.215       35.586        0.015      345.530       23.122      862.985
10/10/2014  14:09:00      187.754      135.983       41.630       77.194       46.671       63.907     5958.885     2178.229     4084.164        3.385        0.611      231.825       36.085        0.024      345.407       22.911      862.997
10/10/2014  14:10:00       94.281       45.354       -2.073       59.081       43.040       48.324     3490.623     1852.460     2335.212        0.931        0.384      104.622       39.766        0.144      345.463       23.012      862.997
10/10/2014  14:11:00      -70.070      -54.343       -2.093       70.228       53.815       38.285     4931.975     2896.013     1465.747        0.858        0.465       88.673       27.012        0.093      345.745       23.494      862.948
10/10/2014  14:12:00     -150.144      -65.854       -8.890       53.129       45.693       23.221     2822.733     2087.810      539.197        1.620        0.272      163.951       15.173        0.009      345.677       23.378      862.908
10/10/2014  14:13:00      -75.914      -22.799        6.168       46.072       33.817       24.537     2122.634     1143.579      602.079        0.509        0.193       79.264       22.537        0.081      345.919       23.794      862.894
10/10/2014  14:14:00      -89.813      -51.941       -7.594       30.005       27.573       27.625      900.277      760.295      763.153        0.662        0.121      103.751       24.613        0.056      345.424       22.943      862.877
10/10/2014  14:15:00      -75.203      -15.518       -7.205       35.569       20.757       17.363     1265.152      430.864      301.465        0.397        0.100       76.788       14.369        0.035      345.491       23.059      862.881
10/10/2014  14:16:00      -24.024       22.859        6.544       30.702       24.762       22.309      942.642      613.137      497.684        0.160        0.103       33.162       21.096        0.405      345.839       23.657      862.893
10/10/2014  14:17:00        3.025      223.674      -27.605       71.129      102.782       40.437     5059.399    10564.139     1635.134        3.403        0.863      223.694       44.590        0.040      345.542       23.144      862.889
10/10/2014  14:18:00      -38.003       92.798      -19.065       92.987       59.112       33.848     8646.639     3494.235     1145.704        1.185        0.664      100.278       50.865        0.257      345.481       23.041      862.892
10/10/2014  14:19:00      -28.181       -3.052      -23.398       59.599       55.383       30.931     3551.999     3067.250      956.704        0.446        0.379       28.346       14.151        0.249      345.816       23.617      862.883
10/10/2014  14:20:00       39.220      -86.684      -17.682       41.053       25.203       19.603     1685.388      635.193      384.274        0.603        0.135       95.144       14.058        0.022      345.367       22.845      862.867
10/10/2014  14:21:00       59.806       25.258        2.197       38.258       75.167       27.360     1463.696     5650.093      748.593        0.604        0.393       64.921       17.183        0.070      345.531       23.125      862.861
10/10/2014  14:22:00       83.037       70.549       14.183      101.743       37.322       45.373    10351.726     1392.940     2058.712        1.294        0.690      108.960       37.924        0.121      345.708       23.431      862.849
10/10/2014  14:23:00      128.538       93.366       42.450       58.928       59.576       60.760     3472.504     3549.303     3691.792        1.888        0.536      158.869       48.078        0.092      345.462       23.008      862.833
10/10/2014  14:24:00       34.245      -53.530        5.587       38.505       50.348       29.153     1482.633     2534.893      849.899        0.447        0.243       63.547       16.196        0.065      345.588       23.227      862.828
10/10/2014  14:25:00       20.546       31.793       58.831       47.132       51.560       38.678     2221.435     2658.412     1496.014        0.563        0.319       37.854       37.073        0.959      346.084       24.076      862.819
10/10/2014  14:26:00       90.152       68.970       39.883       55.816       47.246       54.943     3115.457     2232.224     3018.722        1.142        0.418      113.509       44.860        0.156      345.578       23.209      862.815
10/10/2014  14:27:00      117.786       49.239        3.377       37.836       64.202       28.835     1431.547     4121.953      831.437        1.135        0.319      127.664       23.506        0.034      345.338       22.796      862.820
10/10/2014  14:28:00       63.822       36.505       13.729       35.058       42.143       39.126     1229.071     1776.034     1530.820        0.506        0.227       73.524       21.442        0.085      345.502       23.078      862.816
10/10/2014  14:29:00       89.321       -5.886       -1.199       39.680       52.654       39.609     1574.493     2772.414     1568.906        0.696        0.296       89.514       24.725        0.076      345.473       23.028      862.819
10/10/2014  14:30:00       38.577       36.084       13.243       32.610       25.829       18.011     1063.443      667.123      324.390        0.251        0.103       52.823        5.540        0.011      345.646       23.325      862.786
10/10/2014  14:31:00       52.439      -26.056        1.339       62.295       77.887       28.193     3880.627     6066.346      794.825        0.708        0.537       58.556       29.253        0.250      345.729       23.467      862.773
10/10/2014  14:32:00       71.789      -77.168       10.805       36.498       35.267       27.381     1332.110     1243.731      749.739        0.727        0.166      105.397       18.602        0.031      345.602       23.250      862.758
10/10/2014  14:33:00       43.042      -38.526       22.583       47.773       37.404       29.816     2282.219     1399.060      888.997        0.421        0.229       57.765       26.480        0.210      345.900       23.759      862.754
10/10/2014  14:34:00       47.854       73.131       87.473       67.953       84.131       62.258     4617.671     7077.956     3876.115        1.543        0.779       87.396       56.143        0.413      345.975       23.890      862.727
10/10/2014  14:35:00       76.935       45.743       41.665       68.582       65.753       56.456     4703.509     4323.422     3187.291        1.098        0.611       89.507       43.104        0.232      346.043       24.006      862.741
10/10/2014  14:36:00      158.928      104.587       64.108       97.761       95.880       72.497     9557.117     9193.010     5255.883        3.215        1.200      190.254       59.442        0.098      345.861       23.692      862.749
10/10/2014  14:37:00      134.641       87.753       38.863       77.627       98.150       65.137     6025.942     9633.428     4242.833        2.362        0.995      160.714       56.661        0.124      345.658       23.345      862.760
10/10/2014  14:38:00       24.896      -41.431        2.942       28.940       55.964       38.444      837.507     3131.972     1477.944        0.390        0.272       48.336       29.580        0.375      345.610       23.263      862.734
10/10/2014  14:39:00      107.997      107.708       88.175       92.227       79.569       65.498     8505.876     6331.303     4289.989        2.508        0.956      152.527       52.852        0.120      345.775       23.544      862.724
10/10/2014  14:40:00      179.483      102.112       35.080       79.092       73.837       59.897     6255.615     5451.942     3587.624        2.958        0.765      206.497       42.962        0.043      345.598       23.241      862.721
10/10/2014  14:41:00      162.280       92.332       55.686      101.271       69.593       55.887    10255.746     4843.221     3123.340        2.809        0.911      186.708       44.001        0.056      345.859       23.689      862.715
10/10/2014  14:42:00        5.887      -14.094        5.858       33.853       40.381       30.685     1146.012     1630.619      941.589        0.199        0.186       15.274       26.521        3.015      345.765       23.529      862.706
10/10/2014  14:43:00       -0.193        0.273       19.676       24.326       20.933       20.020      591.771      438.201      400.817        0.091        0.072        0.335       19.239     3299.852      346.315       24.475      862.692
10/10/2014  14:44:00       36.085       68.960       22.275       29.314       34.006       27.510      859.335     1156.435      756.795        0.466        0.139       77.830       13.946        0.032      345.900       23.762      862.693
10/10/2014  14:45:00       57.312       61.144        1.715       49.289       47.285       26.598     2429.443     2235.892      707.433        0.620        0.269       83.805       27.140        0.105      345.897       23.756      862.698
10/10/2014  14:46:00       49.435       94.358       -6.992       63.292       92.841       47.671     4005.926     8619.519     2272.539        1.314        0.745      106.523       54.362        0.260      345.855       23.683      862.696
10/10/2014  14:47:00      216.620       78.638       24.571      104.274       77.819       59.102    10873.028     6055.787     3493.047        3.706        1.021      230.453       45.669        0.039      345.833       23.643      862.682
10/10/2014  14:48:00      153.230      114.421       60.383       92.037       67.515       62.528     8470.721     4558.340     3909.744        2.858        0.847      191.238       38.849        0.041      345.865       23.699      862.700
10/10/2014  14:49:00      156.230      223.792       -8.495      107.086       94.739       68.592    11467.366     8975.537     4704.912        4.985        1.257      272.930       51.451        0.036      345.857       23.686      862.725
10/10/2014  14:50:00      140.283      143.654       -0.186       88.255       80.256       60.855     7788.857     6441.039     3703.303        2.912        0.897      200.789       49.372        0.060      345.863       23.696      862.733
10/10/2014  14:51:00      121.983       81.659       48.157       70.717       77.265       59.269     5000.926     5969.881     3512.816        1.917        0.724      146.792       34.044        0.054      346.094       24.092      862.712
10/10/2014  14:52:00       21.711      112.682        3.475       61.969      116.944       45.262     3840.151    13675.913     2048.693        1.637        0.978      114.755       42.657        0.138      346.107       24.115      862.736
10/10/2014  14:53:00       43.038      116.657       -8.232       62.820       57.813       32.632     3946.384     3342.336     1064.848        1.194        0.418      124.343       33.193        0.071      345.848       23.670      862.736
10/10/2014  14:54:00      -21.162      169.493      -23.596       48.288       82.210       32.268     2331.686     6758.442     1041.207        1.993        0.507      170.809       39.765        0.054      345.859       23.688      862.738
10/10/2014  14:55:00      -30.900      120.285      -15.353       51.500      104.726       35.844     2652.267    10967.523     1284.826        1.528        0.745      124.190       43.374        0.122      345.925       23.806      862.713
10/10/2014  14:56:00       36.509      289.391      -38.476       61.234       80.615       48.813     3749.651     6498.778     2382.662        4.959        0.632      291.685       36.080        0.015      345.756       23.511      862.694
10/10/2014  14:57:00       23.752      270.457      -33.993       99.339       76.733       51.246     9868.324     5887.879     2626.120        4.662        0.919      271.498       47.384        0.030      345.739       23.481      862.686
10/10/2014  14:58:00     -127.027      154.834      -31.074       62.708       69.450       40.115     3932.266     4823.238     1609.190        2.572        0.518      200.274       31.232        0.024      346.002       23.932      862.692
10/10/2014  14:59:00     -168.789       62.632      -29.307       41.485       62.315       32.252     1721.015     3883.157     1040.185        1.996        0.332      180.035       30.981        0.030      345.892       23.747      862.692
10/10/2014  15:00:00     -174.750       30.392      -25.644       48.538       46.400       29.072     2355.922     2152.956      845.175        1.874        0.268      177.373       23.139        0.017      345.934       23.818      862.687
10/10/2014  15:01:00       30.758       42.562      -18.271       59.086       33.273       25.582     3491.154     1107.090      654.418        0.417        0.263       52.513       34.498        0.432      345.707       23.431      862.672
10/10/2014  15:02:00       66.505       78.044        1.976       42.237       42.489       26.581     1783.989     1805.353      706.536        0.741        0.215      102.537       21.609        0.044      345.771       23.539      862.645
10/10/2014  15:03:00      -55.712      172.164      -25.446       66.703      106.261       40.364     4449.350    11291.373     1629.228        2.538        0.868      180.954       21.283        0.014      345.779       23.551      862.659
10/10/2014  15:04:00      -32.421       73.107      -26.589       56.081       39.399       25.244     3145.034     1552.255      637.253        0.622        0.267       79.974       11.571        0.021      345.888       23.741      862.662
10/10/2014  15:05:00      -31.291       48.820        4.625       32.941       50.292       25.090     1085.122     2529.294      629.488        0.381        0.212       57.987       25.951        0.200      346.163       24.213      862.649
10/10/2014  15:06:00       43.605      131.139      -11.719      113.507       79.296       38.433    12883.753     6287.791     1477.109        1.994        1.032      138.198       45.496        0.108      346.103       24.108      862.648
10/10/2014  15:07:00      141.903       83.606       19.306       41.092       40.827       39.670     1688.591     1666.827     1573.706        1.621        0.246      164.702       23.380        0.020      346.003       23.938      862.637
10/10/2014  15:08:00       47.758       74.513       15.266       65.679       42.009       38.472     4313.787     1764.729     1480.099        0.781        0.378       88.505       33.339        0.142      346.175       24.234      862.616
10/10/2014  15:09:00       61.646      135.689       24.826      136.131       99.674       72.932    18531.568     9934.955     5319.105        2.830        1.689      149.036       60.873        0.167      346.172       24.227      862.599
10/10/2014  15:10:00      208.074      125.451       64.932       94.453       70.264       55.030     8921.311     4937.061     3028.345        4.006        0.844      242.966       34.312        0.020      345.858       23.686      862.615
10/10/2014  15:11:00       80.611      124.501        7.836       93.787       55.085       44.471     8796.058     3034.388     1977.697        1.793        0.690      148.319       29.655        0.040      345.788       23.569      862.636
10/10/2014  15:12:00       59.694       20.792        7.267       43.731       32.122       25.331     1912.440     1031.836      641.667        0.382        0.179       63.211       22.262        0.124      345.940       23.831      862.632
10/10/2014  15:13:00       10.768      113.688      -12.538       36.769       57.524       27.234     1351.967     3309.063      741.709        0.930        0.270      114.197       20.999        0.034      345.991       23.917      862.617
10/10/2014  15:14:00       49.370       82.455        9.393       67.100       57.491       39.225     4502.443     3305.174     1538.629        0.933        0.467       96.105       31.696        0.109      345.944       23.836      862.615
10/10/2014  15:15:00       16.279      -23.882        7.453       34.083       52.670       35.888     1161.666     2774.109     1287.948        0.306        0.261       28.902       30.192        1.091      345.992       23.919      862.606
10/10/2014  15:16:00       36.177       -8.417       28.838       29.970       56.806       27.988      898.177     3226.957      783.333        0.356        0.245       37.143       23.055        0.385      346.153       24.195      862.594
10/10/2014  15:17:00       33.603      -99.173       -9.116       33.547       51.600       21.778     1125.393     2662.610      474.285        0.765        0.213      104.711       23.670        0.051      346.132       24.159      862.592
10/10/2014  15:18:00       40.956      -30.190       37.700       46.330       52.855       25.727     2146.464     2793.689      661.892        0.481        0.280       50.881       23.068        0.206      346.116       24.134      862.579
10/10/2014  15:19:00       19.584      -66.453        9.002       40.526       38.418       38.922     1642.379     1475.952     1514.917        0.476        0.232       69.279       27.720        0.160      346.294       24.438      862.574
10/10/2014  15:20:00      -87.842      -55.322        3.608       70.064       63.977       32.524     4908.947     4093.085     1057.795        1.042        0.503      103.811       35.746        0.119      346.216       24.303      862.574
10/10/2014  15:21:00     -119.445      -40.399      -15.561       51.173       43.457       23.872     2618.690     1888.543      569.891        1.061        0.254      126.092       17.036        0.018      345.932       23.816      862.581
10/10/2014  15:22:00     -131.207      -11.981       -4.431       61.206       34.897       26.169     3746.122     1217.791      684.807        1.151        0.282      131.753       24.577        0.035      346.268       24.392      862.584
10/10/2014  15:23:00      -17.034       83.642       -2.729       61.585       63.848       29.263     3792.672     4076.525      856.311        0.801        0.436       85.359       26.123        0.094      346.292       24.434      862.582
10/10/2014  15:24:00       63.774      145.535      -13.504       70.347       65.672       36.719     4948.736     4312.801     1348.260        1.802        0.530      158.895       27.659        0.030      346.128       24.152      862.579
10/10/2014  15:25:00       15.440      168.693      -15.112       93.633       88.680       49.911     8767.149     7864.214     2491.105        2.402        0.956      169.398       59.865        0.125      346.032       23.984      862.569
10/10/2014  15:26:00       17.992      252.069      -39.172       84.597       98.785       38.599     7156.651     9758.485     1489.891        4.190        0.920      252.710       41.068        0.026      345.932       23.813      862.570
10/10/2014  15:27:00       14.154      182.603      -24.836       62.573       99.135       44.114     3915.327     9827.773     1946.045        2.492        0.784      183.151       50.584        0.076      345.862       23.694      862.568
10/10/2014  15:28:00     -116.768      268.783      -37.849      105.019      123.132       43.075    11029.079    15161.567     1855.460        5.767        1.402      293.051       38.459        0.017      345.990       23.911      862.557
10/10/2014  15:29:00     -136.621      134.243      -34.706       53.777       60.066       32.532     2892.011     3607.984     1058.305        2.272        0.378      191.537       31.787        0.028      345.954       23.853      862.581
10/10/2014  15:30:00      -85.527       91.994      -21.358       73.236       61.386       40.001     5363.484     3768.198     1600.081        1.348        0.537      125.610       41.987        0.112      346.136       24.167      862.585
10/10/2014  15:31:00       35.515      121.264      -11.253       57.915       59.421       29.265     3354.159     3530.829      856.414        1.192        0.387      126.358       23.288        0.034      346.053       24.023      862.590
10/10/2014  15:32:00      197.539      128.446       16.480       61.845       46.894       51.432     3824.776     2199.010     2645.216        3.223        0.433      235.627       26.758        0.013      345.935       23.818      862.577
10/10/2014  15:33:00       79.196      111.141        5.218       76.370       65.094       53.191     5832.383     4237.258     2829.249        1.577        0.645      136.471       44.851        0.108      346.000       23.932      862.575
10/10/2014  15:34:00      105.862      102.112       14.857       74.451       60.844       65.037     5542.918     3701.972     4229.808        1.766        0.674      147.083       48.281        0.108      345.954       23.852      862.561
10/10/2014  15:35:00       79.087      119.549      -21.685       46.690       44.949       32.591     2179.970     2020.457     1062.184        1.314        0.263      143.341       27.741        0.037      345.864       23.700      862.567
10/10/2014  15:36:00       54.066       58.092       15.624       77.103       49.581       35.673     5944.850     2458.240     1272.531        0.811        0.484       79.358       31.806        0.161      346.094       24.094      862.573
10/10/2014  15:37:00      -48.528      297.537      -42.231       62.910       72.311       43.003     3957.664     5228.823     1849.301        5.185        0.552      301.469       36.926        0.015      346.001       23.930      862.619
10/10/2014  15:38:00      -50.673      212.646      -33.764       68.586       77.517       33.502     4704.048     6008.863     1122.354        3.038        0.592      218.601       29.360        0.018      345.805       23.596      862.631
10/10/2014  15:39:00      -84.185      112.056      -29.930       44.628       55.193       27.120     1991.672     3046.295      735.492        1.316        0.289      140.156       16.371        0.014      345.932       23.817      862.595
10/10/2014  15:40:00        3.771       98.371      -21.276       23.552       35.440       24.249      554.686     1255.976      588.009        0.627        0.120       98.443       21.699        0.049      345.834       23.648      862.551
10/10/2014  15:41:00      -13.335       85.637        7.316       30.513       43.991       28.120      931.023     1935.171      790.737        0.561        0.183       86.669       25.829        0.089      346.069       24.052      862.525
10/10/2014  15:42:00       67.686       99.980        6.486       52.370       59.216       36.220     2742.649     3506.512     1311.875        1.109        0.378      120.737       30.533        0.064      346.102       24.107      862.499
10/10/2014  15:43:00        4.418       54.364        0.479       46.752       59.108       31.760     2185.731     3493.791     1008.669        0.483        0.334       54.543       25.822        0.224      346.181       24.245      862.491
10/10/2014  15:44:00        0.016      -44.148       -7.075       49.666       75.174       30.357     2466.697     5651.177      921.569        0.552        0.452       44.148       30.944        0.491      346.348       24.529      862.489
10/10/2014  15:45:00       -0.226      -82.986       -2.773       33.136       47.983       31.112     1097.966     2302.368      967.985        0.563        0.218       82.987       26.580        0.103      346.353       24.539      862.486
10/10/2014  15:46:00       28.390      -44.916       14.272       26.207       59.237       27.002      686.800     3509.027      729.084        0.398        0.246       53.137       25.343        0.227      346.320       24.484      862.484
10/10/2014  15:47:00       43.767       -1.818       32.068       29.685       41.383       29.004      881.190     1712.559      841.210        0.319        0.172       43.805       19.932        0.207      346.163       24.213      862.482
10/10/2014  15:48:00       40.739       44.229       52.828       36.310       27.483       35.826     1318.389      755.319     1283.532        0.488        0.168       60.132       15.241        0.064      346.137       24.169      862.482
10/10/2014  15:49:00       32.401        2.134       -7.033       38.470       50.106       36.263     1479.934     2510.625     1315.022        0.320        0.265       32.471       40.595        1.563      346.263       24.385      862.485
10/10/2014  15:50:00      -20.488       19.278      -11.664       25.495       23.032       18.197      649.976      530.453      331.123        0.122        0.076       28.132       11.330        0.162      346.414       24.645      862.485
10/10/2014  15:51:00      -38.904      172.304      -32.995       38.250       70.559       21.452     1463.050     4978.567      460.199        1.960        0.345      176.641       25.030        0.020      346.006       23.943      862.502
10/10/2014  15:52:00      -10.132      132.125      -14.627       68.522       81.094       39.482     4695.272     6576.174     1558.853        1.530        0.642      132.513       39.733        0.090      346.222       24.314      862.498
10/10/2014  15:53:00      -16.705      185.015      -30.595       39.991       81.418       34.302     1599.258     6628.830     1176.639        2.242        0.470      185.768       34.844        0.035      346.198       24.271      862.504
10/10/2014  15:54:00      -15.030      226.904      -27.214      101.018      130.897       53.941    10204.626    17133.928     2909.602        4.134        1.512      227.401       58.472        0.066      346.248       24.357      862.482
10/10/2014  15:55:00      133.779      172.886        8.609      121.003      119.184       63.255    14641.758    14204.778     4001.137        4.035        1.642      218.601       65.161        0.089      346.091       24.086      862.497
10/10/2014  15:56:00       82.025      145.395       -0.489       74.821       89.456       66.045     5598.236     8002.392     4361.961        2.291        0.898      166.936       61.053        0.134      346.062       24.037      862.511
10/10/2014  15:57:00      122.469       95.283       14.148       68.428       54.935       56.877     4682.451     3017.808     3234.961        1.760        0.547      155.169       30.015        0.037      346.016       23.957      862.508
10/10/2014  15:58:00        5.212      150.007      -14.815       86.951       93.121       35.631     7560.438     8671.577     1269.545        2.012        0.875      150.097       50.124        0.112      346.026       23.977      862.510
10/10/2014  15:59:00      -22.450      199.983      -31.975       39.685       50.675       19.798     1574.875     2567.965      391.954        2.303        0.227      201.239       15.860        0.006      345.929       23.809      862.509
10/10/2014  16:00:00      -14.332      122.141      -19.643       25.898       34.231       22.142      670.683     1171.729      490.254        0.892        0.117      122.979       19.821        0.026      345.965       23.872      862.507
10/10/2014  16:01:00       49.990       74.668        3.866       49.795       52.974       33.949     2479.577     2806.284     1152.559        0.726        0.322       89.857       29.655        0.109      346.096       24.096      862.501
10/10/2014  16:02:00      -30.494      205.601      -32.040       41.134       65.612       30.327     1692.016     4304.944      919.724        2.557        0.346      207.850       26.191        0.016      345.981       23.897      862.515
10/10/2014  16:03:00      -48.338      190.486      -25.443       30.352       81.525       31.217      921.262     6646.351      974.509        2.390        0.427      196.524       40.529        0.043      345.942       23.830      862.521
10/10/2014  16:04:00      -67.367       44.782      -14.058       36.845       33.429       24.049     1357.570     1117.499      578.365        0.490        0.153       80.893        8.330        0.011      346.275       24.405      862.513
10/10/2014  16:05:00       -8.002       51.684        9.641       34.987       25.041       20.326     1224.091      627.066      413.154        0.255        0.113       52.299       18.344        0.123      346.100       24.105      862.498
10/10/2014  16:06:00       33.666       25.740        3.140       42.554       27.572       24.183     1810.852      760.213      584.832        0.248        0.158       42.378       17.739        0.175      346.112       24.125      862.481
10/10/2014  16:07:00       37.889       33.269       39.236       42.105       37.055       29.144     1772.825     1373.087      849.361        0.404        0.200       50.422       25.301        0.252      346.177       24.238      862.457
10/10/2014  16:08:00       26.718       35.322       51.196       52.928       45.520       34.118     2801.346     2072.041     1164.032        0.531        0.302       44.289       33.854        0.584      346.238       24.341      862.444
10/10/2014  16:09:00        4.443       40.962       57.215       33.203       33.414       27.584     1102.419     1116.488      760.883        0.397        0.149       41.202       21.461        0.271      346.278       24.410      862.435
10/10/2014  16:10:00       12.597       42.409       67.826       51.896       54.913       27.663     2693.220     3015.426      765.220        0.651        0.324       44.240       28.730        0.422      346.340       24.517      862.438
10/10/2014  16:11:00       35.937       38.033       21.226       26.074       18.630       23.944      679.855      347.059      573.325        0.239        0.080       52.326       13.888        0.070      346.110       24.122      862.445
10/10/2014  16:12:00       25.660       44.781       -9.200       20.967       16.973       22.341      439.613      288.083      499.119        0.199        0.061       51.612       14.296        0.077      345.981       23.899      862.431
10/10/2014  16:13:00       38.376       57.757       16.183       23.727       17.345       24.393      562.960      300.840      595.042        0.326        0.073       69.344       18.009        0.067      346.026       23.976      862.429
10/10/2014  16:14:00       45.648       50.311       17.425       20.522       21.949       21.638      421.151      481.765      468.192        0.314        0.069       67.934        8.874        0.017      346.015       23.960      862.433
10/10/2014  16:15:00       35.664       88.677      -11.908       42.674       33.691       28.342     1821.084     1135.075      803.291        0.652        0.188       95.580       23.359        0.060      346.010       23.951      862.444
10/10/2014  16:16:00       -5.355       97.226      -20.788       25.215       48.840       19.899      635.803     2385.373      395.954        0.666        0.171       97.373       22.169        0.052      345.949       23.846      862.443
10/10/2014  16:17:00        4.290      102.101      -19.040       43.530       44.769       21.008     1894.822     2004.301      441.320        0.757        0.217      102.191       14.396        0.020      346.109       24.120      862.444
10/10/2014  16:18:00       47.875       93.781        0.427       65.589       43.590       33.734     4301.914     1900.126     1137.970        0.921        0.367      105.294       26.109        0.061      346.131       24.158      862.441
10/10/2014  16:19:00       24.818       34.733      -11.479       34.843       65.546       23.255     1214.005     4296.249      540.777        0.400        0.303       42.688       22.710        0.283      346.084       24.077      862.426
10/10/2014  16:20:00       24.473       82.742       -3.676       51.068       63.217       36.263     2607.927     3996.374     1315.021        0.769        0.396       86.286       39.990        0.215      346.077       24.064      862.411
10/10/2014  16:21:00       83.144       29.328       -4.027       15.389       24.889       17.616      236.827      619.440      310.329        0.448        0.058       88.165       12.839        0.021      345.915       23.789      862.405
10/10/2014  16:22:00       57.724        7.946        1.664       36.883       17.026       22.820     1360.344      289.879      520.757        0.278        0.109       58.268        8.524        0.021      346.027       23.980      862.396
10/10/2014  16:23:00       79.160       32.207       19.798       36.594       40.932       45.472     1339.133     1675.427     2067.689        0.639        0.254       85.462       22.165        0.067      346.023       23.972      862.392
10/10/2014  16:24:00       91.154       37.849       38.406       99.624       79.094       39.881     9924.956     6255.829     1590.471        1.449        0.889       98.700       29.205        0.088      346.306       24.458      862.393
10/10/2014  16:25:00        5.203      112.573       -7.582       92.450       61.300       35.301     8546.972     3757.674     1246.141        1.315        0.678      112.693       19.496        0.030      346.230       24.327      862.424
10/10/2014  16:26:00       47.995      160.004      -11.007       57.349      107.792       45.386     3288.903    11619.207     2059.915        2.249        0.848      167.047       48.866        0.086      346.090       24.086      862.431
10/10/2014  16:27:00      114.324       58.549       20.819       63.899       51.516       45.406     4083.142     2653.887     2061.662        1.286        0.440      128.444       30.577        0.057      346.132       24.158      862.431
10/10/2014  16:28:00      192.899      130.672       45.447      133.401      100.679       60.148    17795.861    10136.322     3617.761        4.395        1.577      232.992       32.779        0.020      346.077       24.063      862.434
10/10/2014  16:29:00      230.311      138.115       28.927      102.250       99.746       60.287    10455.071     9949.338     3634.512        4.849        1.202      268.549       39.830        0.022      345.987       23.906      862.436
10/10/2014  16:30:00       38.362       49.237       64.252       83.297       55.967       55.080     6938.379     3132.343     3033.809        1.056        0.655       62.417       43.726        0.491      346.089       24.085      862.450
10/10/2014  16:31:00       86.593       74.676        9.427       65.666       40.420       40.848     4312.033     1633.778     1668.596        1.039        0.381      114.346       31.207        0.074      346.145       24.182      862.463
10/10/2014  16:32:00       32.817      150.281      -12.172       73.643       68.499       47.097     5423.295     4692.140     2218.098        1.807        0.617      153.822       45.921        0.089      346.136       24.164      862.468
10/10/2014  16:33:00       19.088      119.067       -3.857       47.394       57.507       31.912     2246.213     3307.090     1018.372        1.056        0.329      120.587       28.007        0.054      346.087       24.083      862.472
10/10/2014  16:34:00      130.299       86.579        0.045       63.226       47.662       36.816     3997.513     2271.628     1355.420        1.605        0.381      156.441       18.581        0.014      346.118       24.134      862.460
10/10/2014  16:35:00      124.360       90.579        9.945       78.480       56.381       44.382     6159.135     3178.764     1969.743        1.754        0.565      153.850       32.360        0.044      345.949       23.845      862.451
10/10/2014  16:36:00       51.955       50.785       12.617       56.626       44.697       30.844     3206.467     1997.816      951.374        0.580        0.308       72.653       20.329        0.078      346.069       24.051      862.441
10/10/2014  16:37:00       13.778       29.210       -2.505       26.848       18.753       16.937      720.802      351.682      286.876        0.120        0.068       32.297       14.297        0.196      346.068       24.049      862.426
10/10/2014  16:38:00       25.833       10.438        2.499       29.918       23.351       18.135      895.080      545.269      328.866        0.128        0.088       27.862        7.315        0.069      346.118       24.136      862.414
10/10/2014  16:39:00        4.075        1.350        2.054       14.868       19.918       16.346      221.067      396.747      267.177        0.045        0.044        4.293       12.430        8.385      346.325       24.491      862.402
10/10/2014  16:40:00       42.273       39.367       10.032       42.450       37.414       33.081     1801.973     1399.815     1094.334        0.387        0.215       57.765       20.702        0.128      346.166       24.217      862.393
10/10/2014  16:41:00      -58.754      177.954      -20.178       53.609       86.906       37.731     2873.882     7552.616     1423.601        2.369        0.593      187.402       37.008        0.039      346.188       24.253      862.378
10/10/2014  16:42:00     -106.490       65.568      -16.723       77.873       47.613       32.595     6064.268     2266.997     1062.432        1.265        0.470      125.057       20.874        0.028      346.264       24.385      862.360
10/10/2014  16:43:00     -117.810       77.453       -4.517       81.882       53.246       33.223     6704.700     2835.166     1103.776        1.527        0.532      140.990       17.872        0.016      346.288       24.426      862.339
10/10/2014  16:44:00       -5.661       94.845        0.038       96.880       66.296       33.771     9385.827     4395.151     1140.508        1.197        0.746       95.013       36.228        0.145      346.234       24.334      862.327
10/10/2014  16:45:00       18.953       66.760        9.206       47.106       51.663       40.227     2219.005     2669.044     1618.195        0.570        0.325       69.398       24.813        0.128      346.288       24.427      862.307
10/10/2014  16:46:00        1.915       89.799       -1.889       58.937       59.952       32.661     3473.574     3594.265     1066.772        0.810        0.407       89.819       33.708        0.141      346.277       24.409      862.289
10/10/2014  16:47:00       61.143       79.704       -2.846       45.077       51.244       29.131     2031.895     2625.903      848.636        0.780        0.275      100.455       17.592        0.031      346.221       24.312      862.271
10/10/2014  16:48:00       62.224       78.311       -5.292       53.692       61.356       38.777     2882.816     3764.520     1503.648        0.909        0.408      100.022       38.893        0.151      346.223       24.316      862.258
10/10/2014  16:49:00       39.609       35.618       21.270       26.147       25.144       29.681      683.679      632.241      880.944        0.274        0.110       53.268       14.194        0.071      346.260       24.381      862.234
10/10/2014  16:50:00       92.936      115.563      -11.551       65.454       75.645       40.251     4284.234     5722.158     1620.128        1.687        0.581      148.297       42.183        0.081      346.263       24.384      862.246
10/10/2014  16:51:00      152.658       95.096       19.226       81.317       59.782       48.263     6612.525     3573.838     2329.328        2.261        0.626      179.855       28.213        0.025      346.161       24.207      862.220
10/10/2014  16:52:00      173.984      100.079       13.211       86.634       57.535       57.242     7505.368     3310.231     3276.626        2.727        0.705      200.714       33.948        0.029      346.089       24.084      862.204
10/10/2014  16:53:00      132.062      203.533      -10.580      111.318      108.474       73.683    12391.648    11766.711     5429.190        4.428        1.479      242.623       67.337        0.077      346.081       24.067      862.198
10/10/2014  16:54:00      141.641      180.752       -5.815       95.703      116.804       80.967     9159.120    13643.266     6555.631        4.106        1.468      229.638       70.733        0.095      346.035       23.990      862.193
10/10/2014  16:55:00       79.930      194.676      -12.333       87.670      117.813       78.098     7686.077    13879.926     6099.292        3.605        1.383      210.447       66.711        0.100      346.051       24.018      862.200
10/10/2014  16:56:00       17.381      261.221      -37.390       61.318       89.188       47.225     3759.928     7954.555     2230.230        4.194        0.697      261.798       52.494        0.040      346.048       24.012      862.201
10/10/2014  16:57:00      -56.700      212.872      -31.444       42.186       51.533       34.771     1779.629     2655.682     1209.049        2.758        0.282      220.294       30.954        0.020      346.001       23.930      862.210
10/10/2014  16:58:00       44.298      202.301      -30.941       54.201       62.739       44.953     2937.786     3936.227     2020.757        2.637        0.445      207.095       42.856        0.043      345.999       23.929      862.202
10/10/2014  16:59:00       35.534      180.153      -33.018       50.201       63.594       28.639     2520.190     4044.212      820.172        2.110        0.369      183.624       23.957        0.017      346.080       24.069      862.196
10/10/2014  17:00:00       47.604       84.580       -2.284       50.083       55.016       42.817     2508.271     3026.809     1833.275        0.840        0.368       97.056       38.140        0.154      346.100       24.104      862.214
10/10/2014  17:01:00       64.972      192.273      -15.352       64.923      115.027       62.638     4214.993    13231.143     3923.543        3.139        1.068      202.954       68.883        0.115      346.012       23.951      862.210
10/10/2014  17:02:00       74.362      142.121      -12.238       63.137      108.676       58.692     3986.252    11810.478     3444.781        2.256        0.962      160.399       55.918        0.122      346.031       23.985      862.203
10/10/2014  17:03:00       53.225      125.693        3.447       85.933       84.614       47.355     7384.403     7159.607     2242.471        1.771        0.839      136.498       44.038        0.104      346.020       23.966      862.207
10/10/2014  17:04:00      130.033      103.841       17.999      100.342       59.493       60.103    10068.445     3539.470     3612.359        2.261        0.861      166.407       48.586        0.085      345.970       23.880      862.193
10/10/2014  17:05:00       83.740      122.410       -2.793       64.681       92.674       61.481     4183.656     8588.512     3779.939        1.928        0.828      148.312       60.270        0.165      345.955       23.855      862.187
10/10/2014  17:06:00       81.712       26.498        8.521       53.931       42.751       32.749     2908.561     1827.620     1072.478        0.663        0.290       85.901       16.017        0.035      346.020       23.966      862.173
10/10/2014  17:07:00      102.847       58.222       11.583       35.800       35.734       30.218     1281.655     1276.912      913.128        0.879        0.174      118.184       12.798        0.012      346.037       23.995      862.164
10/10/2014  17:08:00      121.608       85.071       20.040       88.072       56.888       49.063     7756.645     3236.247     2407.181        1.791        0.670      148.410       19.312        0.017      346.010       23.948      862.159
10/10/2014  17:09:00      248.588      153.962       48.208      106.227       84.860       68.913    11284.208     7201.226     4748.968        5.553        1.162      292.404       36.593        0.016      345.882       23.727      862.158
10/10/2014  17:10:00      171.971      101.880       31.916       83.580       72.993       61.179     6985.630     5327.921     3742.903        2.851        0.803      199.883       53.940        0.073      345.877       23.720      862.148
10/10/2014  17:11:00      152.163      105.563       33.695       67.828       48.334       47.956     4600.685     2336.146     2299.808        2.233        0.462      185.194       31.893        0.030      345.892       23.745      862.154
10/10/2014  17:12:00       50.787       54.837       15.456       66.048       50.736       44.087     4362.370     2574.118     1943.637        0.735        0.444       74.742       29.942        0.160      345.918       23.793      862.150
10/10/2014  17:13:00       72.075       70.434       -0.816       50.796       48.510       35.143     2580.230     2353.247     1234.996        0.816        0.308      100.776       26.415        0.069      345.920       23.794      862.145
10/10/2014  17:14:00      113.468       44.081       43.905       66.758       46.662       49.795     4456.581     2177.348     2479.546        1.293        0.456      121.729       44.443        0.133      345.896       23.755      862.136
10/10/2014  17:15:00      147.864       84.719       42.770       79.170       53.896       60.370     6267.956     2904.813     3644.536        2.184        0.641      170.414       40.494        0.056      345.778       23.551      862.141
10/10/2014  17:16:00      147.801      102.511       44.390       66.855       60.931       49.927     4469.539     3712.547     2492.688        2.250        0.534      179.871       19.767        0.012      345.752       23.504      862.154
10/10/2014  17:17:00      160.626       89.083       15.815       62.456       53.742       38.875     3900.798     2888.200     1511.293        2.114        0.415      183.675       14.331        0.006      345.742       23.487      862.175
10/10/2014  17:18:00       96.229       60.864        0.622       45.998       59.850       43.340     2115.782     3581.968     1878.378        1.027        0.379      113.862       28.526        0.063      345.732       23.474      862.183
10/10/2014  17:19:00       32.175       46.293       50.565       77.152       51.244       40.531     5952.387     2625.947     1642.732        0.798        0.511       56.377       18.857        0.112      345.702       23.421      862.179
10/10/2014  17:20:00       53.431      122.776       -9.524       48.597       79.130       41.258     2361.710     6261.617     1702.250        1.417        0.516      133.899       41.082        0.094      345.690       23.399      862.207
10/10/2014  17:21:00       80.513       78.923        0.668       74.810       60.523       42.416     5596.480     3663.074     1799.079        1.188        0.553      112.744       31.125        0.076      345.686       23.392      862.218
10/10/2014  17:22:00       70.208      103.013       -5.270       55.635       84.099       37.560     3095.260     7072.600     1410.717        1.357        0.579      124.663       46.273        0.138      345.664       23.353      862.233
10/10/2014  17:23:00       54.033      121.128       -5.469       56.970       74.508       52.652     3245.580     5551.424     2772.273        1.459        0.578      132.633       45.839        0.119      345.677       23.377      862.244
10/10/2014  17:24:00       53.286       89.015       -3.984       47.735       68.469       35.924     2278.603     4688.063     1290.508        0.952        0.413      103.745       39.058        0.142      345.663       23.353      862.248
10/10/2014  17:25:00       98.711      101.309       17.091       76.498       68.609       50.339     5851.883     4707.155     2533.976        1.669        0.655      141.447       46.680        0.109      345.685       23.391      862.248
10/10/2014  17:26:00      105.868      107.789       -1.169       88.456       58.882       44.366     7824.516     3467.049     1968.345        1.804        0.663      151.084       37.875        0.063      345.653       23.336      862.266
10/10/2014  17:27:00      113.674       57.385       27.264       91.787       54.016       50.667     8424.828     2917.693     2567.110        1.543        0.695      127.337       17.080        0.018      345.637       23.307      862.272
10/10/2014  17:28:00       37.021       34.936        9.353       51.837       35.034       27.716     2687.052     1227.391      768.182        0.368        0.234       50.903       19.384        0.145      345.596       23.239      862.284
10/10/2014  17:29:00       65.087       83.274        4.311       57.340       46.321       33.648     3287.862     2145.673     1132.162        0.888        0.328      105.692       29.954        0.080      345.649       23.330      862.296
10/10/2014  17:30:00      121.385       82.510       14.532       30.483       29.568       26.062      929.242      874.262      679.220        1.212        0.124      146.773       14.600        0.010      345.607       23.257      862.313
10/10/2014  17:31:00      104.407       48.806       17.524       42.012       33.520       29.009     1764.992     1123.601      841.507        0.866        0.187      115.251       25.625        0.049      345.578       23.208      862.324
10/10/2014  17:32:00      143.228       78.419       12.842       49.846       38.772       35.992     2484.655     1503.263     1295.456        1.606        0.264      163.291       22.257        0.019      345.601       23.245      862.336
10/10/2014  17:33:00       66.713       52.794        5.758       46.252       31.870       29.450     2139.211     1015.704      867.304        0.565        0.201       85.076       21.133        0.062      345.531       23.127      862.333
10/10/2014  17:34:00       76.017       54.888        4.925       30.892       28.612       19.094      954.295      818.673      364.563        0.548        0.107       93.762       14.312        0.023      345.529       23.123      862.337
10/10/2014  17:35:00       76.617       42.441       13.582       28.818       21.097       18.981      830.496      445.099      360.269        0.475        0.082       87.587       10.316        0.014      345.481       23.041      862.337
10/10/2014  17:36:00       64.868       43.944       34.074       34.769       31.055       18.802     1208.868      964.388      353.521        0.491        0.126       78.351       13.152        0.028      345.496       23.067      862.327
10/10/2014  17:37:00       81.705       63.672       15.885       50.411       45.622       34.538     2541.249     2081.327     1192.900        0.840        0.291      103.585       32.163        0.096      345.492       23.061      862.345
10/10/2014  17:38:00      152.653      101.427       17.769       49.261       36.296       34.868     2426.606     1317.364     1215.805        1.943        0.248      183.277       19.636        0.011      345.572       23.199      862.349
10/10/2014  17:39:00       93.939       55.646       14.439       88.436       53.873       44.172     7820.910     2902.314     1951.124        1.240        0.634      109.184       27.425        0.063      345.506       23.085      862.350
10/10/2014  17:40:00       63.602       91.601       -8.191       42.136       60.726       34.789     1775.443     3687.653     1210.243        0.959        0.334      111.517       29.643        0.071      345.495       23.065      862.370
10/10/2014  17:41:00      103.697       77.916        6.953       48.386       40.728       35.534     2341.199     1658.769     1262.664        1.107        0.263      129.707       25.958        0.040      345.528       23.123      862.357
10/10/2014  17:42:00       81.735       63.021        8.281       58.695       49.784       34.529     3445.147     2478.493     1192.267        0.892        0.356      103.210       21.890        0.045      345.466       23.015      862.364
10/10/2014  17:43:00       77.916       94.606       -0.738       47.009       44.730       37.548     2209.841     2000.817     1409.875        1.032        0.281      122.561       30.809        0.063      345.457       23.000      862.363
10/10/2014  17:44:00       95.544      119.316       -1.580       58.658       71.824       45.469     3440.745     5158.712     2067.441        1.702        0.533      152.856       43.126        0.080      345.490       23.055      862.358
10/10/2014  17:45:00       97.218       70.893       19.949       85.606       55.431       35.685     7328.427     3072.558     1273.436        1.327        0.584      120.321       26.974        0.050      345.454       22.994      862.363
10/10/2014  17:46:00       74.568       61.688        0.040       37.676       36.902       32.811     1419.492     1361.725     1076.573        0.661        0.193       96.777       22.898        0.056      345.405       22.910      862.358
10/10/2014  17:47:00      121.902       95.359       16.227       68.641       49.761       37.133     4711.616     2476.170     1378.828        1.639        0.428      154.768       18.079        0.014      345.446       22.980      862.364
10/10/2014  17:48:00      105.264       87.713        8.560       35.230       30.618       31.582     1241.183      937.488      997.411        1.101        0.159      137.018       18.207        0.018      345.446       22.980      862.363
10/10/2014  17:49:00       62.243       77.997        0.201       46.416       44.400       31.561     2154.437     1971.338      996.113        0.754        0.256       99.788       28.539        0.082      345.455       22.998      862.373
10/10/2014  17:50:00       61.203       76.373        4.423       64.734       79.187       44.384     4190.534     6270.608     1969.983        1.101        0.622       97.871       43.951        0.202      345.517       23.103      862.371
10/10/2014  17:51:00      112.682       79.001       26.102       72.627       51.905       50.250     5274.651     2694.166     2525.107        1.506        0.525      137.617       31.158        0.051      345.498       23.068      862.373
10/10/2014  17:52:00      117.489      112.235       -0.365       69.880       52.718       42.085     4883.264     2779.226     1771.157        1.792        0.472      162.482       35.592        0.048      345.506       23.084      862.370
10/10/2014  17:53:00       87.731       65.761       13.907      100.257       57.639       39.777    10051.425     3322.234     1582.239        1.358        0.748      109.641       28.847        0.069      345.491       23.058      862.355
10/10/2014  17:54:00       82.225       63.193       18.804       48.697       35.123       32.058     2371.402     1233.628     1027.704        0.787        0.232      103.702       15.623        0.023      345.465       23.014      862.352
10/10/2014  17:55:00       73.152       72.595       13.762       56.676       41.924       30.060     3212.135     1757.656      903.584        0.834        0.294      103.060       24.916        0.058      345.423       22.943      862.333
10/10/2014  17:56:00       80.714      119.995      -11.553       53.433       64.193       36.890     2855.036     4120.745     1360.904        1.469        0.417      144.615       38.726        0.072      345.467       23.016      862.323
10/10/2014  17:57:00       92.973       60.869       19.312       42.890       32.530       34.926     1839.590     1058.231     1219.798        0.842        0.206      111.126       27.384        0.061      345.423       22.942      862.321
10/10/2014  17:58:00       74.627       73.835        9.461       67.816       43.275       39.034     4599.043     1872.741     1523.648        0.955        0.400      104.980       21.309        0.041      345.437       22.965      862.315
10/10/2014  17:59:00       95.933       73.802       20.036       65.287       44.728       40.216     4262.329     2000.637     1617.330        1.146        0.394      121.036       26.846        0.049      345.394       22.892      862.329
10/10/2014  18:00:00       98.334      109.513       11.161       81.771       72.445       48.148     6686.489     5248.344     2318.235        1.802        0.713      147.182       40.461        0.076      345.398       22.897      862.336
10/10/2014  18:01:00      101.779       65.995       14.518       55.847       38.682       36.943     3118.927     1496.290     1364.812        1.045        0.299      121.302       13.203        0.012      345.340       22.800      862.335
10/10/2014  18:02:00       47.485      107.907       -5.100       43.423       60.852       34.374     1885.528     3703.019     1181.558        1.035        0.339      117.893       25.853        0.048      345.311       22.750      862.350
10/10/2014  18:03:00      109.595       91.502       18.076       80.420       40.394       29.913     6467.308     1631.687      894.775        1.485        0.450      142.772       27.325        0.037      345.318       22.760      862.353
10/10/2014  18:04:00      101.500       96.493        8.282       66.282       47.664       32.087     4393.306     2271.898     1029.558        1.369        0.385      140.047       26.988        0.037      345.344       22.806      862.356
10/10/2014  18:05:00       59.258       90.459       -1.224       47.166       53.894       31.690     2224.598     2904.531     1004.245        0.891        0.307      108.140       28.548        0.070      345.279       22.693      862.356
10/10/2014  18:06:00       46.184       81.583       -6.835       54.235       63.756       30.827     2941.471     4064.776      950.325        0.839        0.398       93.749       31.696        0.114      345.263       22.668      862.370
10/10/2014  18:07:00       41.350      115.602       -4.414       41.015       73.609       33.836     1682.262     5418.220     1144.872        1.167        0.412      122.775       39.676        0.104      345.275       22.690      862.375
10/10/2014  18:08:00       74.078       67.565       -1.167       40.755       32.016       26.243     1660.940     1024.997      688.693        0.671        0.169      100.263       21.114        0.044      345.225       22.603      862.365
10/10/2014  18:09:00       57.580      119.893      -12.303       67.591      100.153       40.282     4568.520    10030.720     1622.620        1.703        0.811      133.003       40.680        0.094      345.186       22.536      862.377
10/10/2014  18:10:00       71.232       84.108        9.065       59.612       51.941       39.954     3553.546     2697.903     1596.357        1.004        0.392      110.218       37.874        0.118      345.149       22.473      862.389
10/10/2014  18:11:00       38.999      124.090      -16.198       40.293       54.950       31.803     1623.526     3019.520     1011.444        1.142        0.283      130.073       30.649        0.056      345.148       22.470      862.397
10/10/2014  18:12:00       18.612      114.260       -9.564       49.056       62.523       34.691     2406.527     3909.080     1203.493        1.050        0.376      115.766       40.718        0.124      345.062       22.323      862.405
10/10/2014  18:13:00       34.750      104.433       -1.555       56.306       59.634       36.530     3170.415     3556.219     1334.455        1.009        0.403      110.063       39.091        0.126      345.056       22.315      862.428
10/10/2014  18:14:00       42.721      119.831       -7.519       49.804       66.594       44.025     2480.417     4434.758     1938.221        1.255        0.443      127.218       40.537        0.102      345.035       22.278      862.438
10/10/2014  18:15:00       35.911      141.105      -16.135       58.273       83.703       50.054     3395.722     7006.233     2505.395        1.718        0.645      145.603       53.022        0.133      345.025       22.260      862.438
10/10/2014  18:16:00       50.873       97.805        0.191       46.576       71.482       43.156     2169.306     5109.625     1862.430        1.065        0.457      110.245       45.551        0.171      345.003       22.223      862.443
10/10/2014  18:17:00       34.930       99.516        1.032       58.442       56.758       46.165     3415.418     3221.484     2131.217        0.994        0.438      105.468       40.152        0.145      345.001       22.219      862.447
10/10/2014  18:18:00       24.875      123.239       -9.282       34.679       46.613       36.209     1202.652     2172.747     1311.123        1.029        0.234      125.724       33.432        0.071      344.921       22.083      862.454
10/10/2014  18:19:00       40.183       80.242        1.555       38.475       45.671       34.640     1480.337     2085.797     1199.906        0.641        0.238       89.741       28.585        0.101      344.891       22.031      862.453
10/10/2014  18:20:00       31.453       73.504        3.876       45.607       57.098       33.881     2080.017     3260.224     1147.938        0.645        0.324       79.951       28.773        0.130      344.922       22.085      862.460
10/10/2014  18:21:00       22.948      198.949      -34.831       40.153       48.544       25.270     1612.257     2356.544      638.590        2.296        0.230      200.268       20.722        0.011      344.985       22.191      862.483
10/10/2014  18:22:00       28.004      134.004      -11.756       39.157       67.770       38.120     1533.275     4592.732     1453.149        1.323        0.379      136.899       39.706        0.084      344.868       21.991      862.502
10/10/2014  18:23:00       25.847      155.575      -22.206       41.419       56.563       30.577     1715.522     3199.335      934.940        1.561        0.292      157.707       33.931        0.046      344.868       21.992      862.515
10/10/2014  18:24:00       28.717      184.573      -22.585       40.908       59.627       32.969     1673.440     3555.400     1086.943        2.086        0.316      186.794       32.437        0.030      344.938       22.110      862.528
10/10/2014  18:25:00       23.532      186.455      -30.606       31.364       32.937       19.381      983.701     1084.826      375.604        1.935        0.122      187.934       16.707        0.008      344.935       22.106      862.550
10/10/2014  18:26:00       13.974      174.383      -26.751       40.828       55.803       24.933     1666.948     3113.944      621.658        1.836        0.270      174.942       28.736        0.027      344.935       22.107      862.561
10/10/2014  18:27:00      -16.863      136.182      -22.073       19.211       20.272       12.373      369.077      410.950      153.080        1.012        0.047      137.222        8.824        0.004      344.928       22.095      862.578
10/10/2014  18:28:00        3.383      142.719      -23.768       29.631       48.081       22.441      877.973     2311.808      503.579        1.232        0.185      142.759       26.276        0.034      344.951       22.135      862.599
10/10/2014  18:29:00      -37.338      133.070      -21.088       31.391       22.076       13.549      985.398      487.338      183.569        1.060        0.083      138.209        8.783        0.004      344.931       22.102      862.617
10/10/2014  18:30:00      -21.325       96.875      -17.548       21.523       16.746       10.495      463.257      280.430      110.144        0.550        0.043       99.195        7.069        0.005      344.936       22.107      862.631
10/10/2014  18:31:00      -26.135       90.651      -14.095       27.549       22.438       13.748      758.935      503.464      189.020        0.528        0.073       94.343        9.689        0.011      344.923       22.086      862.636
10/10/2014  18:32:00      -36.848       73.234      -15.362       21.529       31.040       10.863      463.492      963.497      118.011        0.425        0.077       81.981        9.744        0.014      344.874       22.001      862.652
10/10/2014  18:33:00      -41.644       83.828      -14.483       29.834       39.755       14.848      890.091     1580.427      220.470        0.583        0.135       93.603       10.950        0.014      344.907       22.059      862.660
10/10/2014  18:34:00      -40.272      137.265      -22.047       33.255       64.329       19.732     1105.891     4138.229      389.356        1.329        0.282      143.051       23.228        0.026      344.916       22.074      862.671
10/10/2014  18:35:00      -77.979       87.322      -19.931       30.475       57.286       17.493      928.730     3281.636      306.000        0.931        0.226      117.072       22.550        0.037      344.858       21.976      862.677
10/10/2014  18:36:00     -103.141       15.332      -17.656       35.830       32.335       15.580     1283.773     1045.522      242.747        0.688        0.129      104.274       14.969        0.021      344.847       21.956      862.689
10/10/2014  18:37:00      -87.715       18.714      -14.252       18.272       24.841       12.546      333.867      617.075      157.410        0.468        0.055       89.689        6.269        0.005      344.856       21.972      862.699
10/10/2014  18:38:00     -113.610       59.129      -22.747       31.381       43.405       21.675      984.765     1883.997      469.816        1.013        0.167      128.076       18.173        0.020      344.807       21.888      862.720
10/10/2014  18:39:00     -109.024       27.216      -13.274       33.466       37.740       22.858     1119.977     1424.320      522.480        0.793        0.153      112.370       17.388        0.024      344.723       21.745      862.736
10/10/2014  18:40:00      -97.337       71.497      -13.542       36.900       60.863       31.250     1361.593     3704.353      976.569        1.041        0.302      120.774       23.226        0.037      344.651       21.621      862.761
10/10/2014  18:41:00      -98.600       31.155      -16.841       36.946       43.417       27.906     1364.972     1885.055      778.760        0.750        0.201      103.405       27.999        0.073      344.589       21.517      862.767
10/10/2014  18:42:00     -147.289      120.183      -45.518       33.839       37.773       21.353     1145.064     1426.797      455.968        2.062        0.151      190.100       10.725        0.003      344.551       21.450      862.786
10/10/2014  18:43:00     -139.321      131.840      -32.876       53.896       56.674       37.075     2904.794     3211.982     1374.550        2.268        0.375      191.812       25.904        0.018      344.514       21.386      862.794
10/10/2014  18:44:00     -121.146       75.075      -30.971       44.740       54.974       31.399     2001.674     3022.120      985.879        1.364        0.300      142.522       32.896        0.053      344.504       21.369      862.804
10/10/2014  18:45:00      -96.163       71.390      -11.889       37.642       63.941       32.921     1416.917     4088.470     1083.764        1.054        0.329      119.766       20.903        0.030      344.494       21.352      862.811
10/10/2014  18:46:00     -130.597      136.030      -32.957       47.277       71.012       30.994     2235.133     5042.643      960.626        2.244        0.412      188.573       24.763        0.017      344.493       21.349      862.821
10/10/2014  18:47:00     -171.196      147.866      -46.387       49.501       58.398       29.252     2450.383     3410.300      855.697        3.002        0.336      226.213       21.958        0.009      344.495       21.351      862.828
10/10/2014  18:48:00     -134.956      112.181      -25.309       59.232       53.758       36.323     3508.439     2889.873     1319.362        1.958        0.386      175.493       36.926        0.044      344.463       21.298      862.846
10/10/2014  18:49:00     -152.652      175.065      -39.373       44.693       76.093       36.701     1997.457     5790.178     1346.995        3.232        0.457      232.273       38.337        0.027      344.494       21.348      862.842
10/10/2014  18:50:00     -124.079      122.818      -12.705       48.830       52.983       41.236     2384.399     2807.219     1700.416        1.877        0.345      174.585       36.003        0.043      344.427       21.237      862.842
10/10/2014  18:51:00     -137.807      153.320      -33.245       51.106       45.259       31.861     2611.809     2048.358     1015.119        2.464        0.284      206.151       27.860        0.018      344.430       21.241      862.840
10/10/2014  18:52:00     -105.372       91.036      -18.963       54.255       54.278       36.226     2943.638     2946.081     1312.322        1.347        0.360      139.250       33.595        0.058      344.426       21.236      862.836
10/10/2014  18:53:00      -94.199      101.814      -21.074       36.178       48.774       27.719     1308.883     2378.891      768.366        1.207        0.223      138.706       25.186        0.033      344.440       21.262      862.840
10/10/2014  18:54:00      -95.916       75.481      -19.433       41.256       28.851       24.480     1702.079      832.356      599.294        0.920        0.157      122.055       14.414        0.014      344.448       21.275      862.843
10/10/2014  18:55:00     -118.816      140.706      -20.426       45.744       77.922       38.634     2092.551     6071.811     1492.611        2.199        0.483      184.162       34.096        0.034      344.448       21.272      862.850
10/10/2014  18:56:00     -137.138      175.761      -36.609       49.071       56.957       33.897     2408.001     3244.050     1149.018        2.892        0.340      222.932       27.051        0.015      344.416       21.216      862.863
10/10/2014  18:57:00     -104.067      129.592      -28.872       46.160       57.807       34.275     2130.715     3341.703     1174.781        1.755        0.332      166.205       34.371        0.043      344.391       21.177      862.884
10/10/2014  18:58:00     -157.336      132.202      -42.109       48.181       66.283       34.127     2321.432     4393.371     1164.641        2.594        0.394      205.504       32.979        0.026      344.413       21.211      862.904
10/10/2014  18:59:00     -153.800      164.486      -36.577       49.911       72.317       37.703     2491.131     5229.766     1421.546        3.059        0.457      225.189       35.882        0.025      344.377       21.150      862.927
10/10/2014  19:00:00     -169.782      155.122      -33.564       61.375       72.573       43.874     3766.870     5266.910     1924.938        3.249        0.548      229.976       43.694        0.036      344.356       21.112      862.937
10/10/2014  19:01:00     -174.542      185.618      -45.258       61.558       96.889       43.987     3789.416     9387.557     1934.821        4.104        0.756      254.792       45.278        0.032      344.333       21.074      862.944
10/10/2014  19:02:00     -181.283      169.500      -36.364       58.561       87.325       44.191     3429.445     7625.698     1952.810        3.796        0.650      248.181       42.495        0.029      344.352       21.106      862.947
10/10/2014  19:03:00     -143.692      154.192      -32.795       45.328       61.898       31.205     2054.588     3831.304      973.780        2.618        0.343      210.766       27.662        0.017      344.305       21.027      862.938
10/10/2014  19:04:00     -144.511      168.824      -34.409       57.328       64.056       32.583     3286.555     4103.117     1061.683        2.951        0.423      222.227       31.639        0.020      344.269       20.965      862.940
10/10/2014  19:05:00     -135.373      154.617      -18.572       50.042       78.703       36.635     2504.191     6194.184     1342.102        2.631        0.502      205.505       32.459        0.025      344.257       20.946      862.938
10/10/2014  19:06:00     -130.192      199.925      -31.515       49.095       57.439       40.873     2410.337     3299.237     1670.627        3.265        0.369      238.579       34.641        0.021      344.228       20.895      862.936
10/10/2014  19:07:00     -133.109      150.357      -33.484       56.019       49.063       31.175     3138.081     2407.223      971.885        2.398        0.326      200.811       27.105        0.018      344.229       20.899      862.940
10/10/2014  19:08:00     -129.881      204.397      -40.298       50.649       61.749       38.258     2565.275     3812.970     1463.679        3.406        0.392      242.172       32.727        0.018      344.204       20.852      862.937
10/10/2014  19:09:00     -141.057      153.710      -31.892       48.408       62.748       32.271     2343.349     3937.358     1041.423        2.593        0.366      208.624       32.388        0.024      344.188       20.827      862.945
10/10/2014  19:10:00     -129.495      106.943      -22.799       49.167       49.718       31.950     2417.362     2471.913     1020.819        1.732        0.296      167.946       33.945        0.041      344.156       20.774      862.962
10/10/2014  19:11:00     -135.934      183.769      -34.370       46.821       87.861       39.902     2192.171     7719.479     1592.154        3.247        0.575      228.581       39.754        0.030      344.164       20.785      862.969
10/10/2014  19:12:00     -142.943      174.722      -43.945       71.502       65.200       33.300     5112.482     4251.053     1108.877        3.168        0.524      225.744       38.239        0.029      344.193       20.835      862.979
10/10/2014  19:13:00     -100.804      146.594      -17.489       57.056       77.493       36.944     3255.359     6005.159     1364.893        2.129        0.531      177.908       36.948        0.043      344.126       20.722      862.978
10/10/2014  19:14:00     -179.095      166.160      -43.733       60.934       79.463       41.559     3712.999     6314.348     1727.124        3.667        0.588      244.303       47.329        0.038      344.172       20.798      862.988
10/10/2014  19:15:00     -161.919      187.624      -49.472       67.223       75.304       35.458     4518.935     5670.721     1257.287        3.766        0.572      247.832       32.425        0.017      344.174       20.802      862.995
10/10/2014  19:16:00     -136.719      153.156      -29.853       71.470       63.101       44.421     5107.929     3981.680     1973.230        2.705        0.553      205.302       42.000        0.042      344.156       20.771      863.008
10/10/2014  19:17:00     -147.230      171.326      -43.887       50.101       64.642       38.940     2510.144     4178.616     1516.310        3.058        0.410      225.897       30.798        0.019      344.154       20.768      863.010
10/10/2014  19:18:00     -126.825      130.757      -33.373       56.970       47.892       32.981     3245.532     2293.651     1087.724        2.046        0.331      182.159       28.908        0.025      344.136       20.739      863.022
10/10/2014  19:19:00     -131.885      159.773      -41.211       64.420       51.357       32.955     4149.909     2637.513     1086.022        2.625        0.394      207.174       27.828        0.018      344.150       20.762      863.020
10/10/2014  19:20:00      -93.683      144.598      -13.967       45.877       80.066       38.254     2104.730     6410.559     1463.334        1.993        0.499      172.294       35.670        0.043      344.023       20.546      863.026
10/10/2014  19:21:00      -85.117      107.926      -20.349       36.241       62.976       25.085     1313.421     3966.003      629.265        1.261        0.295      137.452       17.458        0.016      344.019       20.538      863.030
10/10/2014  19:22:00     -124.858      104.748      -18.237       50.636       59.708       33.961     2564.024     3565.031     1153.363        1.709        0.364      162.977       28.283        0.030      343.986       20.483      863.044
10/10/2014  19:23:00      -92.246       87.209      -18.006       66.028       53.822       30.487     4359.763     2896.812      929.467        1.231        0.409      126.944       21.220        0.028      343.988       20.487      863.055
10/10/2014  19:24:00     -117.603      124.631      -39.278       40.485       37.746       26.489     1639.030     1424.782      701.655        1.734        0.188      171.358       24.375        0.020      343.958       20.436      863.073
10/10/2014  19:25:00      -87.798       67.314      -11.418       52.249       39.125       24.314     2729.918     1530.778      591.167        0.861        0.243      110.633       21.586        0.038      343.870       20.287      863.085
10/10/2014  19:26:00     -105.024      100.192      -25.001       34.325       38.644       24.132     1178.199     1493.355      582.376        1.247        0.163      145.150       15.939        0.012      343.867       20.282      863.099
10/10/2014  19:27:00     -128.897      113.973      -27.462       44.113       40.763       31.334     1945.968     1661.626      981.794        1.747        0.229      172.059       24.395        0.020      343.870       20.286      863.112
10/10/2014  19:28:00     -107.964       48.310       -8.372       59.137       44.619       30.565     3497.168     1990.866      934.228        1.024        0.321      118.280       30.629        0.067      343.861       20.271      863.116
10/10/2014  19:29:00     -143.399      101.328      -38.495       47.303       74.193       33.577     2237.577     5504.582     1127.408        2.059        0.443      175.587       31.868        0.033      343.832       20.221      863.130
10/10/2014  19:30:00      -95.909       78.485      -21.053       39.373       38.947       21.329     1550.263     1516.846      454.946        0.966        0.176      123.929       20.706        0.028      343.792       20.153      863.129
10/10/2014  19:31:00      -93.079       97.302       -9.644       60.746       53.014       28.783     3690.104     2810.533      828.434        1.278        0.366      134.653       25.365        0.035      343.734       20.053      863.141
10/10/2014  19:32:00     -129.549      110.316      -14.849       62.020       59.762       34.940     3846.484     3571.491     1220.784        1.890        0.432      170.154       14.345        0.007      343.793       20.153      863.146
10/10/2014  19:33:00      -84.341       89.149      -18.427       41.953       67.667       26.457     1760.079     4578.804      699.981        1.122        0.352      122.723       22.527        0.034      343.772       20.118      863.157
10/10/2014  19:34:00      -90.828       96.564      -24.262       49.895       55.368       30.422     2489.545     3065.581      925.525        1.232        0.324      132.568       23.804        0.032      343.783       20.139      863.179
10/10/2014  19:35:00      -75.418      118.866      -19.795       41.275       49.731       28.581     1703.592     2473.141      816.896        1.260        0.250      140.773       28.790        0.042      343.718       20.027      863.192
10/10/2014  19:36:00     -117.596      150.733      -34.903       34.720       61.286       26.448     1205.511     3756.034      699.500        2.171        0.283      191.179       22.296        0.014      343.766       20.107      863.205
10/10/2014  19:37:00      -75.640       90.583      -10.878       49.530       63.435       30.627     2453.184     4024.050      937.985        1.073        0.371      118.012       32.491        0.076      343.712       20.017      863.215
10/10/2014  19:38:00      -79.467       75.076      -15.041       29.788       45.727       25.152      887.346     2090.935      632.646        0.789        0.181      109.323       21.178        0.038      343.713       20.020      863.228
10/10/2014  19:39:00      -91.327      138.263      -25.114       49.551       76.391       35.359     2455.267     5835.530     1250.243        1.881        0.477      165.703       38.610        0.054      343.752       20.083      863.236
10/10/2014  19:40:00      -94.107      113.396      -29.108       34.454       36.646       17.985     1187.059     1342.938      323.442        1.271        0.143      147.359       17.048        0.013      343.753       20.086      863.245
10/10/2014  19:41:00      -96.710       94.232      -16.362       44.267       56.841       34.127     1959.610     3230.853     1164.684        1.243        0.318      135.027       32.715        0.059      343.728       20.044      863.252
10/10/2014  19:42:00     -105.821      147.148      -36.582       50.934       56.745       33.934     2594.305     3219.984     1151.491        2.058        0.348      181.248       34.819        0.037      343.741       20.064      863.260
10/10/2014  19:43:00      -77.902       85.806      -13.669       41.750       38.338       25.484     1743.094     1469.767      649.413        0.874        0.193      115.894       20.999        0.033      343.667       19.939      863.264
10/10/2014  19:44:00     -135.848      121.938      -29.450       45.023       47.772       28.177     2027.074     2282.173      793.955        1.965        0.255      182.547       20.200        0.012      343.684       19.967      863.279
10/10/2014  19:45:00      -89.987       59.393       -7.784       41.390       49.479       21.463     1713.168     2448.183      460.654        0.815        0.231      107.820       27.016        0.063      343.615       19.851      863.283
10/10/2014  19:46:00      -65.381       43.780       -8.375       42.523       31.078       26.943     1808.174      965.828      725.902        0.488        0.175       78.685       23.737        0.091      343.640       19.893      863.297
10/10/2014  19:47:00      -84.281       13.308      -10.118       39.773       33.305       23.642     1581.859     1109.239      558.960        0.532        0.163       85.326       15.867        0.035      343.597       19.822      863.303
10/10/2014  19:48:00     -109.786       11.863      -24.150       35.992       25.978       20.283     1295.450      674.870      411.410        0.758        0.119      110.425       14.995        0.018      343.659       19.926      863.319
10/10/2014  19:49:00      -82.665       40.315      -25.516       38.828       57.410       29.253     1507.610     3295.914      855.766        0.738        0.283       91.972       27.615        0.090      343.621       19.861      863.337
10/10/2014  19:50:00     -113.210      102.102      -31.599       29.652       39.213       20.695      879.253     1537.697      428.273        1.354        0.142      152.451       17.083        0.013      343.592       19.811      863.349
10/10/2014  19:51:00      -96.061       46.335      -19.099       21.889       34.217       24.962      479.121     1170.783      623.081        0.701        0.114      106.652        5.430        0.003      343.600       19.824      863.369
10/10/2014  19:52:00      -59.222       50.058      -14.615       21.022       33.755       19.394      441.930     1139.391      376.109        0.409        0.098       77.543       16.000        0.043      343.517       19.683      863.370
10/10/2014  19:53:00      -73.894        2.791       -9.623       36.011       13.424       14.101     1296.825      180.206      198.833        0.362        0.084       73.946       17.362        0.055      343.500       19.656      863.396
10/10/2014  19:54:00      -58.351       64.093      -18.341       42.277       62.813       32.135     1787.332     3945.468     1032.668        0.731        0.338       86.676       38.469        0.197      343.478       19.616      863.408
10/10/2014  19:55:00      -65.095       -5.246       -1.457       52.256       38.722       24.817     2730.685     1499.420      615.866        0.456        0.242       65.306       28.648        0.192      343.370       19.434      863.428
10/10/2014  19:56:00      -96.943      -27.173       -2.678       28.581       30.764       19.276      816.863      946.402      371.545        0.614        0.107      100.679       12.872        0.016      343.428       19.532      863.450
10/10/2014  19:57:00      -76.820      -28.062       -6.140       38.558       27.044       18.773     1486.689      731.357      352.417        0.465        0.129       81.785       13.471        0.027      343.361       19.419      863.467
10/10/2014  19:58:00      -46.719      -10.655        2.140       43.650       28.804       27.278     1905.327      829.648      744.098        0.289        0.174       47.918       25.626        0.286      343.349       19.398      863.479
10/10/2014  19:59:00      -95.804      -30.579       -1.265       50.864       42.535       22.757     2587.168     1809.187      517.901        0.751        0.246      100.566       21.239        0.045      343.253       19.234      863.496
10/10/2014  20:00:00     -145.978      -44.782       -7.201       55.301       50.832       24.461     3058.211     2583.882      598.325        1.480        0.312      152.693       25.623        0.028      343.284       19.287      863.495
10/10/2014  20:01:00      -97.593      -72.167       -6.582       62.270       56.108       28.249     3877.578     3148.057      798.033        1.130        0.391      121.377       25.466        0.044      343.249       19.225      863.511
10/10/2014  20:02:00     -157.551     -126.147       -8.023       75.938       64.484       38.372     5766.545     4158.181     1472.391        2.610        0.570      201.830       39.037        0.037      343.100       18.971      863.517
10/10/2014  20:03:00     -168.676      -86.066       -1.229       65.084       59.812       31.581     4235.914     3577.445      997.355        2.233        0.441      189.364       27.572        0.021      343.085       18.947      863.526
10/10/2014  20:04:00     -165.646     -127.309       -0.021       95.757       61.048       51.236     9169.445     3726.812     2625.123        2.958        0.776      208.917       56.149        0.072      342.952       18.718      863.550
10/10/2014  20:05:00     -153.682      -73.743      -14.173       67.948       54.893       36.563     4616.986     3013.275     1336.864        1.911        0.448      170.459       27.667        0.026      342.937       18.695      863.575
10/10/2014  20:06:00     -154.080      -98.238        6.382      107.790       58.821       46.956    11618.692     3459.963     2204.865        2.535        0.864      182.733       46.454        0.065      343.034       18.857      863.592
10/10/2014  20:07:00     -232.202     -118.263      -14.492       77.210       77.918       40.141     5961.399     6071.165     1611.271        4.088        0.682      260.584       34.032        0.017      343.133       19.025      863.612
10/10/2014  20:08:00     -212.623      -99.417       -0.143       72.765       56.603       37.029     5294.757     3203.866     1371.135        3.248        0.493      234.717       36.656        0.024      343.186       19.117      863.650
10/10/2014  20:09:00     -202.640      -97.968       -0.298       63.010       55.171       36.840     3970.299     3043.878     1357.200        2.951        0.419      225.079       27.155        0.015      343.337       19.373      863.672
10/10/2014  20:10:00     -188.229      -69.862       -2.687       70.482       69.587       35.719     4967.643     4842.336     1275.869        2.570        0.554      200.776       40.797        0.041      343.320       19.346      863.694
10/10/2014  20:11:00     -152.106      -60.610       -1.127       89.002       70.933       43.240     7921.443     5031.428     1869.657        2.081        0.741      163.737       50.922        0.097      343.314       19.335      863.720
10/10/2014  20:12:00     -228.578      -78.710       -6.096      102.111       64.172       41.917    10426.619     4118.060     1757.018        3.739        0.815      241.750       45.317        0.035      343.424       19.523      863.730
10/10/2014  20:13:00     -248.767      -48.368       -9.165       63.911       55.501       37.476     4084.565     3080.407     1404.466        3.644        0.428      253.425       32.441        0.016      343.471       19.602      863.755
10/10/2014  20:14:00     -207.203      -24.692      -20.071       54.252       49.168       27.531     2943.323     2417.495      757.960        2.503        0.306      208.669       27.811        0.018      343.503       19.658      863.760
10/10/2014  20:15:00     -205.037        5.837      -22.257       83.327       33.007       27.068     6943.375     1089.450      732.703        2.567        0.438      205.121       37.747        0.034      343.439       19.548      863.768
10/10/2014  20:16:00     -207.021        2.550      -17.131       62.528       50.702       25.626     3909.801     2570.697      656.695        2.515        0.357      207.037       25.464        0.015      343.354       19.404      863.767
10/10/2014  20:17:00     -174.648      -19.299      -14.285       64.965       52.983       33.300     4220.466     2807.159     1108.862        1.961        0.407      175.711       33.624        0.037      343.289       19.294      863.764
10/10/2014  20:18:00     -152.344      -79.700       -1.190       59.174       41.357       28.282     3501.585     1710.377      799.861        1.779        0.301      171.932       20.875        0.015      343.287       19.291      863.765
10/10/2014  20:19:00     -164.280      -36.706      -14.539       44.716       33.439       22.399     1999.504     1118.175      501.708        1.608        0.181      168.331       21.395        0.016      343.263       19.250      863.761
10/10/2014  20:20:00     -116.619        2.941       -9.687       65.005       40.389       25.994     4225.668     1631.240      675.676        1.012        0.327      116.656       27.931        0.057      343.184       19.116      863.770
10/10/2014  20:21:00     -162.117      -19.588       -8.896       59.641       31.328       26.397     3557.080      981.457      696.814        1.599        0.262      163.296       29.669        0.033      343.085       18.948      863.765
10/10/2014  20:22:00     -126.694      -21.487       -7.418       43.553       26.327       18.835     1896.855      693.103      354.755        0.976        0.147      128.503       17.403        0.018      343.066       18.915      863.751
10/10/2014  20:23:00      -89.244      -23.880       -7.739       35.922       24.390       18.907     1290.384      594.865      357.481        0.542        0.112       92.384       15.864        0.029      343.052       18.891      863.750
10/10/2014  20:24:00      -96.519       21.647       -5.342       27.750       20.831       16.419      770.050      433.919      269.597        0.564        0.074       98.917        8.579        0.008      343.039       18.871      863.754
10/10/2014  20:25:00     -104.224       -3.261      -14.668       36.827       35.339       13.290     1356.247     1248.810      176.627        0.693        0.139      104.275       12.799        0.015      343.096       18.968      863.742
10/10/2014  20:26:00      -91.270        5.247       -2.975       29.642       20.531       18.221      878.650      421.502      331.999        0.500        0.082       91.421       15.577        0.029      343.090       18.957      863.732
10/10/2014  20:27:00     -144.994       33.014      -13.700       36.128       31.263       19.863     1305.251      977.355      394.556        1.249        0.134      148.705       15.645        0.011      343.058       18.901      863.735
10/10/2014  20:28:00     -125.562        3.486      -11.904       46.991       26.448       21.529     2208.184      699.476      463.517        0.964        0.169      125.610       26.790        0.045      343.028       18.851      863.729
10/10/2014  20:29:00     -116.581       -6.719       -7.248       28.784       29.618       22.403      828.540      877.236      501.910        0.795        0.110      116.775       18.676        0.026      342.932       18.688      863.748
10/10/2014  20:30:00     -141.642        7.576      -12.495       24.012       25.473       13.700      576.570      648.863      187.682        1.084        0.071      141.845       11.161        0.006      342.972       18.755      863.771
10/10/2014  20:31:00     -137.909       -5.535      -17.080       25.651       39.076       20.065      657.972     1526.900      402.597        1.096        0.129      138.020       13.812        0.010      342.951       18.721      863.795
10/10/2014  20:32:00     -131.295      -44.634       -6.942       40.401       40.024       25.278     1632.235     1601.917      638.981        1.158        0.194      138.674       18.380        0.018      342.795       18.453      863.824
10/10/2014  20:33:00     -103.230        2.081       -5.325       40.214       34.990       23.652     1617.197     1224.271      559.406        0.704        0.170      103.251       18.629        0.033      342.741       18.360      863.850
10/10/2014  20:34:00     -111.730      -37.835        0.911       45.696       39.725       30.556     2088.145     1578.106      933.669        0.926        0.230      117.962       27.632        0.055      342.649       18.205      863.863
10/10/2014  20:35:00     -129.336      -28.638       -8.170       30.299       37.786       18.652      918.056     1427.816      347.882        1.015        0.135      132.469       15.353        0.013      342.626       18.168      863.872
10/10/2014  20:36:00     -130.246      -36.759       -7.572       32.736       41.538       16.070     1071.675     1725.442      258.236        1.071        0.153      135.334        8.489        0.004      342.534       18.011      863.879
10/10/2014  20:37:00     -140.933      -39.236      -13.489       55.854       57.468       24.477     3119.706     3302.561      599.116        1.430        0.351      146.292       22.400        0.023      342.520       17.985      863.862
10/10/2014  20:38:00     -123.277      -17.220       -7.284       47.320       30.294       24.055     2239.145      917.704      578.633        0.964        0.187      124.474       27.395        0.048      342.492       17.940      863.846
10/10/2014  20:39:00     -123.662      -23.181       -2.688       46.167       26.002       22.394     2131.381      676.091      501.490        0.957        0.165      125.816       22.959        0.033      342.432       17.838      863.833
10/10/2014  20:40:00     -148.064        7.525      -18.423       31.293       29.653       21.654      979.238      879.298      468.893        1.232        0.116      148.255       15.267        0.011      342.493       17.941      863.816
10/10/2014  20:41:00     -167.129        6.216      -14.719       40.687       21.704       20.293     1655.399      471.043      411.807        1.536        0.127      167.244       18.321        0.012      342.582       18.093      863.821
10/10/2014  20:42:00     -145.951      -15.539      -15.834       53.034       32.423       22.514     2812.632     1051.263      506.886        1.308        0.219      146.776       23.827        0.026      342.417       17.812      863.841
10/10/2014  20:43:00     -132.909       15.002       -3.963       42.439       30.044       16.289     1801.061      902.652      265.327        1.044        0.148      133.753       17.895        0.018      342.504       17.960      863.853
10/10/2014  20:44:00     -144.512       16.688       -9.627       37.745       25.734       17.952     1424.693      662.250      322.261        1.183        0.120      145.472       17.000        0.014      342.550       18.037      863.863
10/10/2014  20:45:00     -114.560      -18.140       -6.033       39.699       33.086       22.245     1576.046     1094.710      494.844        0.833        0.158      115.988       19.069        0.027      342.431       17.835      863.881
10/10/2014  20:46:00      -93.761      -30.822        4.798       43.384       38.376       23.310     1882.201     1472.694      543.338        0.683        0.195       98.698       24.590        0.062      342.384       17.756      863.887
10/10/2014  20:47:00      -74.668       -5.553       -0.338       34.703       42.159       21.558     1204.265     1777.410      464.737        0.453        0.172       74.874       19.498        0.068      342.318       17.643      863.889
10/10/2014  20:48:00     -117.861       18.427       -3.827       40.098       31.570       19.814     1607.863      996.659      392.613        0.862        0.150      119.292       16.322        0.019      342.393       17.772      863.904
10/10/2014  20:49:00     -130.438      -24.157       -9.475       36.179       23.878       19.335     1308.912      570.180      373.840        0.997        0.113      132.657       15.247        0.013      342.364       17.722      863.903
10/10/2014  20:50:00     -141.794      -16.208       -7.539       47.927       39.703       22.869     2297.005     1576.306      522.984        1.241        0.220      142.718       25.967        0.033      342.285       17.586      863.919
10/10/2014  20:51:00     -152.347       13.030      -18.317       31.251       33.636       24.876      976.599     1131.348      618.832        1.322        0.136      152.903       20.648        0.018      342.256       17.538      863.926
10/10/2014  20:52:00     -117.464      -11.207       -9.871       39.559       37.304       20.625     1564.936     1391.610      425.386        0.870        0.169      117.998       21.002        0.032      342.317       17.643      863.941
10/10/2014  20:53:00     -147.623      -15.904      -19.122       36.521       37.606       20.965     1333.775     1414.187      439.540        1.280        0.159      148.477       19.941        0.018      342.311       17.632      863.965
10/10/2014  20:54:00     -165.565       -4.390      -19.386       51.959       32.723       26.960     2699.738     1070.782      726.850        1.615        0.225      165.623       27.613        0.028      342.225       17.484      863.965
10/10/2014  20:55:00     -106.149      -30.756       -5.448       37.605       38.043       25.765     1414.123     1447.242      663.837        0.788        0.176      110.515       22.574        0.042      342.142       17.346      863.950
10/10/2014  20:56:00     -110.983      -20.383      -14.928       41.379       40.860       30.421     1712.212     1669.572      925.407        0.863        0.215      112.839       22.152        0.039      342.059       17.204      863.942
10/10/2014  20:57:00     -144.068       -9.449      -14.447       41.516       37.971       23.018     1723.564     1441.788      529.817        1.237        0.185      144.377       17.412        0.015      342.108       17.286      863.929
10/10/2014  20:58:00     -140.300        1.112      -10.597       59.007       35.481       26.515     3481.874     1258.899      703.032        1.262        0.272      140.305       31.090        0.049      342.048       17.185      863.916
10/10/2014  20:59:00     -131.092       13.805       -9.883       43.468       41.570       22.932     1889.442     1728.081      525.861        1.081        0.207      131.817       20.277        0.024      342.029       17.155      863.926
10/10/2014  21:00:00     -135.646      -26.920      -11.883       44.498       43.238       30.576     1980.037     1869.509      934.910        1.202        0.239      138.291       23.973        0.030      342.054       17.195      863.930
10/10/2014  21:01:00     -146.713      -31.185      -14.905       41.164       37.696       19.186     1694.455     1421.005      368.104        1.310        0.174      149.991       17.485        0.014      342.048       17.185      863.926
10/10/2014  21:02:00     -125.783      -13.112       -6.803       42.447       48.458       27.063     1801.746     2348.134      732.422        1.046        0.244      126.464       23.489        0.034      341.997       17.098      863.928
10/10/2014  21:03:00      -81.906      -25.860        2.709       44.963       44.410       26.995     2021.628     1972.268      728.746        0.605        0.236       85.891       21.098        0.060      341.936       16.994      863.927
10/10/2014  21:04:00     -136.663      -12.288       -9.091       37.417       38.116       18.945     1400.003     1452.801      358.906        1.106        0.161      137.214       13.525        0.010      341.966       17.045      863.923
10/10/2014  21:05:00     -154.026       -9.380       -9.744       55.790       43.247       31.729     3112.549     1870.302     1006.730        1.495        0.299      154.311       32.156        0.043      341.894       16.924      863.929
10/10/2014  21:06:00     -165.444       10.963      -12.482       40.590       33.336       23.540     1647.563     1111.312      554.111        1.548        0.166      165.807       24.071        0.021      341.882       16.902      863.923
10/10/2014  21:07:00     -169.179      -25.712      -23.780       35.931       38.609       25.767     1291.070     1490.668      663.945        1.665        0.172      171.122       20.413        0.014      341.904       16.942      863.925
10/10/2014  21:08:00     -139.605      -43.886        0.889       54.029       33.002       24.042     2919.101     1089.121      578.007        1.300        0.229      146.340       26.310        0.032      341.884       16.907      863.926
10/10/2014  21:09:00     -125.391      -36.221       -4.010       47.111       40.184       26.242     2219.452     1614.755      688.646        1.079        0.226      130.517       22.049        0.029      341.785       16.739      863.931
10/10/2014  21:10:00     -115.998      -12.762       -5.724       63.093       39.607       23.047     3980.739     1568.743      531.155        0.986        0.304      116.698       25.994        0.050      341.796       16.757      863.938
10/10/2014  21:11:00     -145.948       -6.921      -15.387       58.974       31.860       21.556     3477.984     1015.035      464.653        1.327        0.248      146.112       26.905        0.034      341.799       16.763      863.947
10/10/2014  21:12:00      -93.142      -10.524       -1.801       54.636       36.107       26.515     2985.125     1303.688      703.020        0.689        0.250       93.734       31.093        0.110      341.761       16.697      863.951
10/10/2014  21:13:00     -109.569      -16.674      -13.081       36.663       26.980       19.553     1344.198      727.920      382.327        0.745        0.123      110.830       18.034        0.026      341.827       16.810      863.952
10/10/2014  21:14:00     -132.416      -11.959      -13.772       27.279       22.544       16.380      744.167      508.235      268.303        0.969        0.076      132.955       15.085        0.013      341.896       16.928      863.963
10/10/2014  21:15:00      -98.133       -9.539       -8.339       35.316       31.754       19.025     1247.212     1008.331      361.944        0.620        0.131       98.596       15.810        0.026      341.817       16.793      863.955
10/10/2014  21:16:00      -94.478      -12.589       -5.424       25.510       20.290       12.596      650.736      411.666      158.659        0.517        0.061       95.313       11.312        0.014      341.821       16.800      863.975
10/10/2014  21:17:00      -97.244      -15.024       -7.398       38.033       29.091       22.125     1446.512      846.305      489.503        0.626        0.139       98.398       21.774        0.049      341.751       16.680      863.984
10/10/2014  21:18:00     -105.794      -25.291       -6.068       34.508       20.391       22.045     1190.790      415.798      485.964        0.698        0.105      108.776       22.278        0.042      341.694       16.585      864.011
10/10/2014  21:19:00      -47.976      -35.857       -1.436       16.526       15.505       11.865      273.094      240.390      140.773        0.212        0.033       59.895        8.277        0.019      341.853       16.854      864.021
10/10/2014  21:20:00      -41.691      -57.248       -6.152       31.621       33.615       14.135      999.893     1129.945      199.796        0.369        0.116       70.820       16.940        0.057      342.029       17.153      864.028
10/10/2014  21:21:00      -47.905      -70.504        0.268       33.082       21.109       20.021     1094.404      445.604      400.855        0.460        0.097       85.239       19.692        0.053      342.022       17.142      864.024
10/10/2014  21:22:00      -41.907      -95.275        0.341       23.956       22.423       19.221      573.885      502.796      369.462        0.614        0.072      104.084       16.952        0.027      341.935       16.994      864.030
10/10/2014  21:23:00      -51.929      -66.228       -0.352       30.993       29.394       18.908      960.565      864.005      357.503        0.463        0.109       84.160       17.674        0.044      341.868       16.881      864.037
10/10/2014  21:24:00      -82.016      -50.387       -5.772       43.977       31.751       25.906     1933.934     1008.152      671.119        0.646        0.181       96.257       26.377        0.075      341.814       16.789      864.057
10/10/2014  21:25:00      -82.238      -54.792       -4.240       16.039       25.706       11.793      257.246      660.809      139.081        0.542        0.053       98.819        7.374        0.006      341.857       16.863      864.064
10/10/2014  21:26:00      -62.778      -27.227       -3.332       26.727       17.251       11.326      714.327      297.612      128.285        0.292        0.057       68.428        8.867        0.017      341.863       16.870      864.076
10/10/2014  21:27:00      -80.601      -31.976       -3.667       25.683       18.088       13.234      659.627      327.179      175.141        0.435        0.058       86.712       11.485        0.018      341.841       16.833      864.090
10/10/2014  21:28:00     -102.527      -35.641       -4.235       33.497       20.615       14.284     1122.051      424.994      204.038        0.678        0.088      108.546       10.597        0.010      341.792       16.751      864.085
10/10/2014  21:29:00     -118.427      -55.194       -1.973       34.451       19.437       12.977     1186.866      377.806      168.414        0.940        0.087      130.657       14.145        0.012      341.790       16.750      864.099
10/10/2014  21:30:00     -131.547      -50.474       -7.548       17.786       20.485       14.249      316.357      419.643      203.046        1.042        0.047      140.898       12.126        0.007      341.735       16.656      864.093
10/10/2014  21:31:00     -106.239      -42.355       -0.030       25.719       31.165       14.549      661.448      971.274      211.675        0.746        0.092      114.371       13.905        0.015      341.622       16.462      864.103
10/10/2014  21:32:00      -62.026      -34.315        5.197       41.854       34.749       19.820     1751.753     1207.483      392.851        0.420        0.168       70.886       17.431        0.060      341.632       16.480      864.112
10/10/2014  21:33:00     -100.639      -31.735        0.027       38.317       28.654       17.153     1468.174      821.043      294.223        0.686        0.129      105.524       16.992        0.026      341.548       16.336      864.107
10/10/2014  21:34:00      -83.751      -28.647        4.689       48.338       29.542       19.271     2336.567      872.744      371.358        0.572        0.179       88.515       21.287        0.058      341.479       16.221      864.118
10/10/2014  21:35:00     -111.402      -43.874       -7.603       32.090       26.820       14.722     1029.769      719.307      216.736        0.818        0.098      119.730       12.757        0.011      341.496       16.247      864.129
10/10/2014  21:36:00      -88.334      -29.699      -11.662       37.081       24.881       17.759     1374.987      619.085      315.375        0.556        0.115       93.193       19.405        0.043      341.460       16.187      864.137
10/10/2014  21:37:00      -76.022      -26.706       -1.849       45.168       25.848       19.004     2040.120      668.125      361.144        0.478        0.153       80.576       24.190        0.090      341.468       16.201      864.155
10/10/2014  21:38:00       -0.333        1.726        5.870       24.570        8.655       16.302      603.682       74.903      265.755        0.049        0.047        1.758        6.075       11.945      341.472       16.207      864.171
10/10/2014  21:39:00      -19.815      -30.642       -2.220       29.621       20.440       13.466      877.392      417.784      181.334        0.141        0.074       36.491       15.041        0.170      341.491       16.239      864.184
10/10/2014  21:40:00      -50.989      -16.762       -1.270       21.113       18.275       13.312      445.762      333.974      177.211        0.192        0.048       53.674       12.751        0.056      341.425       16.128      864.207
10/10/2014  21:41:00      -74.068      -28.561       -7.267       22.982       29.406       15.039      528.164      864.686      226.166        0.399        0.081       79.383       11.671        0.022      341.335       15.977      864.213
10/10/2014  21:42:00      -64.910      -21.682       -6.729       18.213       25.805       14.156      331.728      665.921      200.396        0.296        0.060       68.435        6.752        0.010      341.396       16.078      864.206
10/10/2014  21:43:00      -61.607       -1.140        0.364       40.867       22.536       18.429     1670.079      507.894      339.639        0.316        0.126       61.618       21.174        0.118      341.197       15.743      864.212
10/10/2014  21:44:00      -85.767      -20.808       -2.939       26.730       22.645       19.688      714.516      512.776      387.618        0.471        0.081       88.255       17.997        0.042      341.138       15.643      864.224
10/10/2014  21:45:00      -88.477       -9.767      -15.931       22.747       19.258       10.285      517.433      370.863      105.777        0.459        0.050       89.015        8.777        0.010      341.271       15.868      864.223
10/10/2014  21:46:00      -73.105      -23.257      -16.148       18.061       15.004       13.558      326.215      225.134      183.825        0.344        0.037       76.716        7.395        0.009      341.341       15.987      864.224
10/10/2014  21:47:00      -57.135      -20.442       -6.123       19.759       18.768       14.215      390.429      352.231      202.068        0.233        0.047       60.682        7.156        0.014      341.316       15.945      864.242
10/10/2014  21:48:00      -62.828      -43.665        4.797       35.903       21.654       17.329     1289.011      468.898      300.291        0.397        0.103       76.512       17.553        0.053      341.249       15.831      864.242
10/10/2014  21:49:00      -70.347      -42.549       -3.510       20.250       14.460       13.547      410.077      209.092      183.512        0.379        0.040       82.214        9.505        0.013      341.412       16.107      864.241
10/10/2014  21:50:00      -71.946      -22.927        0.197       22.422       16.975       12.134      502.759      288.142      147.228        0.332        0.047       75.511       11.871        0.025      341.451       16.172      864.245
10/10/2014  21:51:00      -56.451      -35.238       -1.510       21.016       15.062       12.114      441.674      226.851      146.752        0.262        0.041       66.547       11.595        0.030      341.440       16.154      864.236
10/10/2014  21:52:00      -64.223      -52.096       -3.931       32.425       25.942       14.014     1051.407      672.972      196.402        0.439        0.096       82.696       16.442        0.040      341.421       16.121      864.237
10/10/2014  21:53:00      -81.198      -46.226       -7.545       14.594       17.696       10.887      212.978      313.153      118.533        0.472        0.032       93.434        5.079        0.003      341.433       16.140      864.251
10/10/2014  21:54:00      -95.814      -38.950       -7.336       28.013       16.335       11.843      784.711      266.835      140.250        0.597        0.060      103.428       12.674        0.015      341.310       15.933      864.259
10/10/2014  21:55:00      -69.947      -10.356       -2.489       31.052       20.437       15.303      964.208      417.661      234.191        0.331        0.081       70.710       13.916        0.039      341.123       15.619      864.272
10/10/2014  21:56:00      -62.883      -32.991        6.015       32.456       20.632       17.600     1053.423      425.678      309.754        0.343        0.089       71.012       18.629        0.069      341.205       15.757      864.283
10/10/2014  21:57:00      -81.880      -20.972       -4.405       20.240       20.937       12.694      409.662      438.362      161.140        0.409        0.050       84.524       11.066        0.017      341.135       15.638      864.271
10/10/2014  21:58:00      -59.434      -16.939        1.482       26.567       17.786       14.503      705.798      316.351      210.336        0.253        0.062       61.801        9.846        0.025      341.102       15.582      864.271
10/10/2014  21:59:00      -84.139      -12.750       -5.373       25.238       19.653       14.440      636.940      386.253      208.522        0.425        0.062       85.099       14.079        0.027      341.042       15.482      864.278
10/10/2014  22:00:00      -85.490      -17.410        3.381       30.502       21.073       14.049      930.367      444.090      197.361        0.460        0.079       87.245       15.827        0.033      341.028       15.458      864.275
10/10/2014  22:01:00      -64.172      -34.228        2.570       27.404       18.395       13.186      750.998      338.383      173.868        0.328        0.063       72.729       13.957        0.037      341.074       15.535      864.275
10/10/2014  22:02:00      -94.292      -25.960        1.102       35.032       23.651       17.635     1227.240      559.360      311.000        0.583        0.105       97.800       16.308        0.028      341.108       15.592      864.277
10/10/2014  22:03:00      -78.874      -34.475        5.612       30.198       28.889       17.224      911.895      834.568      296.675        0.474        0.102       86.079       14.824        0.030      341.062       15.514      864.281
10/10/2014  22:04:00      -77.405      -24.196        1.989       25.457       19.992       13.273      648.069      399.697      176.164        0.390        0.061       81.098       10.082        0.015      341.098       15.575      864.276
10/10/2014  22:05:00      -64.869      -28.962        3.399       30.705       24.728       13.871      942.791      611.477      192.410        0.340        0.087       71.041       11.281        0.025      341.112       15.597      864.279
10/10/2014  22:06:00      -42.089      -32.250        0.133       35.878       25.027       16.117     1287.237      626.342      259.750        0.249        0.109       53.024       15.621        0.087      341.116       15.606      864.280
10/10/2014  22:07:00      -31.906      -25.289        2.345       34.227       18.662       19.542     1171.462      348.256      381.882        0.178        0.095       40.712       19.388        0.227      340.990       15.391      864.283
10/10/2014  22:08:00      -45.351      -34.146        2.133       42.106       20.815       13.969     1772.920      433.256      195.137        0.281        0.120       56.769       13.291        0.055      341.011       15.428      864.285
10/10/2014  22:09:00      -60.919      -57.353       -0.368       31.053       20.944       17.747      964.263      438.640      314.952        0.436        0.086       83.670       16.062        0.037      341.108       15.593      864.300
10/10/2014  22:10:00      -86.442      -74.632       -2.559       27.300       20.265       16.308      745.287      410.690      265.952        0.724        0.071      114.203       13.275        0.014      341.198       15.744      864.304
10/10/2014  22:11:00     -105.545      -38.724       -3.240       22.408       19.882       12.920      502.112      395.307      166.921        0.686        0.053      112.425        7.370        0.004      341.114       15.603      864.309
10/10/2014  22:12:00      -89.258      -58.889        1.555       35.019       29.773       16.624     1226.310      886.438      276.359        0.691        0.119      106.934        9.332        0.008      341.064       15.518      864.300
10/10/2014  22:13:00     -105.620      -78.050       -1.286       37.222       33.635       20.035     1385.450     1131.306      401.413        1.008        0.146      131.329       18.589        0.020      341.065       15.519      864.306
10/10/2014  22:14:00      -75.274      -55.751        4.817       54.213       29.119       22.010     2939.071      847.905      484.444        0.653        0.214       93.672       23.883        0.065      341.030       15.460      864.296
10/10/2014  22:15:00      -77.149      -42.257        0.305       47.780       26.362       21.069     2282.967      694.975      443.896        0.558        0.171       87.963       20.817        0.056      341.041       15.479      864.284
10/10/2014  22:16:00      -67.372      -74.850       -0.448       42.038       25.087       19.601     1767.224      629.345      384.209        0.646        0.139      100.706       18.219        0.033      341.087       15.558      864.297
10/10/2014  22:17:00      -53.436      -63.354        1.962       38.876       22.342       22.035     1511.356      499.173      485.521        0.468        0.125       82.880       22.141        0.071      341.025       15.452      864.303
10/10/2014  22:18:00      -81.346      -55.328       -1.466       32.000       24.360       19.797     1024.016      593.431      391.908        0.584        0.100       98.378       14.428        0.022      341.040       15.475      864.307
10/10/2014  22:19:00      -96.427      -45.124        1.987       33.611       19.063       17.365     1129.710      363.403      301.554        0.657        0.090      106.463       15.627        0.022      340.965       15.349      864.314
10/10/2014  22:20:00     -107.192      -54.842        0.128       41.245       22.799       16.158     1701.188      519.808      261.083        0.849        0.124      120.407        9.061        0.006      341.000       15.409      864.321
10/10/2014  22:21:00      -82.771      -33.362        4.197       42.150       29.464       17.376     1776.608      868.138      301.934        0.546        0.147       89.242       14.271        0.026      340.905       15.248      864.315
10/10/2014  22:22:00      -68.554      -40.166       -1.903       33.656       30.568       15.775     1132.696      934.384      248.844        0.432        0.116       79.454       15.574        0.038      340.943       15.312      864.323
10/10/2014  22:23:00      -51.456      -44.898        1.166       49.058       38.447       19.265     2406.690     1478.142      371.136        0.446        0.213       68.290       24.934        0.133      340.906       15.250      864.335
10/10/2014  22:24:00      -57.192      -44.964       -1.217       37.233       29.267       19.384     1386.261      856.558      375.723        0.396        0.131       72.750       21.530        0.088      340.883       15.210      864.337
10/10/2014  22:25:00      -92.602      -38.126       -2.055       21.326       33.070       15.301      454.783     1093.614      234.112        0.591        0.089      100.143        5.450        0.003      340.838       15.134      864.353
10/10/2014  22:26:00      -47.140      -20.166        5.643       32.769       21.367       13.764     1073.831      456.535      189.436        0.219        0.086       51.273       13.274        0.067      340.733       14.958      864.362
10/10/2014  22:27:00      -55.971      -33.719        2.349       24.090       22.221       14.176      580.330      493.788      200.951        0.277        0.064       65.343       13.308        0.041      340.821       15.106      864.365
10/10/2014  22:28:00      -36.970      -28.719       -0.086       23.819       19.543       12.791      567.341      381.939      163.609        0.165        0.056       46.815       11.002        0.055      340.840       15.139      864.372
10/10/2014  22:29:00      -29.591       -8.031        5.363       18.818       15.148       13.616      354.108      229.463      185.405        0.087        0.038       30.661        8.064        0.069      340.721       14.938      864.390
10/10/2014  22:30:00      -56.142      -14.929       -0.762       20.928       21.708       12.514      437.977      471.251      156.610        0.222        0.053       58.093        7.736        0.018      340.701       14.904      864.393
10/10/2014  22:31:00      -57.918      -35.246        2.403       29.680       25.218       14.891      880.929      635.962      221.748        0.317        0.087       67.800       13.676        0.041      340.658       14.831      864.394
10/10/2014  22:32:00      -91.769      -30.545       -8.787       19.644       26.373       10.099      385.871      695.537      101.983        0.531        0.059       96.719        7.406        0.006      340.734       14.959      864.398
10/10/2014  22:33:00      -90.689      -50.351       -8.814       22.446       24.280       14.295      503.826      589.494      204.333        0.607        0.065      103.729       11.222        0.012      340.781       15.039      864.386
10/10/2014  22:34:00      -80.617      -43.903       -0.832       25.204       19.010       13.365      635.234      361.398      178.613        0.480        0.059       91.796       11.243        0.015      340.728       14.948      864.384
10/10/2014  22:35:00      -40.672      -27.596        6.513       48.460       20.435       17.925     2348.375      417.593      321.302        0.277        0.154       49.150       24.182        0.242      340.741       14.972      864.380
10/10/2014  22:36:00      -30.395      -26.789        9.784       34.414       26.355       20.164     1184.331      694.588      406.577        0.201        0.114       40.515       17.255        0.181      340.689       14.884      864.375
10/10/2014  22:37:00      -77.428      -54.956        0.926       49.559       28.328       15.987     2456.108      802.489      255.587        0.626        0.176       94.949       19.026        0.040      340.726       14.945      864.377
10/10/2014  22:38:00     -102.443      -45.171       -2.815       36.677       27.747       19.329     1345.216      769.913      373.612        0.752        0.124      111.960       16.403        0.021      340.684       14.876      864.381
10/10/2014  22:39:00     -105.286      -36.624       -2.975       16.560       23.668       12.295      274.242      560.188      151.162        0.671        0.049      111.474        2.809        0.001      340.666       14.845      864.382
10/10/2014  22:40:00     -119.151      -15.654       -5.622       27.260       22.429       18.389      743.129      503.069      338.172        0.803        0.079      120.175       16.011        0.018      340.611       14.751      864.389
10/10/2014  22:41:00     -118.373      -11.511      -12.235       31.201       24.990       18.467      973.517      624.507      341.040        0.812        0.097      118.932       13.496        0.013      340.464       14.502      864.406
10/10/2014  22:42:00      -64.133       -8.917       -1.224       47.438       34.553       23.783     2250.330     1193.925      565.615        0.410        0.200       64.750       21.668        0.112      340.330       14.275      864.411
10/10/2014  22:43:00     -146.544      -15.561       -5.029       42.476       29.182       20.599     1804.209      851.605      424.312        1.241        0.154      147.368       19.322        0.017      340.306       14.236      864.416
10/10/2014  22:44:00     -135.314      -37.988       -6.013       30.311       23.298       17.188      918.752      542.777      295.425        1.077        0.088      140.545       12.916        0.008      340.386       14.370      864.410
10/10/2014  22:45:00     -119.189      -22.739       -5.292       33.430       29.065       17.384     1117.537      844.783      302.202        0.851        0.113      121.339       11.194        0.009      340.359       14.324      864.401
10/10/2014  22:46:00      -98.117      -28.573       -3.176       23.385       23.460       18.426      546.858      550.382      339.500        0.594        0.072      102.193       14.994        0.022      340.384       14.369      864.403
10/10/2014  22:47:00      -88.896      -24.559       -5.544       26.129       20.423       17.485      682.718      417.082      305.739        0.497        0.070       92.226       15.589        0.029      340.348       14.305      864.396
10/10/2014  22:48:00      -95.911      -21.383       -6.606       17.271       18.865       14.062      298.293      355.900      197.740        0.528        0.043       98.266       11.296        0.013      340.386       14.373      864.388
10/10/2014  22:49:00      -58.314      -19.254       -1.458       27.017       18.681       13.422      729.924      348.965      180.149        0.252        0.063       61.410       13.679        0.050      340.338       14.290      864.392
10/10/2014  22:50:00      -61.414      -15.303       -4.660       14.931       14.756       11.505      222.930      217.739      132.371        0.230        0.029       63.292        7.763        0.015      340.379       14.359      864.393
10/10/2014  22:51:00      -55.030      -28.866      -12.407       30.250       25.124       15.332      915.041      631.223      235.062        0.290        0.089       62.142       17.431        0.079      340.429       14.443      864.387
10/10/2014  22:52:00      -40.426      -30.748       -7.038       31.489       22.892       19.596      991.537      524.032      383.990        0.226        0.095       50.791       17.720        0.122      340.257       14.152      864.399
10/10/2014  22:53:00     -128.168      -44.912      -11.318       40.182       31.288       18.909     1614.596      978.925      357.563        1.076        0.148      135.809       18.622        0.019      340.212       14.076      864.392
10/10/2014  22:54:00     -110.005      -63.657       -4.515       31.667       34.659       17.662     1002.771     1201.236      311.954        0.934        0.126      127.095       14.405        0.013      340.214       14.080      864.386
10/10/2014  22:55:00     -125.897      -48.395      -10.200       19.432       27.154       14.914      377.590      737.355      222.417        0.982        0.067      134.878       10.249        0.006      340.155       13.980      864.388
10/10/2014  22:56:00      -90.152      -24.770       -1.160       33.820       36.874       23.493     1143.792     1359.664      551.910        0.590        0.153       93.493       22.475        0.058      340.150       13.973      864.383
10/10/2014  22:57:00     -107.647      -39.370       -2.674       35.394       34.758       18.037     1252.723     1208.117      325.338        0.797        0.139      114.621       17.351        0.023      340.054       13.810      864.375
10/10/2014  22:58:00     -118.334      -16.289       -4.088       47.684       35.879       25.014     2273.785     1287.338      625.684        0.924        0.209      119.450       24.762        0.043      340.029       13.767      864.369
10/10/2014  22:59:00      -86.838      -15.016       -2.280       48.670       34.398       18.384     2368.786     1183.232      337.964        0.583        0.194       88.127       18.724        0.045      339.996       13.711      864.368
10/10/2014  23:00:00     -113.091       -4.968       -3.667       54.699       45.218       28.229     2991.931     2044.705      796.870        0.933        0.292      113.201       27.954        0.061      340.006       13.728      864.361
10/10/2014  23:01:00     -168.506      -26.489      -16.761       38.416       35.934       21.303     1475.796     1291.222      453.803        1.630        0.161      170.575       21.505        0.016      339.991       13.703      864.375
10/10/2014  23:02:00     -195.222       -6.527      -21.470       19.197       30.272       21.095      368.525      916.405      445.018        2.017        0.086      195.331       14.243        0.005      340.024       13.759      864.370
10/10/2014  23:03:00     -119.705      -19.340      -11.846       56.394       42.383       20.582     3180.238     1796.295      423.633        1.012        0.270      121.257       27.567        0.052      339.999       13.716      864.367
10/10/2014  23:04:00     -111.111       -5.557      -11.184       44.849       19.324       21.942     2011.404      373.416      481.433        0.768        0.143      111.249       24.757        0.050      339.924       13.589      864.379
10/10/2014  23:05:00      -97.365      -11.549       -7.602       35.538       28.027       20.396     1262.967      785.492      416.014        0.607        0.123       98.047       16.647        0.029      340.024       13.760      864.371
10/10/2014  23:06:00      -70.210      -12.316        2.605       35.654       36.365       22.147     1271.235     1322.422      490.504        0.409        0.154       71.282       12.329        0.030      340.023       13.757      864.370
10/10/2014  23:07:00     -106.636       -6.261       -3.249       26.029       36.543       17.052      677.535     1335.369      290.764        0.686        0.115      106.819       12.117        0.013      340.099       13.886      864.373
10/10/2014  23:08:00      -93.838      -23.320       -6.961       38.612       30.786       23.798     1490.890      947.772      566.336        0.620        0.150       96.692       22.929        0.056      340.030       13.769      864.377
10/10/2014  23:09:00     -124.343      -16.167       -2.568       38.428       42.445       24.627     1476.690     1801.543      606.508        0.981        0.194      125.389       24.184        0.037      340.025       13.761      864.366
10/10/2014  23:10:00      -74.873      -17.113       -1.622       37.420       36.245       24.402     1400.283     1313.672      595.481        0.460        0.165       76.804       22.482        0.086      339.997       13.714      864.352
10/10/2014  23:11:00     -100.530      -12.976       -3.584       33.419       32.953       22.667     1116.802     1085.903      513.782        0.650        0.136      101.364       19.161        0.036      339.996       13.711      864.355
10/10/2014  23:12:00     -100.396      -12.289       -6.269       49.235       35.327       20.448     2424.096     1247.993      418.141        0.718        0.205      101.145       22.348        0.049      340.068       13.833      864.344
10/10/2014  23:13:00     -143.602       -4.820      -11.480       44.602       41.263       22.173     1989.308     1702.670      491.648        1.248        0.209      143.683       16.605        0.013      340.106       13.897      864.348
10/10/2014  23:14:00     -138.260        4.131      -12.848       42.680       36.721       22.449     1821.578     1348.452      503.944        1.149        0.184      138.322       20.884        0.023      340.062       13.824      864.341
10/10/2014  23:15:00     -116.088        2.020       -7.625       57.873       35.249       27.331     3349.300     1242.471      746.987        0.944        0.267      116.106       29.136        0.063      340.059       13.819      864.347
10/10/2014  23:16:00     -158.546       11.727      -18.140       39.500       43.815       22.111     1560.258     1919.718      488.900        1.479        0.198      158.979       15.845        0.010      340.255       14.148      864.340
10/10/2014  23:17:00     -179.598       29.009      -18.168       29.736       28.809       20.933      884.237      829.938      438.192        1.779        0.108      181.925       11.979        0.004      340.143       13.959      864.335
10/10/2014  23:18:00     -168.283       36.350       -4.871       31.288       26.033       17.894      978.931      677.703      320.178        1.582        0.099      172.165       14.965        0.008      340.132       13.942      864.336
10/10/2014  23:19:00     -131.643        4.582      -11.478       37.808       34.040       23.145     1429.417     1158.692      535.677        1.030        0.156      131.723       19.157        0.021      340.133       13.944      864.336
10/10/2014  23:20:00     -112.120        2.670       -9.707       47.067       41.799       23.603     2215.260     1747.118      557.105        0.860        0.226      112.152       21.314        0.036      340.167       14.002      864.346
10/10/2014  23:21:00     -172.438       20.567      -16.232       34.367       39.905       22.871     1181.057     1592.386      523.086        1.686        0.165      173.661       14.170        0.007      340.159       13.987      864.356
10/10/2014  23:22:00     -191.448       46.759      -28.940       58.816       52.202       28.716     3459.348     2725.036      824.601        2.334        0.350      197.075       26.906        0.019      340.275       14.181      864.366
10/10/2014  23:23:00     -202.046       22.044      -18.896       64.574       45.044       33.790     4169.862     2028.956     1141.797        2.450        0.367      203.245       37.687        0.034      340.268       14.168      864.394
10/10/2014  23:24:00     -200.119       24.500      -27.943       51.323       52.727       26.778     2634.095     2780.138      717.051        2.378        0.307      201.613       27.528        0.019      340.268       14.168      864.417
10/10/2014  23:25:00     -131.799       11.248      -16.870       56.194       45.358       24.543     3157.740     2057.372      602.335        1.180        0.291      132.278       20.605        0.024      340.405       14.401      864.432
10/10/2014  23:26:00     -123.833      -31.714      -12.688       47.922       43.814       26.967     2296.482     1919.678      727.246        1.072        0.247      127.830       15.541        0.015      340.379       14.358      864.460
10/10/2014  23:27:00     -168.550      -46.267      -19.478       45.232       26.659       26.625     2045.938      710.719      708.867        1.720        0.173      174.784       21.607        0.015      340.377       14.355      864.464
10/10/2014  23:28:00     -149.920       -7.741      -16.340       54.579       46.841       31.453     2978.888     2194.106      989.271        1.448        0.308      150.120       33.911        0.051      340.304       14.232      864.481
10/10/2014  23:29:00     -127.750       20.768      -23.885       62.484       32.481       24.846     3904.296     1055.011      617.313        1.145        0.279      129.427       28.039        0.047      340.438       14.458      864.474
10/10/2014  23:30:00     -123.812      -31.646       -7.942       49.217       50.186       29.805     2422.286     2518.659      888.330        1.111        0.291      127.793       27.257        0.045      340.525       14.606      864.466
10/10/2014  23:31:00     -120.075      -20.221       -3.074       68.388       39.674       27.691     4676.938     1573.993      766.807        1.093        0.351      121.766       37.872        0.097      340.442       14.464      864.465
10/10/2014  23:32:00     -129.054       -1.884      -16.748       41.309       43.489       26.515     1706.394     1891.256      703.047        1.062        0.215      129.068       24.486        0.036      340.497       14.558      864.460
10/10/2014  23:33:00     -174.230      -31.422      -13.246       38.383       66.013       23.364     1473.255     4357.734      545.892        1.895        0.319      177.040       20.589        0.014      340.517       14.591      864.473
10/10/2014  23:34:00     -120.280       -7.428      -16.741       41.264       37.081       20.574     1702.735     1375.015      423.276        0.915        0.175      120.509       15.673        0.017      340.398       14.392      864.471
10/10/2014  23:35:00     -106.312       -0.276       -8.488       31.753       32.713       18.953     1008.223     1070.117      359.229        0.691        0.122      106.312       12.615        0.014      340.489       14.544      864.465
10/10/2014  23:36:00      -80.476      -30.849       -4.852       55.749       43.165       21.935     3107.926     1863.221      481.138        0.645        0.273       86.186       18.016        0.044      340.388       14.373      864.471
10/10/2014  23:37:00      -62.371      -55.778       -4.761       61.165       37.697       27.060     3741.134     1421.070      732.241        0.646        0.295       83.674       27.350        0.107      340.231       14.108      864.481
10/10/2014  23:38:00      -46.239      -18.420        6.836       38.223       28.429       16.817     1461.003      808.209      282.810        0.254        0.128       49.773       16.303        0.107      340.144       13.961      864.483
10/10/2014  23:39:00        4.382       -8.101        8.490       19.115       17.484       11.496      365.366      305.707      132.152        0.048        0.040        9.210        7.909        0.737      339.954       13.641      864.476
10/10/2014  23:40:00       -5.861       -1.593       17.577       16.420       13.964       15.813      269.618      194.990      250.039        0.053        0.036        6.073       13.212        4.732      340.009       13.734      864.487
10/10/2014  23:41:00      -74.094      -33.679       -0.528       24.272       26.768       15.011      589.148      716.524      225.328        0.408        0.077       81.389       10.590        0.017      340.228       14.105      864.499
10/10/2014  23:42:00      -63.284       -3.827      -10.813       25.408       16.415       13.414      645.576      269.454      179.944        0.262        0.055       63.400        5.186        0.007      340.222       14.093      864.504
10/10/2014  23:43:00      -81.948      -13.168      -12.114       11.412       14.955       10.548      130.234      223.647      111.260        0.375        0.023       82.999        6.682        0.006      340.258       14.154      864.505
10/10/2014  23:44:00      -81.520       -2.763       -7.898       15.466       16.801        8.983      239.194      282.257       80.690        0.366        0.030       81.567        7.452        0.008      340.281       14.193      864.518
10/10/2014  23:45:00      -72.773      -40.455        0.549       23.535       23.237       10.887      553.913      539.975      118.529        0.407        0.061       83.261        6.630        0.006      340.302       14.227      864.520
10/10/2014  23:46:00      -60.147      -36.629       -3.771       25.659       17.703       11.661      658.362      313.390      135.974        0.304        0.055       70.423       10.643        0.023      340.296       14.218      864.517
10/10/2014  23:47:00      -33.491      -25.678        0.567       21.540       11.427       11.292      463.955      130.572      127.510        0.125        0.036       42.202        7.973        0.036      340.240       14.122      864.511
10/10/2014  23:48:00      -45.865      -20.650       -7.570       19.042       15.487        9.926      362.605      239.862       98.523        0.164        0.035       50.299        7.996        0.025      340.347       14.305      864.516
10/10/2014  23:49:00      -60.793      -21.704       -6.205       24.619       17.070       10.776      606.106      291.381      116.132        0.261        0.051       64.551        8.624        0.018      340.382       14.362      864.526
10/10/2014  23:50:00      -85.063      -30.184       -8.365       13.627       10.176       10.656      185.690      103.544      113.558        0.431        0.020       90.259        4.998        0.003      340.322       14.262      864.538
10/10/2014  23:51:00      -47.968      -24.665       -3.318       21.765       12.726       11.552      473.695      161.954      133.451        0.184        0.038       53.937        6.375        0.014      340.326       14.266      864.553
10/10/2014  23:52:00      -73.375      -34.660       -6.626       14.012       14.105       11.027      196.349      198.950      121.598        0.357        0.026       81.149        5.505        0.005      340.222       14.092      864.579
10/10/2014  23:53:00       -1.091      -14.523       15.092       27.053       16.457       16.077      731.851      270.846      258.458        0.085        0.063       14.564       17.041        1.369      340.001       13.721      864.598
10/10/2014  23:54:00        0.536        1.516       26.965       14.971       22.788       19.855      224.135      519.291      394.219        0.093        0.057        1.608       19.540      147.658      339.825       13.423      864.610
10/10/2014  23:55:00        5.155        4.478       12.757       10.566       16.637       16.564      111.639      276.804      274.362        0.044        0.033        6.829       15.940        5.449      339.985       13.692      864.625
10/10/2014  23:56:00       27.612        4.833        0.928       19.917       22.358       12.900      396.700      499.867      166.413        0.092        0.053       28.032        8.423        0.090      340.112       13.907      864.626
10/10/2014  23:57:00       24.175      -13.722       -5.051       18.898       17.897       13.651      357.124      320.291      186.355        0.083        0.043       27.798       10.043        0.131      340.449       14.477      864.628
10/10/2014  23:58:00       21.435        9.684       -5.288       17.172       21.104       14.085      294.879      445.398      198.374        0.076        0.047       23.521        7.582        0.104      340.526       14.608      864.636
10/10/2014  23:59:00       17.650       -1.836        1.811       16.795       11.612        8.312      282.058      134.838       69.092        0.040        0.024       17.745        3.959        0.050      340.506       14.574      864.651
